<?xml version="1.0" encoding="UTF-8" standalone="no" ?>
<gpx xmlns="http://www.topografix.com/GPX/1/1" xmlns:xsi="http://www.w3.org/2001/XMLSchema-instance" xsi:schemaLocation="http://www.topografix.com/GPX/1/1 http://www.topografix.com/GPX/1/1/gpx.xsd" version="1.1" creator="VisuGPX - https://www.visugpx.com">
  <metadata>
    <name>Nord nère depuis peyresourde</name>
    <desc><![CDATA[Nord nère depuis peyresourde]]></desc>
  </metadata>
  <trk>
    <name><![CDATA[Tracé actuel: 10 MARS 2015 06:54]]></name>
    <trkseg>
      <trkpt lat="42.7876" lon="0.4446">
        <ele>1532</ele>
        <time>2015-03-10T05:55:06Z</time>
      </trkpt>
      <trkpt lat="42.7876" lon="0.4446">
        <ele>1536.8</ele>
        <time>2015-03-10T05:55:07Z</time>
      </trkpt>
      <trkpt lat="42.7876" lon="0.4446">
        <ele>1541.13</ele>
        <time>2015-03-10T05:55:08Z</time>
      </trkpt>
      <trkpt lat="42.7876" lon="0.4446">
        <ele>1545.94</ele>
        <time>2015-03-10T05:55:09Z</time>
      </trkpt>
      <trkpt lat="42.7876" lon="0.4446">
        <ele>1550.26</ele>
        <time>2015-03-10T05:55:10Z</time>
      </trkpt>
      <trkpt lat="42.7876" lon="0.4446">
        <ele>1553.63</ele>
        <time>2015-03-10T05:55:11Z</time>
      </trkpt>
      <trkpt lat="42.7876" lon="0.44461">
        <ele>1557.95</ele>
        <time>2015-03-10T05:55:12Z</time>
      </trkpt>
      <trkpt lat="42.7876" lon="0.44461">
        <ele>1561.32</ele>
        <time>2015-03-10T05:55:13Z</time>
      </trkpt>
      <trkpt lat="42.7876" lon="0.44461">
        <ele>1565.16</ele>
        <time>2015-03-10T05:55:14Z</time>
      </trkpt>
      <trkpt lat="42.7876" lon="0.44462">
        <ele>1568.53</ele>
        <time>2015-03-10T05:55:15Z</time>
      </trkpt>
      <trkpt lat="42.7876" lon="0.44462">
        <ele>1572.37</ele>
        <time>2015-03-10T05:55:16Z</time>
      </trkpt>
      <trkpt lat="42.7876" lon="0.44462">
        <ele>1578.62</ele>
        <time>2015-03-10T05:55:18Z</time>
      </trkpt>
      <trkpt lat="42.7876" lon="0.44462">
        <ele>1581.99</ele>
        <time>2015-03-10T05:55:19Z</time>
      </trkpt>
      <trkpt lat="42.78759" lon="0.44462">
        <ele>1587.75</ele>
        <time>2015-03-10T05:55:21Z</time>
      </trkpt>
      <trkpt lat="42.78759" lon="0.44462">
        <ele>1593.04</ele>
        <time>2015-03-10T05:55:23Z</time>
      </trkpt>
      <trkpt lat="42.78758" lon="0.44462">
        <ele>1597.85</ele>
        <time>2015-03-10T05:55:25Z</time>
      </trkpt>
      <trkpt lat="42.78758" lon="0.44462">
        <ele>1602.66</ele>
        <time>2015-03-10T05:55:27Z</time>
      </trkpt>
      <trkpt lat="42.78758" lon="0.44462">
        <ele>1606.98</ele>
        <time>2015-03-10T05:55:28Z</time>
      </trkpt>
      <trkpt lat="42.78758" lon="0.44461">
        <ele>1608.9</ele>
        <time>2015-03-10T05:55:30Z</time>
      </trkpt>
      <trkpt lat="42.78759" lon="0.44461">
        <ele>1613.23</ele>
        <time>2015-03-10T05:55:32Z</time>
      </trkpt>
      <trkpt lat="42.78759" lon="0.44462">
        <ele>1617.07</ele>
        <time>2015-03-10T05:55:34Z</time>
      </trkpt>
      <trkpt lat="42.78759" lon="0.44463">
        <ele>1620.44</ele>
        <time>2015-03-10T05:55:36Z</time>
      </trkpt>
      <trkpt lat="42.78759" lon="0.44463">
        <ele>1623.8</ele>
        <time>2015-03-10T05:55:38Z</time>
      </trkpt>
      <trkpt lat="42.78759" lon="0.44463">
        <ele>1628.13</ele>
        <time>2015-03-10T05:55:41Z</time>
      </trkpt>
      <trkpt lat="42.78758" lon="0.44463">
        <ele>1631.98</ele>
        <time>2015-03-10T05:55:44Z</time>
      </trkpt>
      <trkpt lat="42.78758" lon="0.44462">
        <ele>1635.82</ele>
        <time>2015-03-10T05:55:47Z</time>
      </trkpt>
      <trkpt lat="42.78758" lon="0.44462">
        <ele>1639.19</ele>
        <time>2015-03-10T05:55:50Z</time>
      </trkpt>
      <trkpt lat="42.78756" lon="0.44463">
        <ele>1642.07</ele>
        <time>2015-03-10T05:55:52Z</time>
      </trkpt>
      <trkpt lat="42.78755" lon="0.44463">
        <ele>1644.47</ele>
        <time>2015-03-10T05:55:54Z</time>
      </trkpt>
      <trkpt lat="42.78749" lon="0.44466">
        <ele>1648.8</ele>
        <time>2015-03-10T05:55:59Z</time>
      </trkpt>
      <trkpt lat="42.78745" lon="0.44468">
        <ele>1652.16</ele>
        <time>2015-03-10T05:56:03Z</time>
      </trkpt>
      <trkpt lat="42.7874" lon="0.44468">
        <ele>1655.53</ele>
        <time>2015-03-10T05:56:08Z</time>
      </trkpt>
      <trkpt lat="42.78739" lon="0.44468">
        <ele>1656.01</ele>
        <time>2015-03-10T05:56:09Z</time>
      </trkpt>
      <trkpt lat="42.78737" lon="0.44468">
        <ele>1657.45</ele>
        <time>2015-03-10T05:56:11Z</time>
      </trkpt>
      <trkpt lat="42.78735" lon="0.44469">
        <ele>1658.89</ele>
        <time>2015-03-10T05:56:14Z</time>
      </trkpt>
      <trkpt lat="42.78731" lon="0.44469">
        <ele>1661.3</ele>
        <time>2015-03-10T05:56:18Z</time>
      </trkpt>
      <trkpt lat="42.78726" lon="0.44469">
        <ele>1664.66</ele>
        <time>2015-03-10T05:56:28Z</time>
      </trkpt>
      <trkpt lat="42.78728" lon="0.44468">
        <ele>1667.54</ele>
        <time>2015-03-10T05:56:45Z</time>
      </trkpt>
      <trkpt lat="42.78727" lon="0.44468">
        <ele>1668.99</ele>
        <time>2015-03-10T05:57:10Z</time>
      </trkpt>
      <trkpt lat="42.78712" lon="0.44478">
        <ele>1670.91</ele>
        <time>2015-03-10T05:57:25Z</time>
      </trkpt>
      <trkpt lat="42.78697" lon="0.44487">
        <ele>1671.39</ele>
        <time>2015-03-10T05:57:39Z</time>
      </trkpt>
      <trkpt lat="42.78681" lon="0.44499">
        <ele>1672.83</ele>
        <time>2015-03-10T05:57:54Z</time>
      </trkpt>
      <trkpt lat="42.78676" lon="0.44502">
        <ele>1673.31</ele>
        <time>2015-03-10T05:57:59Z</time>
      </trkpt>
      <trkpt lat="42.78663" lon="0.44507">
        <ele>1673.31</ele>
        <time>2015-03-10T05:58:10Z</time>
      </trkpt>
      <trkpt lat="42.78649" lon="0.44516">
        <ele>1674.27</ele>
        <time>2015-03-10T05:58:23Z</time>
      </trkpt>
      <trkpt lat="42.78641" lon="0.44526">
        <ele>1675.23</ele>
        <time>2015-03-10T05:58:33Z</time>
      </trkpt>
      <trkpt lat="42.78638" lon="0.44528">
        <ele>1675.72</ele>
        <time>2015-03-10T05:58:36Z</time>
      </trkpt>
      <trkpt lat="42.78635" lon="0.44528">
        <ele>1675.72</ele>
        <time>2015-03-10T05:58:50Z</time>
      </trkpt>
      <trkpt lat="42.78623" lon="0.44535">
        <ele>1677.16</ele>
        <time>2015-03-10T05:59:03Z</time>
      </trkpt>
      <trkpt lat="42.78613" lon="0.44537">
        <ele>1680.04</ele>
        <time>2015-03-10T05:59:16Z</time>
      </trkpt>
      <trkpt lat="42.78601" lon="0.4454">
        <ele>1682.44</ele>
        <time>2015-03-10T05:59:31Z</time>
      </trkpt>
      <trkpt lat="42.78592" lon="0.4454">
        <ele>1684.37</ele>
        <time>2015-03-10T05:59:44Z</time>
      </trkpt>
      <trkpt lat="42.78582" lon="0.44539">
        <ele>1687.25</ele>
        <time>2015-03-10T05:59:58Z</time>
      </trkpt>
      <trkpt lat="42.78576" lon="0.44539">
        <ele>1689.17</ele>
        <time>2015-03-10T06:00:10Z</time>
      </trkpt>
      <trkpt lat="42.78571" lon="0.44538">
        <ele>1691.1</ele>
        <time>2015-03-10T06:00:21Z</time>
      </trkpt>
      <trkpt lat="42.78563" lon="0.44538">
        <ele>1693.5</ele>
        <time>2015-03-10T06:00:34Z</time>
      </trkpt>
      <trkpt lat="42.78555" lon="0.44535">
        <ele>1694.94</ele>
        <time>2015-03-10T06:00:46Z</time>
      </trkpt>
      <trkpt lat="42.78546" lon="0.44531">
        <ele>1697.83</ele>
        <time>2015-03-10T06:00:59Z</time>
      </trkpt>
      <trkpt lat="42.78536" lon="0.44528">
        <ele>1700.23</ele>
        <time>2015-03-10T06:01:13Z</time>
      </trkpt>
      <trkpt lat="42.78528" lon="0.44526">
        <ele>1702.15</ele>
        <time>2015-03-10T06:01:27Z</time>
      </trkpt>
      <trkpt lat="42.78518" lon="0.44524">
        <ele>1704.55</ele>
        <time>2015-03-10T06:01:41Z</time>
      </trkpt>
      <trkpt lat="42.78508" lon="0.44522">
        <ele>1706.48</ele>
        <time>2015-03-10T06:01:55Z</time>
      </trkpt>
      <trkpt lat="42.78498" lon="0.4452">
        <ele>1708.88</ele>
        <time>2015-03-10T06:02:09Z</time>
      </trkpt>
      <trkpt lat="42.78489" lon="0.44516">
        <ele>1711.28</ele>
        <time>2015-03-10T06:02:23Z</time>
      </trkpt>
      <trkpt lat="42.7848" lon="0.44515">
        <ele>1714.65</ele>
        <time>2015-03-10T06:02:35Z</time>
      </trkpt>
      <trkpt lat="42.7847" lon="0.44516">
        <ele>1716.09</ele>
        <time>2015-03-10T06:02:49Z</time>
      </trkpt>
      <trkpt lat="42.7846" lon="0.44514">
        <ele>1717.53</ele>
        <time>2015-03-10T06:03:03Z</time>
      </trkpt>
      <trkpt lat="42.78454" lon="0.44513">
        <ele>1718.97</ele>
        <time>2015-03-10T06:03:17Z</time>
      </trkpt>
      <trkpt lat="42.7845" lon="0.44512">
        <ele>1718.97</ele>
        <time>2015-03-10T06:03:38Z</time>
      </trkpt>
      <trkpt lat="42.78437" lon="0.44509">
        <ele>1721.86</ele>
        <time>2015-03-10T06:03:53Z</time>
      </trkpt>
      <trkpt lat="42.78426" lon="0.44505">
        <ele>1723.3</ele>
        <time>2015-03-10T06:04:06Z</time>
      </trkpt>
      <trkpt lat="42.78412" lon="0.44501">
        <ele>1723.78</ele>
        <time>2015-03-10T06:04:20Z</time>
      </trkpt>
      <trkpt lat="42.78397" lon="0.44495">
        <ele>1725.22</ele>
        <time>2015-03-10T06:04:37Z</time>
      </trkpt>
      <trkpt lat="42.78387" lon="0.4449">
        <ele>1727.63</ele>
        <time>2015-03-10T06:04:51Z</time>
      </trkpt>
      <trkpt lat="42.78375" lon="0.44486">
        <ele>1729.55</ele>
        <time>2015-03-10T06:05:05Z</time>
      </trkpt>
      <trkpt lat="42.78361" lon="0.44481">
        <ele>1729.55</ele>
        <time>2015-03-10T06:05:19Z</time>
      </trkpt>
      <trkpt lat="42.78349" lon="0.44477">
        <ele>1730.99</ele>
        <time>2015-03-10T06:05:34Z</time>
      </trkpt>
      <trkpt lat="42.7834" lon="0.4447">
        <ele>1733.88</ele>
        <time>2015-03-10T06:05:49Z</time>
      </trkpt>
      <trkpt lat="42.78332" lon="0.44463">
        <ele>1735.8</ele>
        <time>2015-03-10T06:06:02Z</time>
      </trkpt>
      <trkpt lat="42.78325" lon="0.44456">
        <ele>1738.2</ele>
        <time>2015-03-10T06:06:16Z</time>
      </trkpt>
      <trkpt lat="42.78319" lon="0.44449">
        <ele>1740.6</ele>
        <time>2015-03-10T06:06:29Z</time>
      </trkpt>
      <trkpt lat="42.78312" lon="0.44442">
        <ele>1742.53</ele>
        <time>2015-03-10T06:06:42Z</time>
      </trkpt>
      <trkpt lat="42.78307" lon="0.44436">
        <ele>1745.41</ele>
        <time>2015-03-10T06:06:55Z</time>
      </trkpt>
      <trkpt lat="42.78302" lon="0.44431">
        <ele>1747.33</ele>
        <time>2015-03-10T06:07:07Z</time>
      </trkpt>
      <trkpt lat="42.78296" lon="0.44426">
        <ele>1749.74</ele>
        <time>2015-03-10T06:07:19Z</time>
      </trkpt>
      <trkpt lat="42.7829" lon="0.44419">
        <ele>1751.66</ele>
        <time>2015-03-10T06:07:32Z</time>
      </trkpt>
      <trkpt lat="42.78284" lon="0.44414">
        <ele>1754.54</ele>
        <time>2015-03-10T06:07:47Z</time>
      </trkpt>
      <trkpt lat="42.78279" lon="0.44409">
        <ele>1756.95</ele>
        <time>2015-03-10T06:08:00Z</time>
      </trkpt>
      <trkpt lat="42.78274" lon="0.44404">
        <ele>1758.87</ele>
        <time>2015-03-10T06:08:13Z</time>
      </trkpt>
      <trkpt lat="42.78267" lon="0.44399">
        <ele>1761.27</ele>
        <time>2015-03-10T06:08:26Z</time>
      </trkpt>
      <trkpt lat="42.78262" lon="0.44393">
        <ele>1763.2</ele>
        <time>2015-03-10T06:08:38Z</time>
      </trkpt>
      <trkpt lat="42.78255" lon="0.44387">
        <ele>1766.08</ele>
        <time>2015-03-10T06:08:55Z</time>
      </trkpt>
      <trkpt lat="42.78247" lon="0.44378">
        <ele>1769.44</ele>
        <time>2015-03-10T06:09:12Z</time>
      </trkpt>
      <trkpt lat="42.78239" lon="0.44372">
        <ele>1772.33</ele>
        <time>2015-03-10T06:09:28Z</time>
      </trkpt>
      <trkpt lat="42.7823" lon="0.44365">
        <ele>1775.21</ele>
        <time>2015-03-10T06:09:44Z</time>
      </trkpt>
      <trkpt lat="42.78226" lon="0.4436">
        <ele>1777.13</ele>
        <time>2015-03-10T06:09:57Z</time>
      </trkpt>
      <trkpt lat="42.7822" lon="0.44354">
        <ele>1779.54</ele>
        <time>2015-03-10T06:10:09Z</time>
      </trkpt>
      <trkpt lat="42.78212" lon="0.44348">
        <ele>1782.42</ele>
        <time>2015-03-10T06:10:25Z</time>
      </trkpt>
      <trkpt lat="42.78207" lon="0.44343">
        <ele>1784.82</ele>
        <time>2015-03-10T06:10:38Z</time>
      </trkpt>
      <trkpt lat="42.782" lon="0.44339">
        <ele>1787.71</ele>
        <time>2015-03-10T06:10:53Z</time>
      </trkpt>
      <trkpt lat="42.78193" lon="0.44335">
        <ele>1790.59</ele>
        <time>2015-03-10T06:11:08Z</time>
      </trkpt>
      <trkpt lat="42.78185" lon="0.44326">
        <ele>1793</ele>
        <time>2015-03-10T06:11:23Z</time>
      </trkpt>
      <trkpt lat="42.78178" lon="0.44322">
        <ele>1794.92</ele>
        <time>2015-03-10T06:11:36Z</time>
      </trkpt>
      <trkpt lat="42.7817" lon="0.44316">
        <ele>1796.36</ele>
        <time>2015-03-10T06:11:49Z</time>
      </trkpt>
      <trkpt lat="42.78162" lon="0.44308">
        <ele>1797.8</ele>
        <time>2015-03-10T06:12:03Z</time>
      </trkpt>
      <trkpt lat="42.78152" lon="0.44301">
        <ele>1799.73</ele>
        <time>2015-03-10T06:12:17Z</time>
      </trkpt>
      <trkpt lat="42.78145" lon="0.44292">
        <ele>1801.65</ele>
        <time>2015-03-10T06:12:31Z</time>
      </trkpt>
      <trkpt lat="42.78144" lon="0.44292">
        <ele>1802.13</ele>
        <time>2015-03-10T06:12:48Z</time>
      </trkpt>
      <trkpt lat="42.78144" lon="0.44293">
        <ele>1802.13</ele>
        <time>2015-03-10T06:13:18Z</time>
      </trkpt>
      <trkpt lat="42.78137" lon="0.44293">
        <ele>1803.09</ele>
        <time>2015-03-10T06:13:30Z</time>
      </trkpt>
      <trkpt lat="42.78126" lon="0.44288">
        <ele>1805.01</ele>
        <time>2015-03-10T06:13:44Z</time>
      </trkpt>
      <trkpt lat="42.78116" lon="0.44285">
        <ele>1806.94</ele>
        <time>2015-03-10T06:13:57Z</time>
      </trkpt>
      <trkpt lat="42.78107" lon="0.4428">
        <ele>1809.34</ele>
        <time>2015-03-10T06:14:10Z</time>
      </trkpt>
      <trkpt lat="42.78098" lon="0.44275">
        <ele>1811.74</ele>
        <time>2015-03-10T06:14:23Z</time>
      </trkpt>
      <trkpt lat="42.78087" lon="0.4427">
        <ele>1813.66</ele>
        <time>2015-03-10T06:14:37Z</time>
      </trkpt>
      <trkpt lat="42.78077" lon="0.44266">
        <ele>1815.59</ele>
        <time>2015-03-10T06:14:50Z</time>
      </trkpt>
      <trkpt lat="42.78068" lon="0.44264">
        <ele>1817.99</ele>
        <time>2015-03-10T06:15:03Z</time>
      </trkpt>
      <trkpt lat="42.78056" lon="0.44263">
        <ele>1820.39</ele>
        <time>2015-03-10T06:15:18Z</time>
      </trkpt>
      <trkpt lat="42.78044" lon="0.44264">
        <ele>1822.8</ele>
        <time>2015-03-10T06:15:33Z</time>
      </trkpt>
      <trkpt lat="42.78032" lon="0.44265">
        <ele>1825.2</ele>
        <time>2015-03-10T06:15:47Z</time>
      </trkpt>
      <trkpt lat="42.78022" lon="0.44268">
        <ele>1827.6</ele>
        <time>2015-03-10T06:16:01Z</time>
      </trkpt>
      <trkpt lat="42.78011" lon="0.44273">
        <ele>1829.53</ele>
        <time>2015-03-10T06:16:15Z</time>
      </trkpt>
      <trkpt lat="42.78002" lon="0.44279">
        <ele>1831.93</ele>
        <time>2015-03-10T06:16:29Z</time>
      </trkpt>
      <trkpt lat="42.77994" lon="0.44288">
        <ele>1833.85</ele>
        <time>2015-03-10T06:16:42Z</time>
      </trkpt>
      <trkpt lat="42.77985" lon="0.44294">
        <ele>1837.22</ele>
        <time>2015-03-10T06:16:55Z</time>
      </trkpt>
      <trkpt lat="42.77974" lon="0.44298">
        <ele>1839.62</ele>
        <time>2015-03-10T06:17:09Z</time>
      </trkpt>
      <trkpt lat="42.77973" lon="0.44298">
        <ele>1839.62</ele>
        <time>2015-03-10T06:17:11Z</time>
      </trkpt>
      <trkpt lat="42.77962" lon="0.44309">
        <ele>1841.54</ele>
        <time>2015-03-10T06:17:25Z</time>
      </trkpt>
      <trkpt lat="42.7795" lon="0.44322">
        <ele>1841.54</ele>
        <time>2015-03-10T06:17:40Z</time>
      </trkpt>
      <trkpt lat="42.77947" lon="0.44327">
        <ele>1841.06</ele>
        <time>2015-03-10T06:17:45Z</time>
      </trkpt>
      <trkpt lat="42.77936" lon="0.44343">
        <ele>1842.02</ele>
        <time>2015-03-10T06:18:01Z</time>
      </trkpt>
      <trkpt lat="42.77927" lon="0.44353">
        <ele>1843.95</ele>
        <time>2015-03-10T06:18:15Z</time>
      </trkpt>
      <trkpt lat="42.77919" lon="0.44362">
        <ele>1846.35</ele>
        <time>2015-03-10T06:18:28Z</time>
      </trkpt>
      <trkpt lat="42.77912" lon="0.4437">
        <ele>1847.79</ele>
        <time>2015-03-10T06:18:41Z</time>
      </trkpt>
      <trkpt lat="42.77905" lon="0.44379">
        <ele>1850.19</ele>
        <time>2015-03-10T06:18:54Z</time>
      </trkpt>
      <trkpt lat="42.779" lon="0.44388">
        <ele>1852.6</ele>
        <time>2015-03-10T06:19:07Z</time>
      </trkpt>
      <trkpt lat="42.77895" lon="0.44397">
        <ele>1855</ele>
        <time>2015-03-10T06:19:20Z</time>
      </trkpt>
      <trkpt lat="42.77891" lon="0.44408">
        <ele>1857.4</ele>
        <time>2015-03-10T06:19:34Z</time>
      </trkpt>
      <trkpt lat="42.77888" lon="0.44418">
        <ele>1859.81</ele>
        <time>2015-03-10T06:19:48Z</time>
      </trkpt>
      <trkpt lat="42.77887" lon="0.44426">
        <ele>1862.21</ele>
        <time>2015-03-10T06:19:59Z</time>
      </trkpt>
      <trkpt lat="42.77884" lon="0.44434">
        <ele>1864.13</ele>
        <time>2015-03-10T06:20:10Z</time>
      </trkpt>
      <trkpt lat="42.77883" lon="0.44443">
        <ele>1866.06</ele>
        <time>2015-03-10T06:20:22Z</time>
      </trkpt>
      <trkpt lat="42.77882" lon="0.44451">
        <ele>1867.98</ele>
        <time>2015-03-10T06:20:35Z</time>
      </trkpt>
      <trkpt lat="42.7788" lon="0.4446">
        <ele>1870.38</ele>
        <time>2015-03-10T06:20:48Z</time>
      </trkpt>
      <trkpt lat="42.77877" lon="0.44475">
        <ele>1873.75</ele>
        <time>2015-03-10T06:21:08Z</time>
      </trkpt>
      <trkpt lat="42.77876" lon="0.44489">
        <ele>1876.63</ele>
        <time>2015-03-10T06:21:24Z</time>
      </trkpt>
      <trkpt lat="42.77876" lon="0.44493">
        <ele>1877.59</ele>
        <time>2015-03-10T06:21:35Z</time>
      </trkpt>
      <trkpt lat="42.77876" lon="0.44494">
        <ele>1877.59</ele>
        <time>2015-03-10T06:22:04Z</time>
      </trkpt>
      <trkpt lat="42.77876" lon="0.44493">
        <ele>1877.59</ele>
        <time>2015-03-10T06:22:25Z</time>
      </trkpt>
      <trkpt lat="42.77874" lon="0.44501">
        <ele>1878.55</ele>
        <time>2015-03-10T06:22:47Z</time>
      </trkpt>
      <trkpt lat="42.77875" lon="0.44512">
        <ele>1881.44</ele>
        <time>2015-03-10T06:23:00Z</time>
      </trkpt>
      <trkpt lat="42.77873" lon="0.44526">
        <ele>1884.32</ele>
        <time>2015-03-10T06:23:15Z</time>
      </trkpt>
      <trkpt lat="42.77875" lon="0.44536">
        <ele>1886.24</ele>
        <time>2015-03-10T06:23:27Z</time>
      </trkpt>
      <trkpt lat="42.77873" lon="0.44544">
        <ele>1887.69</ele>
        <time>2015-03-10T06:23:42Z</time>
      </trkpt>
      <trkpt lat="42.77873" lon="0.44551">
        <ele>1889.13</ele>
        <time>2015-03-10T06:23:55Z</time>
      </trkpt>
      <trkpt lat="42.77871" lon="0.44559">
        <ele>1889.61</ele>
        <time>2015-03-10T06:24:08Z</time>
      </trkpt>
      <trkpt lat="42.77868" lon="0.44574">
        <ele>1892.49</ele>
        <time>2015-03-10T06:24:23Z</time>
      </trkpt>
      <trkpt lat="42.77863" lon="0.44586">
        <ele>1894.9</ele>
        <time>2015-03-10T06:24:36Z</time>
      </trkpt>
      <trkpt lat="42.77857" lon="0.44598">
        <ele>1896.82</ele>
        <time>2015-03-10T06:24:50Z</time>
      </trkpt>
      <trkpt lat="42.77851" lon="0.44608">
        <ele>1899.22</ele>
        <time>2015-03-10T06:25:05Z</time>
      </trkpt>
      <trkpt lat="42.77846" lon="0.4462">
        <ele>1901.63</ele>
        <time>2015-03-10T06:25:18Z</time>
      </trkpt>
      <trkpt lat="42.77841" lon="0.44628">
        <ele>1904.03</ele>
        <time>2015-03-10T06:25:31Z</time>
      </trkpt>
      <trkpt lat="42.77837" lon="0.44637">
        <ele>1906.43</ele>
        <time>2015-03-10T06:25:43Z</time>
      </trkpt>
      <trkpt lat="42.77836" lon="0.44648">
        <ele>1908.35</ele>
        <time>2015-03-10T06:25:56Z</time>
      </trkpt>
      <trkpt lat="42.77834" lon="0.44657">
        <ele>1910.76</ele>
        <time>2015-03-10T06:26:09Z</time>
      </trkpt>
      <trkpt lat="42.77832" lon="0.44668">
        <ele>1913.64</ele>
        <time>2015-03-10T06:26:22Z</time>
      </trkpt>
      <trkpt lat="42.77831" lon="0.4468">
        <ele>1916.04</ele>
        <time>2015-03-10T06:26:36Z</time>
      </trkpt>
      <trkpt lat="42.77831" lon="0.4469">
        <ele>1917.97</ele>
        <time>2015-03-10T06:26:48Z</time>
      </trkpt>
      <trkpt lat="42.77831" lon="0.44698">
        <ele>1919.89</ele>
        <time>2015-03-10T06:26:59Z</time>
      </trkpt>
      <trkpt lat="42.77834" lon="0.44707">
        <ele>1922.29</ele>
        <time>2015-03-10T06:27:11Z</time>
      </trkpt>
      <trkpt lat="42.77837" lon="0.44714">
        <ele>1924.22</ele>
        <time>2015-03-10T06:27:22Z</time>
      </trkpt>
      <trkpt lat="42.77841" lon="0.44722">
        <ele>1926.62</ele>
        <time>2015-03-10T06:27:34Z</time>
      </trkpt>
      <trkpt lat="42.77846" lon="0.44733">
        <ele>1929.02</ele>
        <time>2015-03-10T06:27:48Z</time>
      </trkpt>
      <trkpt lat="42.77849" lon="0.44747">
        <ele>1930.46</ele>
        <time>2015-03-10T06:28:02Z</time>
      </trkpt>
      <trkpt lat="42.77852" lon="0.44759">
        <ele>1932.87</ele>
        <time>2015-03-10T06:28:16Z</time>
      </trkpt>
      <trkpt lat="42.77854" lon="0.44769">
        <ele>1935.27</ele>
        <time>2015-03-10T06:28:30Z</time>
      </trkpt>
      <trkpt lat="42.77853" lon="0.44781">
        <ele>1937.67</ele>
        <time>2015-03-10T06:28:45Z</time>
      </trkpt>
      <trkpt lat="42.77848" lon="0.44791">
        <ele>1940.56</ele>
        <time>2015-03-10T06:29:00Z</time>
      </trkpt>
      <trkpt lat="42.77843" lon="0.44801">
        <ele>1942</ele>
        <time>2015-03-10T06:29:14Z</time>
      </trkpt>
      <trkpt lat="42.77837" lon="0.44812">
        <ele>1944.4</ele>
        <time>2015-03-10T06:29:28Z</time>
      </trkpt>
      <trkpt lat="42.77831" lon="0.4482">
        <ele>1946.81</ele>
        <time>2015-03-10T06:29:43Z</time>
      </trkpt>
      <trkpt lat="42.77825" lon="0.4483">
        <ele>1948.73</ele>
        <time>2015-03-10T06:29:57Z</time>
      </trkpt>
      <trkpt lat="42.7782" lon="0.44839">
        <ele>1950.17</ele>
        <time>2015-03-10T06:30:10Z</time>
      </trkpt>
      <trkpt lat="42.77814" lon="0.44848">
        <ele>1952.09</ele>
        <time>2015-03-10T06:30:24Z</time>
      </trkpt>
      <trkpt lat="42.77809" lon="0.44856">
        <ele>1953.54</ele>
        <time>2015-03-10T06:30:37Z</time>
      </trkpt>
      <trkpt lat="42.77804" lon="0.44866">
        <ele>1955.46</ele>
        <time>2015-03-10T06:30:50Z</time>
      </trkpt>
      <trkpt lat="42.77802" lon="0.44873">
        <ele>1957.38</ele>
        <time>2015-03-10T06:31:01Z</time>
      </trkpt>
      <trkpt lat="42.77799" lon="0.44886">
        <ele>1959.3</ele>
        <time>2015-03-10T06:31:16Z</time>
      </trkpt>
      <trkpt lat="42.77798" lon="0.44894">
        <ele>1961.71</ele>
        <time>2015-03-10T06:31:28Z</time>
      </trkpt>
      <trkpt lat="42.77798" lon="0.44904">
        <ele>1964.11</ele>
        <time>2015-03-10T06:31:42Z</time>
      </trkpt>
      <trkpt lat="42.77793" lon="0.44916">
        <ele>1966.99</ele>
        <time>2015-03-10T06:31:59Z</time>
      </trkpt>
      <trkpt lat="42.77785" lon="0.44915">
        <ele>1969.88</ele>
        <time>2015-03-10T06:32:15Z</time>
      </trkpt>
      <trkpt lat="42.77778" lon="0.44915">
        <ele>1971.8</ele>
        <time>2015-03-10T06:32:27Z</time>
      </trkpt>
      <trkpt lat="42.77771" lon="0.44911">
        <ele>1973.72</ele>
        <time>2015-03-10T06:32:40Z</time>
      </trkpt>
      <trkpt lat="42.77766" lon="0.44908">
        <ele>1975.65</ele>
        <time>2015-03-10T06:32:54Z</time>
      </trkpt>
      <trkpt lat="42.77762" lon="0.44904">
        <ele>1976.13</ele>
        <time>2015-03-10T06:33:03Z</time>
      </trkpt>
      <trkpt lat="42.77758" lon="0.449">
        <ele>1977.57</ele>
        <time>2015-03-10T06:33:15Z</time>
      </trkpt>
      <trkpt lat="42.77752" lon="0.44899">
        <ele>1979.97</ele>
        <time>2015-03-10T06:33:29Z</time>
      </trkpt>
      <trkpt lat="42.77746" lon="0.44903">
        <ele>1981.9</ele>
        <time>2015-03-10T06:33:41Z</time>
      </trkpt>
      <trkpt lat="42.77746" lon="0.44913">
        <ele>1984.3</ele>
        <time>2015-03-10T06:33:54Z</time>
      </trkpt>
      <trkpt lat="42.77741" lon="0.44921">
        <ele>1987.18</ele>
        <time>2015-03-10T06:34:08Z</time>
      </trkpt>
      <trkpt lat="42.77738" lon="0.44935">
        <ele>1990.07</ele>
        <time>2015-03-10T06:34:24Z</time>
      </trkpt>
      <trkpt lat="42.77737" lon="0.44942">
        <ele>1991.99</ele>
        <time>2015-03-10T06:34:35Z</time>
      </trkpt>
      <trkpt lat="42.77737" lon="0.44949">
        <ele>1994.39</ele>
        <time>2015-03-10T06:34:45Z</time>
      </trkpt>
      <trkpt lat="42.77735" lon="0.44956">
        <ele>1995.83</ele>
        <time>2015-03-10T06:34:55Z</time>
      </trkpt>
      <trkpt lat="42.77732" lon="0.44972">
        <ele>1998.24</ele>
        <time>2015-03-10T06:35:14Z</time>
      </trkpt>
      <trkpt lat="42.77726" lon="0.44983">
        <ele>2000.16</ele>
        <time>2015-03-10T06:35:28Z</time>
      </trkpt>
      <trkpt lat="42.77718" lon="0.44992">
        <ele>2001.6</ele>
        <time>2015-03-10T06:35:42Z</time>
      </trkpt>
      <trkpt lat="42.77707" lon="0.45002">
        <ele>2003.52</ele>
        <time>2015-03-10T06:35:58Z</time>
      </trkpt>
      <trkpt lat="42.77698" lon="0.45008">
        <ele>2005.45</ele>
        <time>2015-03-10T06:36:11Z</time>
      </trkpt>
      <trkpt lat="42.77689" lon="0.45014">
        <ele>2007.85</ele>
        <time>2015-03-10T06:36:25Z</time>
      </trkpt>
      <trkpt lat="42.77681" lon="0.4502">
        <ele>2010.25</ele>
        <time>2015-03-10T06:36:38Z</time>
      </trkpt>
      <trkpt lat="42.77671" lon="0.45024">
        <ele>2011.7</ele>
        <time>2015-03-10T06:36:52Z</time>
      </trkpt>
      <trkpt lat="42.77662" lon="0.45029">
        <ele>2014.1</ele>
        <time>2015-03-10T06:37:06Z</time>
      </trkpt>
      <trkpt lat="42.77653" lon="0.45033">
        <ele>2015.06</ele>
        <time>2015-03-10T06:37:19Z</time>
      </trkpt>
      <trkpt lat="42.77643" lon="0.4504">
        <ele>2017.46</ele>
        <time>2015-03-10T06:37:34Z</time>
      </trkpt>
      <trkpt lat="42.77635" lon="0.45046">
        <ele>2019.87</ele>
        <time>2015-03-10T06:37:48Z</time>
      </trkpt>
      <trkpt lat="42.77629" lon="0.45051">
        <ele>2022.27</ele>
        <time>2015-03-10T06:38:01Z</time>
      </trkpt>
      <trkpt lat="42.77622" lon="0.45057">
        <ele>2024.67</ele>
        <time>2015-03-10T06:38:15Z</time>
      </trkpt>
      <trkpt lat="42.77617" lon="0.45061">
        <ele>2026.6</ele>
        <time>2015-03-10T06:38:27Z</time>
      </trkpt>
      <trkpt lat="42.77609" lon="0.45067">
        <ele>2029.48</ele>
        <time>2015-03-10T06:38:41Z</time>
      </trkpt>
      <trkpt lat="42.77603" lon="0.45074">
        <ele>2032.36</ele>
        <time>2015-03-10T06:38:54Z</time>
      </trkpt>
      <trkpt lat="42.77596" lon="0.45079">
        <ele>2034.29</ele>
        <time>2015-03-10T06:39:07Z</time>
      </trkpt>
      <trkpt lat="42.77588" lon="0.45084">
        <ele>2037.17</ele>
        <time>2015-03-10T06:39:22Z</time>
      </trkpt>
      <trkpt lat="42.77579" lon="0.4509">
        <ele>2039.57</ele>
        <time>2015-03-10T06:39:36Z</time>
      </trkpt>
      <trkpt lat="42.77571" lon="0.45095">
        <ele>2041.02</ele>
        <time>2015-03-10T06:39:49Z</time>
      </trkpt>
      <trkpt lat="42.77564" lon="0.45099">
        <ele>2042.46</ele>
        <time>2015-03-10T06:40:02Z</time>
      </trkpt>
      <trkpt lat="42.77556" lon="0.45105">
        <ele>2044.38</ele>
        <time>2015-03-10T06:40:16Z</time>
      </trkpt>
      <trkpt lat="42.77547" lon="0.4511">
        <ele>2045.82</ele>
        <time>2015-03-10T06:40:29Z</time>
      </trkpt>
      <trkpt lat="42.7754" lon="0.45117">
        <ele>2047.75</ele>
        <time>2015-03-10T06:40:42Z</time>
      </trkpt>
      <trkpt lat="42.77531" lon="0.45124">
        <ele>2049.67</ele>
        <time>2015-03-10T06:40:56Z</time>
      </trkpt>
      <trkpt lat="42.77522" lon="0.45129">
        <ele>2051.59</ele>
        <time>2015-03-10T06:41:09Z</time>
      </trkpt>
      <trkpt lat="42.77511" lon="0.45139">
        <ele>2052.07</ele>
        <time>2015-03-10T06:41:25Z</time>
      </trkpt>
      <trkpt lat="42.775" lon="0.45148">
        <ele>2053.51</ele>
        <time>2015-03-10T06:41:41Z</time>
      </trkpt>
      <trkpt lat="42.77491" lon="0.45156">
        <ele>2055.44</ele>
        <time>2015-03-10T06:41:55Z</time>
      </trkpt>
      <trkpt lat="42.77482" lon="0.45161">
        <ele>2057.84</ele>
        <time>2015-03-10T06:42:10Z</time>
      </trkpt>
      <trkpt lat="42.77475" lon="0.45165">
        <ele>2060.24</ele>
        <time>2015-03-10T06:42:24Z</time>
      </trkpt>
      <trkpt lat="42.77466" lon="0.45167">
        <ele>2063.61</ele>
        <time>2015-03-10T06:42:39Z</time>
      </trkpt>
      <trkpt lat="42.77453" lon="0.45162">
        <ele>2066.01</ele>
        <time>2015-03-10T06:42:55Z</time>
      </trkpt>
      <trkpt lat="42.77442" lon="0.45156">
        <ele>2068.89</ele>
        <time>2015-03-10T06:43:11Z</time>
      </trkpt>
      <trkpt lat="42.77436" lon="0.45156">
        <ele>2071.3</ele>
        <time>2015-03-10T06:43:26Z</time>
      </trkpt>
      <trkpt lat="42.77428" lon="0.45156">
        <ele>2073.7</ele>
        <time>2015-03-10T06:43:42Z</time>
      </trkpt>
      <trkpt lat="42.7742" lon="0.45153">
        <ele>2076.1</ele>
        <time>2015-03-10T06:43:57Z</time>
      </trkpt>
      <trkpt lat="42.77416" lon="0.45151">
        <ele>2077.55</ele>
        <time>2015-03-10T06:44:09Z</time>
      </trkpt>
      <trkpt lat="42.77415" lon="0.45161">
        <ele>2079.95</ele>
        <time>2015-03-10T06:44:22Z</time>
      </trkpt>
      <trkpt lat="42.77413" lon="0.45169">
        <ele>2081.87</ele>
        <time>2015-03-10T06:44:34Z</time>
      </trkpt>
      <trkpt lat="42.77412" lon="0.4518">
        <ele>2084.28</ele>
        <time>2015-03-10T06:44:49Z</time>
      </trkpt>
      <trkpt lat="42.77412" lon="0.45192">
        <ele>2087.16</ele>
        <time>2015-03-10T06:45:04Z</time>
      </trkpt>
      <trkpt lat="42.77412" lon="0.45199">
        <ele>2088.6</ele>
        <time>2015-03-10T06:45:16Z</time>
      </trkpt>
      <trkpt lat="42.77413" lon="0.45207">
        <ele>2091</ele>
        <time>2015-03-10T06:45:29Z</time>
      </trkpt>
      <trkpt lat="42.77413" lon="0.45214">
        <ele>2092.45</ele>
        <time>2015-03-10T06:45:42Z</time>
      </trkpt>
      <trkpt lat="42.77415" lon="0.45219">
        <ele>2093.41</ele>
        <time>2015-03-10T06:46:00Z</time>
      </trkpt>
      <trkpt lat="42.77418" lon="0.45226">
        <ele>2094.85</ele>
        <time>2015-03-10T06:46:12Z</time>
      </trkpt>
      <trkpt lat="42.77423" lon="0.45235">
        <ele>2096.77</ele>
        <time>2015-03-10T06:46:26Z</time>
      </trkpt>
      <trkpt lat="42.77423" lon="0.45236">
        <ele>2096.77</ele>
        <time>2015-03-10T06:46:27Z</time>
      </trkpt>
      <trkpt lat="42.77419" lon="0.45243">
        <ele>2098.21</ele>
        <time>2015-03-10T06:46:38Z</time>
      </trkpt>
      <trkpt lat="42.77411" lon="0.4525">
        <ele>2100.62</ele>
        <time>2015-03-10T06:46:52Z</time>
      </trkpt>
      <trkpt lat="42.77405" lon="0.45259">
        <ele>2103.5</ele>
        <time>2015-03-10T06:47:05Z</time>
      </trkpt>
      <trkpt lat="42.77405" lon="0.45269">
        <ele>2105.91</ele>
        <time>2015-03-10T06:47:17Z</time>
      </trkpt>
      <trkpt lat="42.774" lon="0.45277">
        <ele>2108.31</ele>
        <time>2015-03-10T06:47:30Z</time>
      </trkpt>
      <trkpt lat="42.77391" lon="0.45279">
        <ele>2110.71</ele>
        <time>2015-03-10T06:47:44Z</time>
      </trkpt>
      <trkpt lat="42.77385" lon="0.4528">
        <ele>2113.12</ele>
        <time>2015-03-10T06:47:56Z</time>
      </trkpt>
      <trkpt lat="42.77378" lon="0.45281">
        <ele>2116</ele>
        <time>2015-03-10T06:48:10Z</time>
      </trkpt>
      <trkpt lat="42.77369" lon="0.45281">
        <ele>2118.4</ele>
        <time>2015-03-10T06:48:24Z</time>
      </trkpt>
      <trkpt lat="42.77359" lon="0.45281">
        <ele>2121.77</ele>
        <time>2015-03-10T06:48:40Z</time>
      </trkpt>
      <trkpt lat="42.77352" lon="0.45282">
        <ele>2124.17</ele>
        <time>2015-03-10T06:48:54Z</time>
      </trkpt>
      <trkpt lat="42.77343" lon="0.45282">
        <ele>2126.57</ele>
        <time>2015-03-10T06:49:08Z</time>
      </trkpt>
      <trkpt lat="42.77333" lon="0.45282">
        <ele>2128.98</ele>
        <time>2015-03-10T06:49:25Z</time>
      </trkpt>
      <trkpt lat="42.77323" lon="0.4528">
        <ele>2131.38</ele>
        <time>2015-03-10T06:49:40Z</time>
      </trkpt>
      <trkpt lat="42.77314" lon="0.45277">
        <ele>2133.78</ele>
        <time>2015-03-10T06:49:54Z</time>
      </trkpt>
      <trkpt lat="42.77309" lon="0.45273">
        <ele>2135.71</ele>
        <time>2015-03-10T06:50:08Z</time>
      </trkpt>
      <trkpt lat="42.77307" lon="0.45269">
        <ele>2136.19</ele>
        <time>2015-03-10T06:50:20Z</time>
      </trkpt>
      <trkpt lat="42.77303" lon="0.45262">
        <ele>2136.67</ele>
        <time>2015-03-10T06:50:27Z</time>
      </trkpt>
      <trkpt lat="42.77298" lon="0.45244">
        <ele>2139.07</ele>
        <time>2015-03-10T06:50:42Z</time>
      </trkpt>
      <trkpt lat="42.77295" lon="0.45232">
        <ele>2140.99</ele>
        <time>2015-03-10T06:50:54Z</time>
      </trkpt>
      <trkpt lat="42.7729" lon="0.45215">
        <ele>2142.92</ele>
        <time>2015-03-10T06:51:08Z</time>
      </trkpt>
      <trkpt lat="42.77285" lon="0.45198">
        <ele>2143.88</ele>
        <time>2015-03-10T06:51:21Z</time>
      </trkpt>
      <trkpt lat="42.77278" lon="0.45188">
        <ele>2145.32</ele>
        <time>2015-03-10T06:51:32Z</time>
      </trkpt>
      <trkpt lat="42.77269" lon="0.45182">
        <ele>2147.24</ele>
        <time>2015-03-10T06:51:43Z</time>
      </trkpt>
      <trkpt lat="42.77257" lon="0.45182">
        <ele>2149.16</ele>
        <time>2015-03-10T06:51:57Z</time>
      </trkpt>
      <trkpt lat="42.77255" lon="0.45182">
        <ele>2149.16</ele>
        <time>2015-03-10T06:51:59Z</time>
      </trkpt>
      <trkpt lat="42.77248" lon="0.45184">
        <ele>2150.61</ele>
        <time>2015-03-10T06:52:08Z</time>
      </trkpt>
      <trkpt lat="42.77235" lon="0.45187">
        <ele>2152.05</ele>
        <time>2015-03-10T06:52:23Z</time>
      </trkpt>
      <trkpt lat="42.77223" lon="0.4519">
        <ele>2153.49</ele>
        <time>2015-03-10T06:52:37Z</time>
      </trkpt>
      <trkpt lat="42.77212" lon="0.45197">
        <ele>2155.41</ele>
        <time>2015-03-10T06:52:52Z</time>
      </trkpt>
      <trkpt lat="42.77208" lon="0.45201">
        <ele>2156.37</ele>
        <time>2015-03-10T06:53:08Z</time>
      </trkpt>
      <trkpt lat="42.77201" lon="0.45211">
        <ele>2158.3</ele>
        <time>2015-03-10T06:53:22Z</time>
      </trkpt>
      <trkpt lat="42.77196" lon="0.45221">
        <ele>2160.7</ele>
        <time>2015-03-10T06:53:35Z</time>
      </trkpt>
      <trkpt lat="42.77191" lon="0.45232">
        <ele>2163.58</ele>
        <time>2015-03-10T06:53:48Z</time>
      </trkpt>
      <trkpt lat="42.77186" lon="0.45241">
        <ele>2165.51</ele>
        <time>2015-03-10T06:53:58Z</time>
      </trkpt>
      <trkpt lat="42.77182" lon="0.45252">
        <ele>2167.43</ele>
        <time>2015-03-10T06:54:11Z</time>
      </trkpt>
      <trkpt lat="42.77178" lon="0.45264">
        <ele>2170.31</ele>
        <time>2015-03-10T06:54:24Z</time>
      </trkpt>
      <trkpt lat="42.77172" lon="0.45274">
        <ele>2172.72</ele>
        <time>2015-03-10T06:54:37Z</time>
      </trkpt>
      <trkpt lat="42.77168" lon="0.45285">
        <ele>2175.12</ele>
        <time>2015-03-10T06:54:49Z</time>
      </trkpt>
      <trkpt lat="42.77163" lon="0.45296">
        <ele>2177.52</ele>
        <time>2015-03-10T06:55:02Z</time>
      </trkpt>
      <trkpt lat="42.77159" lon="0.45308">
        <ele>2179.93</ele>
        <time>2015-03-10T06:55:15Z</time>
      </trkpt>
      <trkpt lat="42.77154" lon="0.4532">
        <ele>2182.33</ele>
        <time>2015-03-10T06:55:28Z</time>
      </trkpt>
      <trkpt lat="42.77149" lon="0.45332">
        <ele>2184.73</ele>
        <time>2015-03-10T06:55:42Z</time>
      </trkpt>
      <trkpt lat="42.77144" lon="0.45346">
        <ele>2187.14</ele>
        <time>2015-03-10T06:55:57Z</time>
      </trkpt>
      <trkpt lat="42.7714" lon="0.45357">
        <ele>2189.54</ele>
        <time>2015-03-10T06:56:10Z</time>
      </trkpt>
      <trkpt lat="42.77136" lon="0.45369">
        <ele>2191.46</ele>
        <time>2015-03-10T06:56:23Z</time>
      </trkpt>
      <trkpt lat="42.7713" lon="0.45382">
        <ele>2193.87</ele>
        <time>2015-03-10T06:56:37Z</time>
      </trkpt>
      <trkpt lat="42.77126" lon="0.45396">
        <ele>2196.27</ele>
        <time>2015-03-10T06:56:51Z</time>
      </trkpt>
      <trkpt lat="42.77121" lon="0.45411">
        <ele>2198.19</ele>
        <time>2015-03-10T06:57:05Z</time>
      </trkpt>
      <trkpt lat="42.77118" lon="0.45423">
        <ele>2200.11</ele>
        <time>2015-03-10T06:57:18Z</time>
      </trkpt>
      <trkpt lat="42.77112" lon="0.45437">
        <ele>2202.52</ele>
        <time>2015-03-10T06:57:32Z</time>
      </trkpt>
      <trkpt lat="42.77107" lon="0.4545">
        <ele>2204.44</ele>
        <time>2015-03-10T06:57:46Z</time>
      </trkpt>
      <trkpt lat="42.771" lon="0.45462">
        <ele>2205.88</ele>
        <time>2015-03-10T06:57:59Z</time>
      </trkpt>
      <trkpt lat="42.77091" lon="0.45473">
        <ele>2207.81</ele>
        <time>2015-03-10T06:58:12Z</time>
      </trkpt>
      <trkpt lat="42.77089" lon="0.45474">
        <ele>2208.29</ele>
        <time>2015-03-10T06:58:14Z</time>
      </trkpt>
      <trkpt lat="42.77086" lon="0.45477">
        <ele>2208.29</ele>
        <time>2015-03-10T06:58:18Z</time>
      </trkpt>
      <trkpt lat="42.77074" lon="0.4549">
        <ele>2209.73</ele>
        <time>2015-03-10T06:58:34Z</time>
      </trkpt>
      <trkpt lat="42.77063" lon="0.45501">
        <ele>2210.69</ele>
        <time>2015-03-10T06:58:48Z</time>
      </trkpt>
      <trkpt lat="42.77049" lon="0.45511">
        <ele>2212.13</ele>
        <time>2015-03-10T06:59:03Z</time>
      </trkpt>
      <trkpt lat="42.77033" lon="0.45522">
        <ele>2213.57</ele>
        <time>2015-03-10T06:59:19Z</time>
      </trkpt>
      <trkpt lat="42.77021" lon="0.45532">
        <ele>2214.53</ele>
        <time>2015-03-10T06:59:32Z</time>
      </trkpt>
      <trkpt lat="42.7701" lon="0.45543">
        <ele>2216.46</ele>
        <time>2015-03-10T06:59:46Z</time>
      </trkpt>
      <trkpt lat="42.77" lon="0.45556">
        <ele>2217.42</ele>
        <time>2015-03-10T07:00:00Z</time>
      </trkpt>
      <trkpt lat="42.7699" lon="0.45569">
        <ele>2218.86</ele>
        <time>2015-03-10T07:00:13Z</time>
      </trkpt>
      <trkpt lat="42.76987" lon="0.45573">
        <ele>2218.86</ele>
        <time>2015-03-10T07:00:17Z</time>
      </trkpt>
      <trkpt lat="42.76984" lon="0.45576">
        <ele>2219.82</ele>
        <time>2015-03-10T07:00:20Z</time>
      </trkpt>
      <trkpt lat="42.76976" lon="0.45578">
        <ele>2220.3</ele>
        <time>2015-03-10T07:00:28Z</time>
      </trkpt>
      <trkpt lat="42.76962" lon="0.45585">
        <ele>2221.74</ele>
        <time>2015-03-10T07:00:43Z</time>
      </trkpt>
      <trkpt lat="42.76956" lon="0.45591">
        <ele>2222.22</ele>
        <time>2015-03-10T07:00:50Z</time>
      </trkpt>
      <trkpt lat="42.76951" lon="0.45597">
        <ele>2222.71</ele>
        <time>2015-03-10T07:00:56Z</time>
      </trkpt>
      <trkpt lat="42.76938" lon="0.45611">
        <ele>2223.67</ele>
        <time>2015-03-10T07:01:11Z</time>
      </trkpt>
      <trkpt lat="42.76927" lon="0.45623">
        <ele>2225.11</ele>
        <time>2015-03-10T07:01:26Z</time>
      </trkpt>
      <trkpt lat="42.76916" lon="0.45631">
        <ele>2226.55</ele>
        <time>2015-03-10T07:01:39Z</time>
      </trkpt>
      <trkpt lat="42.76902" lon="0.45642">
        <ele>2227.99</ele>
        <time>2015-03-10T07:01:54Z</time>
      </trkpt>
      <trkpt lat="42.76898" lon="0.45645">
        <ele>2227.99</ele>
        <time>2015-03-10T07:01:58Z</time>
      </trkpt>
      <trkpt lat="42.76893" lon="0.45653">
        <ele>2228.95</ele>
        <time>2015-03-10T07:02:05Z</time>
      </trkpt>
      <trkpt lat="42.76881" lon="0.45669">
        <ele>2229.43</ele>
        <time>2015-03-10T07:02:20Z</time>
      </trkpt>
      <trkpt lat="42.76877" lon="0.45673">
        <ele>2229.92</ele>
        <time>2015-03-10T07:02:24Z</time>
      </trkpt>
      <trkpt lat="42.76864" lon="0.45687">
        <ele>2231.36</ele>
        <time>2015-03-10T07:02:40Z</time>
      </trkpt>
      <trkpt lat="42.76856" lon="0.45695">
        <ele>2231.84</ele>
        <time>2015-03-10T07:02:49Z</time>
      </trkpt>
      <trkpt lat="42.7685" lon="0.45703">
        <ele>2232.8</ele>
        <time>2015-03-10T07:02:57Z</time>
      </trkpt>
      <trkpt lat="42.76839" lon="0.45717">
        <ele>2234.72</ele>
        <time>2015-03-10T07:03:12Z</time>
      </trkpt>
      <trkpt lat="42.76827" lon="0.4573">
        <ele>2236.16</ele>
        <time>2015-03-10T07:03:26Z</time>
      </trkpt>
      <trkpt lat="42.76815" lon="0.45741">
        <ele>2237.61</ele>
        <time>2015-03-10T07:03:40Z</time>
      </trkpt>
      <trkpt lat="42.76803" lon="0.4575">
        <ele>2239.05</ele>
        <time>2015-03-10T07:03:53Z</time>
      </trkpt>
      <trkpt lat="42.76789" lon="0.4576">
        <ele>2240.01</ele>
        <time>2015-03-10T07:04:08Z</time>
      </trkpt>
      <trkpt lat="42.76776" lon="0.4577">
        <ele>2241.45</ele>
        <time>2015-03-10T07:04:22Z</time>
      </trkpt>
      <trkpt lat="42.76764" lon="0.45778">
        <ele>2242.89</ele>
        <time>2015-03-10T07:04:35Z</time>
      </trkpt>
      <trkpt lat="42.76751" lon="0.45781">
        <ele>2244.33</ele>
        <time>2015-03-10T07:04:47Z</time>
      </trkpt>
      <trkpt lat="42.76736" lon="0.45787">
        <ele>2245.3</ele>
        <time>2015-03-10T07:05:01Z</time>
      </trkpt>
      <trkpt lat="42.76731" lon="0.4579">
        <ele>2245.78</ele>
        <time>2015-03-10T07:05:06Z</time>
      </trkpt>
      <trkpt lat="42.76726" lon="0.45792">
        <ele>2246.26</ele>
        <time>2015-03-10T07:05:11Z</time>
      </trkpt>
      <trkpt lat="42.76713" lon="0.458">
        <ele>2248.18</ele>
        <time>2015-03-10T07:05:25Z</time>
      </trkpt>
      <trkpt lat="42.76699" lon="0.45808">
        <ele>2249.14</ele>
        <time>2015-03-10T07:05:38Z</time>
      </trkpt>
      <trkpt lat="42.76684" lon="0.45815">
        <ele>2250.1</ele>
        <time>2015-03-10T07:05:53Z</time>
      </trkpt>
      <trkpt lat="42.76667" lon="0.45817">
        <ele>2251.54</ele>
        <time>2015-03-10T07:06:08Z</time>
      </trkpt>
      <trkpt lat="42.76651" lon="0.45818">
        <ele>2252.51</ele>
        <time>2015-03-10T07:06:23Z</time>
      </trkpt>
      <trkpt lat="42.76642" lon="0.45819">
        <ele>2252.99</ele>
        <time>2015-03-10T07:06:31Z</time>
      </trkpt>
      <trkpt lat="42.76639" lon="0.45822">
        <ele>2252.99</ele>
        <time>2015-03-10T07:06:35Z</time>
      </trkpt>
      <trkpt lat="42.7664" lon="0.45838">
        <ele>2253.95</ele>
        <time>2015-03-10T07:06:47Z</time>
      </trkpt>
      <trkpt lat="42.76639" lon="0.45846">
        <ele>2253.95</ele>
        <time>2015-03-10T07:06:59Z</time>
      </trkpt>
      <trkpt lat="42.76639" lon="0.45855">
        <ele>2253.47</ele>
        <time>2015-03-10T07:07:13Z</time>
      </trkpt>
      <trkpt lat="42.76637" lon="0.45855">
        <ele>2253.47</ele>
        <time>2015-03-10T07:07:21Z</time>
      </trkpt>
      <trkpt lat="42.76638" lon="0.45842">
        <ele>2254.43</ele>
        <time>2015-03-10T07:07:33Z</time>
      </trkpt>
      <trkpt lat="42.76638" lon="0.4584">
        <ele>2254.43</ele>
        <time>2015-03-10T07:07:34Z</time>
      </trkpt>
      <trkpt lat="42.76637" lon="0.45832">
        <ele>2253.95</ele>
        <time>2015-03-10T07:07:38Z</time>
      </trkpt>
      <trkpt lat="42.76639" lon="0.45829">
        <ele>2253.47</ele>
        <time>2015-03-10T07:07:40Z</time>
      </trkpt>
      <trkpt lat="42.76651" lon="0.45827">
        <ele>2252.99</ele>
        <time>2015-03-10T07:07:48Z</time>
      </trkpt>
      <trkpt lat="42.76667" lon="0.45845">
        <ele>2251.54</ele>
        <time>2015-03-10T07:08:02Z</time>
      </trkpt>
      <trkpt lat="42.76676" lon="0.45859">
        <ele>2249.62</ele>
        <time>2015-03-10T07:08:12Z</time>
      </trkpt>
      <trkpt lat="42.76683" lon="0.45879">
        <ele>2246.26</ele>
        <time>2015-03-10T07:08:27Z</time>
      </trkpt>
      <trkpt lat="42.76679" lon="0.45892">
        <ele>2243.85</ele>
        <time>2015-03-10T07:08:32Z</time>
      </trkpt>
      <trkpt lat="42.76674" lon="0.45895">
        <ele>2241.93</ele>
        <time>2015-03-10T07:08:42Z</time>
      </trkpt>
      <trkpt lat="42.76665" lon="0.45896">
        <ele>2240.49</ele>
        <time>2015-03-10T07:08:47Z</time>
      </trkpt>
      <trkpt lat="42.76645" lon="0.45899">
        <ele>2236.16</ele>
        <time>2015-03-10T07:08:51Z</time>
      </trkpt>
      <trkpt lat="42.76632" lon="0.45903">
        <ele>2232.8</ele>
        <time>2015-03-10T07:08:53Z</time>
      </trkpt>
      <trkpt lat="42.76618" lon="0.45908">
        <ele>2229.43</ele>
        <time>2015-03-10T07:08:55Z</time>
      </trkpt>
      <trkpt lat="42.76605" lon="0.45911">
        <ele>2225.59</ele>
        <time>2015-03-10T07:08:57Z</time>
      </trkpt>
      <trkpt lat="42.76593" lon="0.45913">
        <ele>2223.67</ele>
        <time>2015-03-10T07:09:03Z</time>
      </trkpt>
      <trkpt lat="42.76583" lon="0.45915">
        <ele>2225.11</ele>
        <time>2015-03-10T07:09:16Z</time>
      </trkpt>
      <trkpt lat="42.76577" lon="0.45915">
        <ele>2226.07</ele>
        <time>2015-03-10T07:09:29Z</time>
      </trkpt>
      <trkpt lat="42.76568" lon="0.45914">
        <ele>2227.99</ele>
        <time>2015-03-10T07:09:43Z</time>
      </trkpt>
      <trkpt lat="42.7656" lon="0.45915">
        <ele>2230.88</ele>
        <time>2015-03-10T07:09:56Z</time>
      </trkpt>
      <trkpt lat="42.76555" lon="0.4592">
        <ele>2232.8</ele>
        <time>2015-03-10T07:10:06Z</time>
      </trkpt>
      <trkpt lat="42.7655" lon="0.45935">
        <ele>2234.24</ele>
        <time>2015-03-10T07:10:21Z</time>
      </trkpt>
      <trkpt lat="42.76548" lon="0.45945">
        <ele>2236.64</ele>
        <time>2015-03-10T07:10:34Z</time>
      </trkpt>
      <trkpt lat="42.76544" lon="0.45958">
        <ele>2239.53</ele>
        <time>2015-03-10T07:10:48Z</time>
      </trkpt>
      <trkpt lat="42.76541" lon="0.45968">
        <ele>2242.41</ele>
        <time>2015-03-10T07:11:01Z</time>
      </trkpt>
      <trkpt lat="42.76539" lon="0.45976">
        <ele>2244.82</ele>
        <time>2015-03-10T07:11:12Z</time>
      </trkpt>
      <trkpt lat="42.76535" lon="0.45986">
        <ele>2247.22</ele>
        <time>2015-03-10T07:11:26Z</time>
      </trkpt>
      <trkpt lat="42.76533" lon="0.45993">
        <ele>2250.1</ele>
        <time>2015-03-10T07:11:38Z</time>
      </trkpt>
      <trkpt lat="42.76531" lon="0.46001">
        <ele>2252.51</ele>
        <time>2015-03-10T07:11:50Z</time>
      </trkpt>
      <trkpt lat="42.76524" lon="0.46007">
        <ele>2255.39</ele>
        <time>2015-03-10T07:12:04Z</time>
      </trkpt>
      <trkpt lat="42.76515" lon="0.46001">
        <ele>2258.27</ele>
        <time>2015-03-10T07:12:19Z</time>
      </trkpt>
      <trkpt lat="42.76509" lon="0.45997">
        <ele>2260.2</ele>
        <time>2015-03-10T07:12:31Z</time>
      </trkpt>
      <trkpt lat="42.76501" lon="0.45991">
        <ele>2262.6</ele>
        <time>2015-03-10T07:12:45Z</time>
      </trkpt>
      <trkpt lat="42.76494" lon="0.45986">
        <ele>2264.52</ele>
        <time>2015-03-10T07:12:57Z</time>
      </trkpt>
      <trkpt lat="42.76486" lon="0.45978">
        <ele>2266.93</ele>
        <time>2015-03-10T07:13:12Z</time>
      </trkpt>
      <trkpt lat="42.76477" lon="0.4597">
        <ele>2269.33</ele>
        <time>2015-03-10T07:13:28Z</time>
      </trkpt>
      <trkpt lat="42.76469" lon="0.45963">
        <ele>2271.73</ele>
        <time>2015-03-10T07:13:43Z</time>
      </trkpt>
      <trkpt lat="42.76466" lon="0.45959">
        <ele>2273.17</ele>
        <time>2015-03-10T07:13:55Z</time>
      </trkpt>
      <trkpt lat="42.76462" lon="0.45955">
        <ele>2274.62</ele>
        <time>2015-03-10T07:14:08Z</time>
      </trkpt>
      <trkpt lat="42.76462" lon="0.45959">
        <ele>2275.58</ele>
        <time>2015-03-10T07:14:20Z</time>
      </trkpt>
      <trkpt lat="42.76462" lon="0.45961">
        <ele>2276.06</ele>
        <time>2015-03-10T07:14:22Z</time>
      </trkpt>
      <trkpt lat="42.76461" lon="0.45976">
        <ele>2277.5</ele>
        <time>2015-03-10T07:14:37Z</time>
      </trkpt>
      <trkpt lat="42.7646" lon="0.4599">
        <ele>2279.42</ele>
        <time>2015-03-10T07:14:51Z</time>
      </trkpt>
      <trkpt lat="42.76458" lon="0.46003">
        <ele>2281.35</ele>
        <time>2015-03-10T07:15:05Z</time>
      </trkpt>
      <trkpt lat="42.76457" lon="0.46016">
        <ele>2283.75</ele>
        <time>2015-03-10T07:15:19Z</time>
      </trkpt>
      <trkpt lat="42.76456" lon="0.46026">
        <ele>2285.67</ele>
        <time>2015-03-10T07:15:30Z</time>
      </trkpt>
      <trkpt lat="42.76455" lon="0.4603">
        <ele>2287.59</ele>
        <time>2015-03-10T07:15:42Z</time>
      </trkpt>
      <trkpt lat="42.76447" lon="0.46022">
        <ele>2289.52</ele>
        <time>2015-03-10T07:15:57Z</time>
      </trkpt>
      <trkpt lat="42.76443" lon="0.46019">
        <ele>2290</ele>
        <time>2015-03-10T07:16:02Z</time>
      </trkpt>
      <trkpt lat="42.76439" lon="0.46013">
        <ele>2291.92</ele>
        <time>2015-03-10T07:16:17Z</time>
      </trkpt>
      <trkpt lat="42.76435" lon="0.46008">
        <ele>2293.36</ele>
        <time>2015-03-10T07:16:29Z</time>
      </trkpt>
      <trkpt lat="42.76434" lon="0.46006">
        <ele>2293.84</ele>
        <time>2015-03-10T07:16:39Z</time>
      </trkpt>
      <trkpt lat="42.76432" lon="0.46003">
        <ele>2294.32</ele>
        <time>2015-03-10T07:16:55Z</time>
      </trkpt>
      <trkpt lat="42.76432" lon="0.46002">
        <ele>2294.32</ele>
        <time>2015-03-10T07:17:11Z</time>
      </trkpt>
      <trkpt lat="42.76426" lon="0.46001">
        <ele>2297.69</ele>
        <time>2015-03-10T07:17:25Z</time>
      </trkpt>
      <trkpt lat="42.76419" lon="0.45999">
        <ele>2299.61</ele>
        <time>2015-03-10T07:17:37Z</time>
      </trkpt>
      <trkpt lat="42.76412" lon="0.45997">
        <ele>2300.57</ele>
        <time>2015-03-10T07:17:50Z</time>
      </trkpt>
      <trkpt lat="42.76405" lon="0.45995">
        <ele>2302.01</ele>
        <time>2015-03-10T07:18:03Z</time>
      </trkpt>
      <trkpt lat="42.76405" lon="0.45998">
        <ele>2302.49</ele>
        <time>2015-03-10T07:18:15Z</time>
      </trkpt>
      <trkpt lat="42.76403" lon="0.45999">
        <ele>2303.46</ele>
        <time>2015-03-10T07:18:31Z</time>
      </trkpt>
      <trkpt lat="42.76407" lon="0.46005">
        <ele>2304.42</ele>
        <time>2015-03-10T07:18:43Z</time>
      </trkpt>
      <trkpt lat="42.76401" lon="0.46012">
        <ele>2307.3</ele>
        <time>2015-03-10T07:18:59Z</time>
      </trkpt>
      <trkpt lat="42.76396" lon="0.46015">
        <ele>2308.74</ele>
        <time>2015-03-10T07:19:13Z</time>
      </trkpt>
      <trkpt lat="42.76394" lon="0.46023">
        <ele>2311.15</ele>
        <time>2015-03-10T07:19:27Z</time>
      </trkpt>
      <trkpt lat="42.76393" lon="0.46032">
        <ele>2314.03</ele>
        <time>2015-03-10T07:19:44Z</time>
      </trkpt>
      <trkpt lat="42.76391" lon="0.46039">
        <ele>2316.43</ele>
        <time>2015-03-10T07:20:00Z</time>
      </trkpt>
      <trkpt lat="42.76388" lon="0.46046">
        <ele>2318.84</ele>
        <time>2015-03-10T07:20:14Z</time>
      </trkpt>
      <trkpt lat="42.76387" lon="0.46052">
        <ele>2321.24</ele>
        <time>2015-03-10T07:20:29Z</time>
      </trkpt>
      <trkpt lat="42.76378" lon="0.46054">
        <ele>2323.64</ele>
        <time>2015-03-10T07:20:45Z</time>
      </trkpt>
      <trkpt lat="42.76376" lon="0.46062">
        <ele>2325.57</ele>
        <time>2015-03-10T07:20:59Z</time>
      </trkpt>
      <trkpt lat="42.76379" lon="0.46073">
        <ele>2327.97</ele>
        <time>2015-03-10T07:21:15Z</time>
      </trkpt>
      <trkpt lat="42.76374" lon="0.4608">
        <ele>2330.37</ele>
        <time>2015-03-10T07:21:30Z</time>
      </trkpt>
      <trkpt lat="42.7637" lon="0.46085">
        <ele>2333.26</ele>
        <time>2015-03-10T07:21:45Z</time>
      </trkpt>
      <trkpt lat="42.76366" lon="0.46087">
        <ele>2335.18</ele>
        <time>2015-03-10T07:21:59Z</time>
      </trkpt>
      <trkpt lat="42.76362" lon="0.46092">
        <ele>2337.1</ele>
        <time>2015-03-10T07:22:12Z</time>
      </trkpt>
      <trkpt lat="42.76357" lon="0.46094">
        <ele>2339.51</ele>
        <time>2015-03-10T07:22:30Z</time>
      </trkpt>
      <trkpt lat="42.76351" lon="0.46102">
        <ele>2341.91</ele>
        <time>2015-03-10T07:22:46Z</time>
      </trkpt>
      <trkpt lat="42.76343" lon="0.46107">
        <ele>2344.79</ele>
        <time>2015-03-10T07:23:02Z</time>
      </trkpt>
      <trkpt lat="42.76336" lon="0.46112">
        <ele>2347.68</ele>
        <time>2015-03-10T07:23:19Z</time>
      </trkpt>
      <trkpt lat="42.76329" lon="0.46116">
        <ele>2349.6</ele>
        <time>2015-03-10T07:23:34Z</time>
      </trkpt>
      <trkpt lat="42.76321" lon="0.46124">
        <ele>2352.48</ele>
        <time>2015-03-10T07:23:52Z</time>
      </trkpt>
      <trkpt lat="42.76315" lon="0.4613">
        <ele>2354.89</ele>
        <time>2015-03-10T07:24:06Z</time>
      </trkpt>
      <trkpt lat="42.76311" lon="0.46135">
        <ele>2357.29</ele>
        <time>2015-03-10T07:24:21Z</time>
      </trkpt>
      <trkpt lat="42.76306" lon="0.46144">
        <ele>2359.69</ele>
        <time>2015-03-10T07:24:37Z</time>
      </trkpt>
      <trkpt lat="42.76301" lon="0.46151">
        <ele>2361.14</ele>
        <time>2015-03-10T07:24:50Z</time>
      </trkpt>
      <trkpt lat="42.76294" lon="0.46162">
        <ele>2362.58</ele>
        <time>2015-03-10T07:25:06Z</time>
      </trkpt>
      <trkpt lat="42.76289" lon="0.4617">
        <ele>2364.5</ele>
        <time>2015-03-10T07:25:20Z</time>
      </trkpt>
      <trkpt lat="42.76284" lon="0.46175">
        <ele>2365.46</ele>
        <time>2015-03-10T07:25:28Z</time>
      </trkpt>
      <trkpt lat="42.76273" lon="0.46188">
        <ele>2366.9</ele>
        <time>2015-03-10T07:25:44Z</time>
      </trkpt>
      <trkpt lat="42.76267" lon="0.46204">
        <ele>2368.83</ele>
        <time>2015-03-10T07:26:00Z</time>
      </trkpt>
      <trkpt lat="42.76264" lon="0.46213">
        <ele>2370.27</ele>
        <time>2015-03-10T07:26:10Z</time>
      </trkpt>
      <trkpt lat="42.76258" lon="0.46223">
        <ele>2370.75</ele>
        <time>2015-03-10T07:26:21Z</time>
      </trkpt>
      <trkpt lat="42.76254" lon="0.46224">
        <ele>2371.23</ele>
        <time>2015-03-10T07:26:32Z</time>
      </trkpt>
      <trkpt lat="42.76254" lon="0.46224">
        <ele>2369.79</ele>
        <time>2015-03-10T07:26:36Z</time>
      </trkpt>
      <trkpt lat="42.76256" lon="0.46221">
        <ele>2369.79</ele>
        <time>2015-03-10T07:27:19Z</time>
      </trkpt>
      <trkpt lat="42.76256" lon="0.46221">
        <ele>2369.79</ele>
        <time>2015-03-10T07:28:08Z</time>
      </trkpt>
      <trkpt lat="42.76254" lon="0.46221">
        <ele>2369.79</ele>
        <time>2015-03-10T07:28:49Z</time>
      </trkpt>
      <trkpt lat="42.76255" lon="0.46221">
        <ele>2369.79</ele>
        <time>2015-03-10T07:29:41Z</time>
      </trkpt>
      <trkpt lat="42.76255" lon="0.4622">
        <ele>2370.27</ele>
        <time>2015-03-10T07:30:38Z</time>
      </trkpt>
      <trkpt lat="42.76254" lon="0.4622">
        <ele>2370.27</ele>
        <time>2015-03-10T07:31:24Z</time>
      </trkpt>
      <trkpt lat="42.76254" lon="0.4622">
        <ele>2370.27</ele>
        <time>2015-03-10T07:31:57Z</time>
      </trkpt>
      <trkpt lat="42.76253" lon="0.46222">
        <ele>2370.27</ele>
        <time>2015-03-10T07:32:19Z</time>
      </trkpt>
      <trkpt lat="42.76253" lon="0.46223">
        <ele>2370.75</ele>
        <time>2015-03-10T07:32:43Z</time>
      </trkpt>
      <trkpt lat="42.76256" lon="0.46223">
        <ele>2370.75</ele>
        <time>2015-03-10T07:33:09Z</time>
      </trkpt>
      <trkpt lat="42.76253" lon="0.46222">
        <ele>2370.27</ele>
        <time>2015-03-10T07:33:31Z</time>
      </trkpt>
      <trkpt lat="42.76252" lon="0.46222">
        <ele>2370.27</ele>
        <time>2015-03-10T07:34:14Z</time>
      </trkpt>
      <trkpt lat="42.76251" lon="0.46222">
        <ele>2370.27</ele>
        <time>2015-03-10T07:34:49Z</time>
      </trkpt>
      <trkpt lat="42.76252" lon="0.46223">
        <ele>2371.71</ele>
        <time>2015-03-10T07:35:20Z</time>
      </trkpt>
      <trkpt lat="42.76254" lon="0.46223">
        <ele>2371.71</ele>
        <time>2015-03-10T07:35:34Z</time>
      </trkpt>
      <trkpt lat="42.76254" lon="0.46223">
        <ele>2371.71</ele>
        <time>2015-03-10T07:35:50Z</time>
      </trkpt>
      <trkpt lat="42.76254" lon="0.46222">
        <ele>2371.71</ele>
        <time>2015-03-10T07:36:05Z</time>
      </trkpt>
      <trkpt lat="42.7625" lon="0.46226">
        <ele>2371.71</ele>
        <time>2015-03-10T07:36:16Z</time>
      </trkpt>
      <trkpt lat="42.76243" lon="0.46224">
        <ele>2368.83</ele>
        <time>2015-03-10T07:36:22Z</time>
      </trkpt>
      <trkpt lat="42.76234" lon="0.46222">
        <ele>2366.42</ele>
        <time>2015-03-10T07:36:30Z</time>
      </trkpt>
      <trkpt lat="42.7622" lon="0.46224">
        <ele>2362.58</ele>
        <time>2015-03-10T07:36:41Z</time>
      </trkpt>
      <trkpt lat="42.76201" lon="0.46222">
        <ele>2362.1</ele>
        <time>2015-03-10T07:36:56Z</time>
      </trkpt>
      <trkpt lat="42.76191" lon="0.46221">
        <ele>2363.06</ele>
        <time>2015-03-10T07:37:10Z</time>
      </trkpt>
      <trkpt lat="42.76183" lon="0.46219">
        <ele>2360.17</ele>
        <time>2015-03-10T07:37:20Z</time>
      </trkpt>
      <trkpt lat="42.76174" lon="0.46218">
        <ele>2356.81</ele>
        <time>2015-03-10T07:37:30Z</time>
      </trkpt>
      <trkpt lat="42.76172" lon="0.46217">
        <ele>2356.81</ele>
        <time>2015-03-10T07:37:32Z</time>
      </trkpt>
      <trkpt lat="42.76164" lon="0.46218">
        <ele>2354.89</ele>
        <time>2015-03-10T07:37:41Z</time>
      </trkpt>
      <trkpt lat="42.76149" lon="0.46217">
        <ele>2352.48</ele>
        <time>2015-03-10T07:37:57Z</time>
      </trkpt>
      <trkpt lat="42.76139" lon="0.46216">
        <ele>2349.12</ele>
        <time>2015-03-10T07:38:11Z</time>
      </trkpt>
      <trkpt lat="42.7613" lon="0.46215">
        <ele>2345.75</ele>
        <time>2015-03-10T07:38:25Z</time>
      </trkpt>
      <trkpt lat="42.76126" lon="0.46216">
        <ele>2345.27</ele>
        <time>2015-03-10T07:38:37Z</time>
      </trkpt>
      <trkpt lat="42.76118" lon="0.46216">
        <ele>2343.35</ele>
        <time>2015-03-10T07:38:46Z</time>
      </trkpt>
      <trkpt lat="42.76107" lon="0.46222">
        <ele>2341.91</ele>
        <time>2015-03-10T07:39:05Z</time>
      </trkpt>
      <trkpt lat="42.76107" lon="0.46223">
        <ele>2342.39</ele>
        <time>2015-03-10T07:39:20Z</time>
      </trkpt>
      <trkpt lat="42.76106" lon="0.46222">
        <ele>2341.91</ele>
        <time>2015-03-10T07:39:23Z</time>
      </trkpt>
      <trkpt lat="42.7609" lon="0.46229">
        <ele>2344.79</ele>
        <time>2015-03-10T07:39:40Z</time>
      </trkpt>
      <trkpt lat="42.76075" lon="0.46233">
        <ele>2344.79</ele>
        <time>2015-03-10T07:39:56Z</time>
      </trkpt>
      <trkpt lat="42.76059" lon="0.46238">
        <ele>2342.39</ele>
        <time>2015-03-10T07:40:08Z</time>
      </trkpt>
      <trkpt lat="42.76042" lon="0.46252">
        <ele>2342.39</ele>
        <time>2015-03-10T07:40:23Z</time>
      </trkpt>
      <trkpt lat="42.76028" lon="0.46261">
        <ele>2343.83</ele>
        <time>2015-03-10T07:40:37Z</time>
      </trkpt>
      <trkpt lat="42.76013" lon="0.46269">
        <ele>2344.31</ele>
        <time>2015-03-10T07:40:51Z</time>
      </trkpt>
      <trkpt lat="42.75999" lon="0.46282">
        <ele>2344.31</ele>
        <time>2015-03-10T07:41:06Z</time>
      </trkpt>
      <trkpt lat="42.75987" lon="0.46291">
        <ele>2344.31</ele>
        <time>2015-03-10T07:41:18Z</time>
      </trkpt>
      <trkpt lat="42.75975" lon="0.46303">
        <ele>2345.75</ele>
        <time>2015-03-10T07:41:33Z</time>
      </trkpt>
      <trkpt lat="42.75965" lon="0.46313">
        <ele>2348.16</ele>
        <time>2015-03-10T07:41:46Z</time>
      </trkpt>
      <trkpt lat="42.75963" lon="0.46318">
        <ele>2348.16</ele>
        <time>2015-03-10T07:41:50Z</time>
      </trkpt>
      <trkpt lat="42.75953" lon="0.46328">
        <ele>2350.08</ele>
        <time>2015-03-10T07:42:03Z</time>
      </trkpt>
      <trkpt lat="42.75951" lon="0.4633">
        <ele>2350.56</ele>
        <time>2015-03-10T07:42:06Z</time>
      </trkpt>
      <trkpt lat="42.75943" lon="0.46339">
        <ele>2352</ele>
        <time>2015-03-10T07:42:17Z</time>
      </trkpt>
      <trkpt lat="42.75933" lon="0.46352">
        <ele>2352.48</ele>
        <time>2015-03-10T07:42:32Z</time>
      </trkpt>
      <trkpt lat="42.75933" lon="0.46353">
        <ele>2352.48</ele>
        <time>2015-03-10T07:42:43Z</time>
      </trkpt>
      <trkpt lat="42.75932" lon="0.46354">
        <ele>2352</ele>
        <time>2015-03-10T07:43:01Z</time>
      </trkpt>
      <trkpt lat="42.75931" lon="0.46356">
        <ele>2352.48</ele>
        <time>2015-03-10T07:43:15Z</time>
      </trkpt>
      <trkpt lat="42.75933" lon="0.46355">
        <ele>2351.52</ele>
        <time>2015-03-10T07:43:27Z</time>
      </trkpt>
      <trkpt lat="42.75933" lon="0.46355">
        <ele>2351.52</ele>
        <time>2015-03-10T07:43:58Z</time>
      </trkpt>
      <trkpt lat="42.75933" lon="0.46355">
        <ele>2351.04</ele>
        <time>2015-03-10T07:44:23Z</time>
      </trkpt>
      <trkpt lat="42.75933" lon="0.46355">
        <ele>2351.04</ele>
        <time>2015-03-10T07:44:47Z</time>
      </trkpt>
      <trkpt lat="42.75933" lon="0.46356">
        <ele>2351.04</ele>
        <time>2015-03-10T07:45:12Z</time>
      </trkpt>
      <trkpt lat="42.75934" lon="0.46354">
        <ele>2350.56</ele>
        <time>2015-03-10T07:45:37Z</time>
      </trkpt>
      <trkpt lat="42.75934" lon="0.46355">
        <ele>2350.56</ele>
        <time>2015-03-10T07:46:15Z</time>
      </trkpt>
      <trkpt lat="42.75932" lon="0.46355">
        <ele>2352.48</ele>
        <time>2015-03-10T07:46:27Z</time>
      </trkpt>
      <trkpt lat="42.75933" lon="0.46354">
        <ele>2352.48</ele>
        <time>2015-03-10T07:46:44Z</time>
      </trkpt>
      <trkpt lat="42.75933" lon="0.46354">
        <ele>2352.96</ele>
        <time>2015-03-10T07:46:58Z</time>
      </trkpt>
      <trkpt lat="42.75933" lon="0.46355">
        <ele>2352.96</ele>
        <time>2015-03-10T07:47:18Z</time>
      </trkpt>
      <trkpt lat="42.75934" lon="0.46355">
        <ele>2352.96</ele>
        <time>2015-03-10T07:47:39Z</time>
      </trkpt>
      <trkpt lat="42.75933" lon="0.46355">
        <ele>2352.96</ele>
        <time>2015-03-10T07:47:53Z</time>
      </trkpt>
      <trkpt lat="42.75934" lon="0.46354">
        <ele>2352.48</ele>
        <time>2015-03-10T07:48:07Z</time>
      </trkpt>
      <trkpt lat="42.75927" lon="0.46355">
        <ele>2350.56</ele>
        <time>2015-03-10T07:48:18Z</time>
      </trkpt>
      <trkpt lat="42.75921" lon="0.46351">
        <ele>2347.2</ele>
        <time>2015-03-10T07:48:23Z</time>
      </trkpt>
      <trkpt lat="42.75921" lon="0.46348">
        <ele>2346.72</ele>
        <time>2015-03-10T07:48:24Z</time>
      </trkpt>
      <trkpt lat="42.75922" lon="0.46334">
        <ele>2344.31</ele>
        <time>2015-03-10T07:48:29Z</time>
      </trkpt>
      <trkpt lat="42.75916" lon="0.4633">
        <ele>2339.99</ele>
        <time>2015-03-10T07:48:33Z</time>
      </trkpt>
      <trkpt lat="42.75908" lon="0.46337">
        <ele>2337.1</ele>
        <time>2015-03-10T07:48:39Z</time>
      </trkpt>
      <trkpt lat="42.75906" lon="0.4634">
        <ele>2336.62</ele>
        <time>2015-03-10T07:48:41Z</time>
      </trkpt>
      <trkpt lat="42.75904" lon="0.46343">
        <ele>2335.66</ele>
        <time>2015-03-10T07:48:43Z</time>
      </trkpt>
      <trkpt lat="42.759" lon="0.46343">
        <ele>2333.74</ele>
        <time>2015-03-10T07:48:47Z</time>
      </trkpt>
      <trkpt lat="42.75894" lon="0.46335">
        <ele>2328.93</ele>
        <time>2015-03-10T07:48:53Z</time>
      </trkpt>
      <trkpt lat="42.7589" lon="0.46339">
        <ele>2327.01</ele>
        <time>2015-03-10T07:48:56Z</time>
      </trkpt>
      <trkpt lat="42.75882" lon="0.46334">
        <ele>2321.72</ele>
        <time>2015-03-10T07:49:02Z</time>
      </trkpt>
      <trkpt lat="42.75881" lon="0.46336">
        <ele>2321.24</ele>
        <time>2015-03-10T07:49:04Z</time>
      </trkpt>
      <trkpt lat="42.75879" lon="0.4634">
        <ele>2320.28</ele>
        <time>2015-03-10T07:49:12Z</time>
      </trkpt>
      <trkpt lat="42.75873" lon="0.46335">
        <ele>2315.95</ele>
        <time>2015-03-10T07:49:16Z</time>
      </trkpt>
      <trkpt lat="42.7587" lon="0.46327">
        <ele>2314.99</ele>
        <time>2015-03-10T07:49:20Z</time>
      </trkpt>
      <trkpt lat="42.75862" lon="0.46331">
        <ele>2310.67</ele>
        <time>2015-03-10T07:49:27Z</time>
      </trkpt>
      <trkpt lat="42.75861" lon="0.46332">
        <ele>2310.19</ele>
        <time>2015-03-10T07:49:28Z</time>
      </trkpt>
      <trkpt lat="42.75856" lon="0.46335">
        <ele>2308.26</ele>
        <time>2015-03-10T07:49:32Z</time>
      </trkpt>
      <trkpt lat="42.75852" lon="0.46335">
        <ele>2306.82</ele>
        <time>2015-03-10T07:49:40Z</time>
      </trkpt>
      <trkpt lat="42.75851" lon="0.46333">
        <ele>2306.82</ele>
        <time>2015-03-10T07:49:50Z</time>
      </trkpt>
      <trkpt lat="42.75848" lon="0.46328">
        <ele>2305.38</ele>
        <time>2015-03-10T07:50:03Z</time>
      </trkpt>
      <trkpt lat="42.75847" lon="0.46324">
        <ele>2304.42</ele>
        <time>2015-03-10T07:50:06Z</time>
      </trkpt>
      <trkpt lat="42.75843" lon="0.46324">
        <ele>2301.53</ele>
        <time>2015-03-10T07:50:10Z</time>
      </trkpt>
      <trkpt lat="42.7584" lon="0.46326">
        <ele>2300.09</ele>
        <time>2015-03-10T07:50:14Z</time>
      </trkpt>
      <trkpt lat="42.7584" lon="0.46326">
        <ele>2300.57</ele>
        <time>2015-03-10T07:50:21Z</time>
      </trkpt>
      <trkpt lat="42.75836" lon="0.4632">
        <ele>2298.65</ele>
        <time>2015-03-10T07:50:25Z</time>
      </trkpt>
      <trkpt lat="42.75833" lon="0.46322">
        <ele>2296.73</ele>
        <time>2015-03-10T07:50:28Z</time>
      </trkpt>
      <trkpt lat="42.75833" lon="0.46325">
        <ele>2297.21</ele>
        <time>2015-03-10T07:50:39Z</time>
      </trkpt>
      <trkpt lat="42.75834" lon="0.4634">
        <ele>2292.4</ele>
        <time>2015-03-10T07:50:43Z</time>
      </trkpt>
      <trkpt lat="42.75831" lon="0.4635">
        <ele>2289.52</ele>
        <time>2015-03-10T07:50:47Z</time>
      </trkpt>
      <trkpt lat="42.75826" lon="0.46346">
        <ele>2285.67</ele>
        <time>2015-03-10T07:50:50Z</time>
      </trkpt>
      <trkpt lat="42.75822" lon="0.46349">
        <ele>2282.31</ele>
        <time>2015-03-10T07:50:54Z</time>
      </trkpt>
      <trkpt lat="42.75822" lon="0.46352">
        <ele>2282.31</ele>
        <time>2015-03-10T07:50:55Z</time>
      </trkpt>
      <trkpt lat="42.7582" lon="0.4636">
        <ele>2281.35</ele>
        <time>2015-03-10T07:51:08Z</time>
      </trkpt>
      <trkpt lat="42.7582" lon="0.46361">
        <ele>2281.83</ele>
        <time>2015-03-10T07:51:26Z</time>
      </trkpt>
      <trkpt lat="42.75834" lon="0.46373">
        <ele>2277.98</ele>
        <time>2015-03-10T07:51:35Z</time>
      </trkpt>
      <trkpt lat="42.75832" lon="0.46378">
        <ele>2273.66</ele>
        <time>2015-03-10T07:51:38Z</time>
      </trkpt>
      <trkpt lat="42.75832" lon="0.46384">
        <ele>2270.77</ele>
        <time>2015-03-10T07:51:41Z</time>
      </trkpt>
      <trkpt lat="42.7583" lon="0.46386">
        <ele>2267.41</ele>
        <time>2015-03-10T07:51:43Z</time>
      </trkpt>
      <trkpt lat="42.75828" lon="0.46391">
        <ele>2263.56</ele>
        <time>2015-03-10T07:51:47Z</time>
      </trkpt>
      <trkpt lat="42.75828" lon="0.46395">
        <ele>2262.12</ele>
        <time>2015-03-10T07:51:49Z</time>
      </trkpt>
      <trkpt lat="42.75827" lon="0.46399">
        <ele>2260.2</ele>
        <time>2015-03-10T07:51:51Z</time>
      </trkpt>
      <trkpt lat="42.75825" lon="0.46399">
        <ele>2257.79</ele>
        <time>2015-03-10T07:51:52Z</time>
      </trkpt>
      <trkpt lat="42.75823" lon="0.46398">
        <ele>2256.83</ele>
        <time>2015-03-10T07:51:53Z</time>
      </trkpt>
      <trkpt lat="42.75816" lon="0.46397">
        <ele>2254.91</ele>
        <time>2015-03-10T07:51:56Z</time>
      </trkpt>
      <trkpt lat="42.75814" lon="0.46398">
        <ele>2252.99</ele>
        <time>2015-03-10T07:51:57Z</time>
      </trkpt>
      <trkpt lat="42.75814" lon="0.464">
        <ele>2252.03</ele>
        <time>2015-03-10T07:51:58Z</time>
      </trkpt>
      <trkpt lat="42.75814" lon="0.46402">
        <ele>2251.06</ele>
        <time>2015-03-10T07:51:59Z</time>
      </trkpt>
      <trkpt lat="42.75812" lon="0.46402">
        <ele>2249.14</ele>
        <time>2015-03-10T07:52:00Z</time>
      </trkpt>
      <trkpt lat="42.75809" lon="0.46401">
        <ele>2248.18</ele>
        <time>2015-03-10T07:52:01Z</time>
      </trkpt>
      <trkpt lat="42.75806" lon="0.46399">
        <ele>2247.7</ele>
        <time>2015-03-10T07:52:02Z</time>
      </trkpt>
      <trkpt lat="42.75803" lon="0.46398">
        <ele>2246.74</ele>
        <time>2015-03-10T07:52:03Z</time>
      </trkpt>
      <trkpt lat="42.75801" lon="0.46397">
        <ele>2246.26</ele>
        <time>2015-03-10T07:52:04Z</time>
      </trkpt>
      <trkpt lat="42.75799" lon="0.46396">
        <ele>2246.26</ele>
        <time>2015-03-10T07:52:05Z</time>
      </trkpt>
      <trkpt lat="42.75796" lon="0.46395">
        <ele>2245.78</ele>
        <time>2015-03-10T07:52:18Z</time>
      </trkpt>
      <trkpt lat="42.75795" lon="0.46396">
        <ele>2245.3</ele>
        <time>2015-03-10T07:52:19Z</time>
      </trkpt>
      <trkpt lat="42.75794" lon="0.46397">
        <ele>2244.33</ele>
        <time>2015-03-10T07:52:20Z</time>
      </trkpt>
      <trkpt lat="42.75794" lon="0.46402">
        <ele>2241.93</ele>
        <time>2015-03-10T07:52:23Z</time>
      </trkpt>
      <trkpt lat="42.75793" lon="0.46407">
        <ele>2238.57</ele>
        <time>2015-03-10T07:52:26Z</time>
      </trkpt>
      <trkpt lat="42.75789" lon="0.46409">
        <ele>2235.68</ele>
        <time>2015-03-10T07:52:29Z</time>
      </trkpt>
      <trkpt lat="42.75788" lon="0.46411">
        <ele>2232.8</ele>
        <time>2015-03-10T07:52:30Z</time>
      </trkpt>
      <trkpt lat="42.75788" lon="0.46416">
        <ele>2229.92</ele>
        <time>2015-03-10T07:52:32Z</time>
      </trkpt>
      <trkpt lat="42.75787" lon="0.46418">
        <ele>2228.95</ele>
        <time>2015-03-10T07:52:33Z</time>
      </trkpt>
      <trkpt lat="42.75785" lon="0.4642">
        <ele>2227.99</ele>
        <time>2015-03-10T07:52:34Z</time>
      </trkpt>
      <trkpt lat="42.75785" lon="0.46422">
        <ele>2225.59</ele>
        <time>2015-03-10T07:52:35Z</time>
      </trkpt>
      <trkpt lat="42.75785" lon="0.46424">
        <ele>2224.63</ele>
        <time>2015-03-10T07:52:36Z</time>
      </trkpt>
      <trkpt lat="42.75785" lon="0.46427">
        <ele>2222.22</ele>
        <time>2015-03-10T07:52:37Z</time>
      </trkpt>
      <trkpt lat="42.75783" lon="0.46428">
        <ele>2221.26</ele>
        <time>2015-03-10T07:52:38Z</time>
      </trkpt>
      <trkpt lat="42.75781" lon="0.46429">
        <ele>2220.78</ele>
        <time>2015-03-10T07:52:39Z</time>
      </trkpt>
      <trkpt lat="42.75781" lon="0.46431">
        <ele>2219.34</ele>
        <time>2015-03-10T07:52:40Z</time>
      </trkpt>
      <trkpt lat="42.75782" lon="0.46433">
        <ele>2217.9</ele>
        <time>2015-03-10T07:52:41Z</time>
      </trkpt>
      <trkpt lat="42.75783" lon="0.46437">
        <ele>2215.01</ele>
        <time>2015-03-10T07:52:43Z</time>
      </trkpt>
      <trkpt lat="42.75781" lon="0.46438">
        <ele>2213.57</ele>
        <time>2015-03-10T07:52:44Z</time>
      </trkpt>
      <trkpt lat="42.75779" lon="0.46439">
        <ele>2213.09</ele>
        <time>2015-03-10T07:52:45Z</time>
      </trkpt>
      <trkpt lat="42.75777" lon="0.4644">
        <ele>2212.13</ele>
        <time>2015-03-10T07:52:46Z</time>
      </trkpt>
      <trkpt lat="42.75774" lon="0.46441">
        <ele>2210.69</ele>
        <time>2015-03-10T07:52:49Z</time>
      </trkpt>
      <trkpt lat="42.75772" lon="0.46445">
        <ele>2209.73</ele>
        <time>2015-03-10T07:52:51Z</time>
      </trkpt>
      <trkpt lat="42.75775" lon="0.46449">
        <ele>2206.36</ele>
        <time>2015-03-10T07:52:54Z</time>
      </trkpt>
      <trkpt lat="42.75774" lon="0.46453">
        <ele>2201.56</ele>
        <time>2015-03-10T07:52:57Z</time>
      </trkpt>
      <trkpt lat="42.75773" lon="0.46453">
        <ele>2201.56</ele>
        <time>2015-03-10T07:52:58Z</time>
      </trkpt>
      <trkpt lat="42.75773" lon="0.46453">
        <ele>2202.04</ele>
        <time>2015-03-10T07:53:01Z</time>
      </trkpt>
      <trkpt lat="42.75769" lon="0.46454">
        <ele>2201.08</ele>
        <time>2015-03-10T07:53:04Z</time>
      </trkpt>
      <trkpt lat="42.75768" lon="0.46455">
        <ele>2199.63</ele>
        <time>2015-03-10T07:53:05Z</time>
      </trkpt>
      <trkpt lat="42.75768" lon="0.46458">
        <ele>2197.71</ele>
        <time>2015-03-10T07:53:07Z</time>
      </trkpt>
      <trkpt lat="42.75768" lon="0.4646">
        <ele>2195.79</ele>
        <time>2015-03-10T07:53:08Z</time>
      </trkpt>
      <trkpt lat="42.75767" lon="0.46461">
        <ele>2193.87</ele>
        <time>2015-03-10T07:53:09Z</time>
      </trkpt>
      <trkpt lat="42.75765" lon="0.46464">
        <ele>2190.98</ele>
        <time>2015-03-10T07:53:19Z</time>
      </trkpt>
      <trkpt lat="42.75764" lon="0.46465">
        <ele>2190.98</ele>
        <time>2015-03-10T07:53:21Z</time>
      </trkpt>
      <trkpt lat="42.75763" lon="0.46467">
        <ele>2190.5</ele>
        <time>2015-03-10T07:53:22Z</time>
      </trkpt>
      <trkpt lat="42.75763" lon="0.46468">
        <ele>2189.06</ele>
        <time>2015-03-10T07:53:23Z</time>
      </trkpt>
      <trkpt lat="42.75763" lon="0.4647">
        <ele>2187.62</ele>
        <time>2015-03-10T07:53:24Z</time>
      </trkpt>
      <trkpt lat="42.75762" lon="0.46472">
        <ele>2186.18</ele>
        <time>2015-03-10T07:53:25Z</time>
      </trkpt>
      <trkpt lat="42.7576" lon="0.46472">
        <ele>2184.73</ele>
        <time>2015-03-10T07:53:27Z</time>
      </trkpt>
      <trkpt lat="42.75757" lon="0.46474">
        <ele>2183.29</ele>
        <time>2015-03-10T07:53:34Z</time>
      </trkpt>
      <trkpt lat="42.75756" lon="0.46475">
        <ele>2181.85</ele>
        <time>2015-03-10T07:53:35Z</time>
      </trkpt>
      <trkpt lat="42.75756" lon="0.46477">
        <ele>2181.37</ele>
        <time>2015-03-10T07:53:36Z</time>
      </trkpt>
      <trkpt lat="42.75755" lon="0.46479">
        <ele>2179.45</ele>
        <time>2015-03-10T07:53:37Z</time>
      </trkpt>
      <trkpt lat="42.75753" lon="0.4648">
        <ele>2178</ele>
        <time>2015-03-10T07:53:38Z</time>
      </trkpt>
      <trkpt lat="42.75752" lon="0.4648">
        <ele>2177.04</ele>
        <time>2015-03-10T07:53:40Z</time>
      </trkpt>
      <trkpt lat="42.7575" lon="0.46479">
        <ele>2177.04</ele>
        <time>2015-03-10T07:53:46Z</time>
      </trkpt>
      <trkpt lat="42.75746" lon="0.46475">
        <ele>2175.6</ele>
        <time>2015-03-10T07:53:51Z</time>
      </trkpt>
      <trkpt lat="42.75733" lon="0.46465">
        <ele>2172.24</ele>
        <time>2015-03-10T07:53:59Z</time>
      </trkpt>
      <trkpt lat="42.75726" lon="0.46458">
        <ele>2169.83</ele>
        <time>2015-03-10T07:54:08Z</time>
      </trkpt>
      <trkpt lat="42.75723" lon="0.46455">
        <ele>2168.39</ele>
        <time>2015-03-10T07:54:11Z</time>
      </trkpt>
      <trkpt lat="42.75714" lon="0.46449">
        <ele>2165.03</ele>
        <time>2015-03-10T07:54:17Z</time>
      </trkpt>
      <trkpt lat="42.75702" lon="0.46446">
        <ele>2161.66</ele>
        <time>2015-03-10T07:54:22Z</time>
      </trkpt>
      <trkpt lat="42.7568" lon="0.46428">
        <ele>2158.3</ele>
        <time>2015-03-10T07:54:33Z</time>
      </trkpt>
      <trkpt lat="42.75675" lon="0.46426">
        <ele>2156.86</ele>
        <time>2015-03-10T07:54:36Z</time>
      </trkpt>
      <trkpt lat="42.75672" lon="0.46423">
        <ele>2155.89</ele>
        <time>2015-03-10T07:54:45Z</time>
      </trkpt>
      <trkpt lat="42.75665" lon="0.46426">
        <ele>2151.57</ele>
        <time>2015-03-10T07:54:49Z</time>
      </trkpt>
      <trkpt lat="42.75644" lon="0.46415">
        <ele>2145.8</ele>
        <time>2015-03-10T07:54:53Z</time>
      </trkpt>
      <trkpt lat="42.75635" lon="0.46409">
        <ele>2143.88</ele>
        <time>2015-03-10T07:54:55Z</time>
      </trkpt>
      <trkpt lat="42.75613" lon="0.46414">
        <ele>2136.67</ele>
        <time>2015-03-10T07:54:59Z</time>
      </trkpt>
      <trkpt lat="42.75597" lon="0.46405">
        <ele>2133.3</ele>
        <time>2015-03-10T07:55:01Z</time>
      </trkpt>
      <trkpt lat="42.75582" lon="0.46393">
        <ele>2130.9</ele>
        <time>2015-03-10T07:55:03Z</time>
      </trkpt>
      <trkpt lat="42.75569" lon="0.46372">
        <ele>2128.98</ele>
        <time>2015-03-10T07:55:08Z</time>
      </trkpt>
      <trkpt lat="42.75569" lon="0.46371">
        <ele>2129.46</ele>
        <time>2015-03-10T07:55:17Z</time>
      </trkpt>
      <trkpt lat="42.75566" lon="0.46371">
        <ele>2128.5</ele>
        <time>2015-03-10T07:55:28Z</time>
      </trkpt>
      <trkpt lat="42.75566" lon="0.4637">
        <ele>2128.5</ele>
        <time>2015-03-10T07:55:41Z</time>
      </trkpt>
      <trkpt lat="42.75565" lon="0.4637">
        <ele>2128.5</ele>
        <time>2015-03-10T07:55:54Z</time>
      </trkpt>
      <trkpt lat="42.75565" lon="0.4637">
        <ele>2128.98</ele>
        <time>2015-03-10T07:56:11Z</time>
      </trkpt>
      <trkpt lat="42.75565" lon="0.46371">
        <ele>2127.53</ele>
        <time>2015-03-10T07:56:23Z</time>
      </trkpt>
      <trkpt lat="42.75568" lon="0.4637">
        <ele>2127.53</ele>
        <time>2015-03-10T07:56:58Z</time>
      </trkpt>
      <trkpt lat="42.7557" lon="0.46368">
        <ele>2127.53</ele>
        <time>2015-03-10T07:57:31Z</time>
      </trkpt>
      <trkpt lat="42.7557" lon="0.46368">
        <ele>2127.53</ele>
        <time>2015-03-10T07:58:06Z</time>
      </trkpt>
      <trkpt lat="42.7557" lon="0.46369">
        <ele>2127.53</ele>
        <time>2015-03-10T07:58:38Z</time>
      </trkpt>
      <trkpt lat="42.75569" lon="0.46369">
        <ele>2127.53</ele>
        <time>2015-03-10T07:58:53Z</time>
      </trkpt>
      <trkpt lat="42.75568" lon="0.46372">
        <ele>2129.46</ele>
        <time>2015-03-10T07:59:03Z</time>
      </trkpt>
      <trkpt lat="42.75568" lon="0.46371">
        <ele>2128.98</ele>
        <time>2015-03-10T07:59:21Z</time>
      </trkpt>
      <trkpt lat="42.75566" lon="0.46368">
        <ele>2129.94</ele>
        <time>2015-03-10T07:59:34Z</time>
      </trkpt>
      <trkpt lat="42.75565" lon="0.46368">
        <ele>2129.46</ele>
        <time>2015-03-10T07:59:38Z</time>
      </trkpt>
      <trkpt lat="42.75565" lon="0.46366">
        <ele>2129.94</ele>
        <time>2015-03-10T07:59:40Z</time>
      </trkpt>
      <trkpt lat="42.75562" lon="0.46358">
        <ele>2129.94</ele>
        <time>2015-03-10T07:59:45Z</time>
      </trkpt>
      <trkpt lat="42.75557" lon="0.46337">
        <ele>2131.38</ele>
        <time>2015-03-10T08:00:01Z</time>
      </trkpt>
      <trkpt lat="42.75553" lon="0.46321">
        <ele>2133.3</ele>
        <time>2015-03-10T08:00:14Z</time>
      </trkpt>
      <trkpt lat="42.75549" lon="0.4631">
        <ele>2134.74</ele>
        <time>2015-03-10T08:00:24Z</time>
      </trkpt>
      <trkpt lat="42.75549" lon="0.46308">
        <ele>2134.74</ele>
        <time>2015-03-10T08:00:26Z</time>
      </trkpt>
      <trkpt lat="42.75541" lon="0.46293">
        <ele>2134.74</ele>
        <time>2015-03-10T08:00:40Z</time>
      </trkpt>
      <trkpt lat="42.75531" lon="0.46283">
        <ele>2136.19</ele>
        <time>2015-03-10T08:00:53Z</time>
      </trkpt>
      <trkpt lat="42.75528" lon="0.46282">
        <ele>2136.67</ele>
        <time>2015-03-10T08:01:07Z</time>
      </trkpt>
      <trkpt lat="42.7552" lon="0.46283">
        <ele>2139.07</ele>
        <time>2015-03-10T08:01:20Z</time>
      </trkpt>
      <trkpt lat="42.75515" lon="0.46278">
        <ele>2140.99</ele>
        <time>2015-03-10T08:01:31Z</time>
      </trkpt>
      <trkpt lat="42.75512" lon="0.46265">
        <ele>2143.4</ele>
        <time>2015-03-10T08:01:45Z</time>
      </trkpt>
      <trkpt lat="42.75509" lon="0.46255">
        <ele>2145.32</ele>
        <time>2015-03-10T08:01:59Z</time>
      </trkpt>
      <trkpt lat="42.75506" lon="0.46245">
        <ele>2148.2</ele>
        <time>2015-03-10T08:02:12Z</time>
      </trkpt>
      <trkpt lat="42.75505" lon="0.46237">
        <ele>2150.61</ele>
        <time>2015-03-10T08:02:23Z</time>
      </trkpt>
      <trkpt lat="42.75502" lon="0.4623">
        <ele>2152.05</ele>
        <time>2015-03-10T08:02:32Z</time>
      </trkpt>
      <trkpt lat="42.75501" lon="0.46225">
        <ele>2153.01</ele>
        <time>2015-03-10T08:02:45Z</time>
      </trkpt>
      <trkpt lat="42.755" lon="0.46227">
        <ele>2153.49</ele>
        <time>2015-03-10T08:02:56Z</time>
      </trkpt>
      <trkpt lat="42.75495" lon="0.46237">
        <ele>2155.41</ele>
        <time>2015-03-10T08:03:10Z</time>
      </trkpt>
      <trkpt lat="42.75493" lon="0.46244">
        <ele>2156.37</ele>
        <time>2015-03-10T08:03:24Z</time>
      </trkpt>
      <trkpt lat="42.75487" lon="0.46248">
        <ele>2158.3</ele>
        <time>2015-03-10T08:03:37Z</time>
      </trkpt>
      <trkpt lat="42.75482" lon="0.46256">
        <ele>2160.7</ele>
        <time>2015-03-10T08:03:51Z</time>
      </trkpt>
      <trkpt lat="42.75481" lon="0.46259">
        <ele>2160.7</ele>
        <time>2015-03-10T08:03:58Z</time>
      </trkpt>
      <trkpt lat="42.75477" lon="0.46269">
        <ele>2162.14</ele>
        <time>2015-03-10T08:04:10Z</time>
      </trkpt>
      <trkpt lat="42.75473" lon="0.46277">
        <ele>2164.06</ele>
        <time>2015-03-10T08:04:21Z</time>
      </trkpt>
      <trkpt lat="42.75471" lon="0.46285">
        <ele>2165.51</ele>
        <time>2015-03-10T08:04:33Z</time>
      </trkpt>
      <trkpt lat="42.75469" lon="0.46292">
        <ele>2167.43</ele>
        <time>2015-03-10T08:04:44Z</time>
      </trkpt>
      <trkpt lat="42.75465" lon="0.46294">
        <ele>2169.35</ele>
        <time>2015-03-10T08:04:56Z</time>
      </trkpt>
      <trkpt lat="42.75462" lon="0.46289">
        <ele>2169.83</ele>
        <time>2015-03-10T08:05:13Z</time>
      </trkpt>
      <trkpt lat="42.75459" lon="0.46291">
        <ele>2171.27</ele>
        <time>2015-03-10T08:05:30Z</time>
      </trkpt>
      <trkpt lat="42.75453" lon="0.463">
        <ele>2173.2</ele>
        <time>2015-03-10T08:05:43Z</time>
      </trkpt>
      <trkpt lat="42.75444" lon="0.46299">
        <ele>2175.6</ele>
        <time>2015-03-10T08:05:56Z</time>
      </trkpt>
      <trkpt lat="42.75436" lon="0.46296">
        <ele>2177.04</ele>
        <time>2015-03-10T08:06:08Z</time>
      </trkpt>
      <trkpt lat="42.75426" lon="0.46295">
        <ele>2178</ele>
        <time>2015-03-10T08:06:21Z</time>
      </trkpt>
      <trkpt lat="42.75417" lon="0.46293">
        <ele>2180.41</ele>
        <time>2015-03-10T08:06:34Z</time>
      </trkpt>
      <trkpt lat="42.75415" lon="0.46295">
        <ele>2180.89</ele>
        <time>2015-03-10T08:06:47Z</time>
      </trkpt>
      <trkpt lat="42.75413" lon="0.46292">
        <ele>2181.37</ele>
        <time>2015-03-10T08:07:03Z</time>
      </trkpt>
      <trkpt lat="42.75414" lon="0.46294">
        <ele>2180.89</ele>
        <time>2015-03-10T08:07:21Z</time>
      </trkpt>
      <trkpt lat="42.75414" lon="0.46294">
        <ele>2180.41</ele>
        <time>2015-03-10T08:07:23Z</time>
      </trkpt>
      <trkpt lat="42.75418" lon="0.46296">
        <ele>2179.45</ele>
        <time>2015-03-10T08:07:27Z</time>
      </trkpt>
      <trkpt lat="42.75422" lon="0.46296">
        <ele>2178.97</ele>
        <time>2015-03-10T08:07:30Z</time>
      </trkpt>
      <trkpt lat="42.75425" lon="0.46299">
        <ele>2178</ele>
        <time>2015-03-10T08:07:43Z</time>
      </trkpt>
      <trkpt lat="42.75425" lon="0.46299">
        <ele>2178</ele>
        <time>2015-03-10T08:08:05Z</time>
      </trkpt>
      <trkpt lat="42.75424" lon="0.463">
        <ele>2178.48</ele>
        <time>2015-03-10T08:08:14Z</time>
      </trkpt>
      <trkpt lat="42.7542" lon="0.46303">
        <ele>2178.97</ele>
        <time>2015-03-10T08:08:26Z</time>
      </trkpt>
      <trkpt lat="42.7542" lon="0.46302">
        <ele>2178.97</ele>
        <time>2015-03-10T08:08:38Z</time>
      </trkpt>
      <trkpt lat="42.75418" lon="0.46299">
        <ele>2179.45</ele>
        <time>2015-03-10T08:08:58Z</time>
      </trkpt>
      <trkpt lat="42.7541" lon="0.46293">
        <ele>2181.85</ele>
        <time>2015-03-10T08:09:11Z</time>
      </trkpt>
      <trkpt lat="42.75407" lon="0.46289">
        <ele>2183.29</ele>
        <time>2015-03-10T08:09:17Z</time>
      </trkpt>
      <trkpt lat="42.754" lon="0.46281">
        <ele>2185.69</ele>
        <time>2015-03-10T08:09:30Z</time>
      </trkpt>
      <trkpt lat="42.75393" lon="0.46286">
        <ele>2188.1</ele>
        <time>2015-03-10T08:09:42Z</time>
      </trkpt>
      <trkpt lat="42.75385" lon="0.46293">
        <ele>2190.5</ele>
        <time>2015-03-10T08:09:58Z</time>
      </trkpt>
      <trkpt lat="42.75379" lon="0.46299">
        <ele>2192.9</ele>
        <time>2015-03-10T08:10:11Z</time>
      </trkpt>
      <trkpt lat="42.75374" lon="0.463">
        <ele>2194.83</ele>
        <time>2015-03-10T08:10:22Z</time>
      </trkpt>
      <trkpt lat="42.75371" lon="0.46288">
        <ele>2197.71</ele>
        <time>2015-03-10T08:10:38Z</time>
      </trkpt>
      <trkpt lat="42.75366" lon="0.46273">
        <ele>2200.11</ele>
        <time>2015-03-10T08:10:56Z</time>
      </trkpt>
      <trkpt lat="42.75364" lon="0.46267">
        <ele>2202.04</ele>
        <time>2015-03-10T08:11:09Z</time>
      </trkpt>
      <trkpt lat="42.7536" lon="0.46257">
        <ele>2204.44</ele>
        <time>2015-03-10T08:11:23Z</time>
      </trkpt>
      <trkpt lat="42.75357" lon="0.4626">
        <ele>2205.4</ele>
        <time>2015-03-10T08:11:34Z</time>
      </trkpt>
      <trkpt lat="42.75351" lon="0.46274">
        <ele>2208.29</ele>
        <time>2015-03-10T08:11:52Z</time>
      </trkpt>
      <trkpt lat="42.75347" lon="0.46281">
        <ele>2210.21</ele>
        <time>2015-03-10T08:12:06Z</time>
      </trkpt>
      <trkpt lat="42.75341" lon="0.46291">
        <ele>2212.61</ele>
        <time>2015-03-10T08:12:22Z</time>
      </trkpt>
      <trkpt lat="42.75337" lon="0.46298">
        <ele>2214.05</ele>
        <time>2015-03-10T08:12:36Z</time>
      </trkpt>
      <trkpt lat="42.75333" lon="0.46301">
        <ele>2215.98</ele>
        <time>2015-03-10T08:12:47Z</time>
      </trkpt>
      <trkpt lat="42.75332" lon="0.46296">
        <ele>2217.42</ele>
        <time>2015-03-10T08:12:59Z</time>
      </trkpt>
      <trkpt lat="42.7533" lon="0.46286">
        <ele>2219.34</ele>
        <time>2015-03-10T08:13:11Z</time>
      </trkpt>
      <trkpt lat="42.7533" lon="0.46278">
        <ele>2221.26</ele>
        <time>2015-03-10T08:13:23Z</time>
      </trkpt>
      <trkpt lat="42.75327" lon="0.46269">
        <ele>2223.67</ele>
        <time>2015-03-10T08:13:36Z</time>
      </trkpt>
      <trkpt lat="42.75327" lon="0.46272">
        <ele>2223.19</ele>
        <time>2015-03-10T08:13:47Z</time>
      </trkpt>
      <trkpt lat="42.75323" lon="0.46278">
        <ele>2225.59</ele>
        <time>2015-03-10T08:13:58Z</time>
      </trkpt>
      <trkpt lat="42.75315" lon="0.46288">
        <ele>2227.99</ele>
        <time>2015-03-10T08:14:14Z</time>
      </trkpt>
      <trkpt lat="42.7531" lon="0.46297">
        <ele>2230.4</ele>
        <time>2015-03-10T08:14:28Z</time>
      </trkpt>
      <trkpt lat="42.75306" lon="0.46304">
        <ele>2232.32</ele>
        <time>2015-03-10T08:14:40Z</time>
      </trkpt>
      <trkpt lat="42.75304" lon="0.46313">
        <ele>2234.72</ele>
        <time>2015-03-10T08:14:53Z</time>
      </trkpt>
      <trkpt lat="42.75302" lon="0.4631">
        <ele>2235.2</ele>
        <time>2015-03-10T08:15:04Z</time>
      </trkpt>
      <trkpt lat="42.75299" lon="0.46304">
        <ele>2236.16</ele>
        <time>2015-03-10T08:15:17Z</time>
      </trkpt>
      <trkpt lat="42.75295" lon="0.46311">
        <ele>2238.09</ele>
        <time>2015-03-10T08:15:30Z</time>
      </trkpt>
      <trkpt lat="42.75292" lon="0.46312">
        <ele>2239.53</ele>
        <time>2015-03-10T08:15:43Z</time>
      </trkpt>
      <trkpt lat="42.75285" lon="0.4631">
        <ele>2240.97</ele>
        <time>2015-03-10T08:15:54Z</time>
      </trkpt>
      <trkpt lat="42.75282" lon="0.4631">
        <ele>2241.45</ele>
        <time>2015-03-10T08:16:08Z</time>
      </trkpt>
      <trkpt lat="42.7528" lon="0.4631">
        <ele>2241.45</ele>
        <time>2015-03-10T08:16:24Z</time>
      </trkpt>
      <trkpt lat="42.75279" lon="0.4631">
        <ele>2240.01</ele>
        <time>2015-03-10T08:16:35Z</time>
      </trkpt>
      <trkpt lat="42.75279" lon="0.4631">
        <ele>2239.53</ele>
        <time>2015-03-10T08:17:05Z</time>
      </trkpt>
      <trkpt lat="42.75279" lon="0.4631">
        <ele>2240.01</ele>
        <time>2015-03-10T08:17:27Z</time>
      </trkpt>
      <trkpt lat="42.75278" lon="0.46309">
        <ele>2240.49</ele>
        <time>2015-03-10T08:17:33Z</time>
      </trkpt>
      <trkpt lat="42.75279" lon="0.4631">
        <ele>2241.45</ele>
        <time>2015-03-10T08:17:47Z</time>
      </trkpt>
      <trkpt lat="42.7528" lon="0.4631">
        <ele>2240.97</ele>
        <time>2015-03-10T08:18:05Z</time>
      </trkpt>
      <trkpt lat="42.75281" lon="0.4631">
        <ele>2241.93</ele>
        <time>2015-03-10T08:18:23Z</time>
      </trkpt>
      <trkpt lat="42.7528" lon="0.46308">
        <ele>2241.93</ele>
        <time>2015-03-10T08:18:39Z</time>
      </trkpt>
      <trkpt lat="42.7527" lon="0.46298">
        <ele>2244.82</ele>
        <time>2015-03-10T08:18:54Z</time>
      </trkpt>
      <trkpt lat="42.75266" lon="0.46289">
        <ele>2247.7</ele>
        <time>2015-03-10T08:19:07Z</time>
      </trkpt>
      <trkpt lat="42.7526" lon="0.4628">
        <ele>2250.58</ele>
        <time>2015-03-10T08:19:20Z</time>
      </trkpt>
      <trkpt lat="42.75259" lon="0.4628">
        <ele>2251.06</ele>
        <time>2015-03-10T08:19:23Z</time>
      </trkpt>
      <trkpt lat="42.75251" lon="0.46282">
        <ele>2253.47</ele>
        <time>2015-03-10T08:19:37Z</time>
      </trkpt>
      <trkpt lat="42.75244" lon="0.46286">
        <ele>2255.87</ele>
        <time>2015-03-10T08:19:51Z</time>
      </trkpt>
      <trkpt lat="42.75237" lon="0.4629">
        <ele>2257.79</ele>
        <time>2015-03-10T08:20:03Z</time>
      </trkpt>
      <trkpt lat="42.75228" lon="0.4629">
        <ele>2259.72</ele>
        <time>2015-03-10T08:20:16Z</time>
      </trkpt>
      <trkpt lat="42.75218" lon="0.46288">
        <ele>2261.16</ele>
        <time>2015-03-10T08:20:30Z</time>
      </trkpt>
      <trkpt lat="42.75206" lon="0.46285">
        <ele>2262.6</ele>
        <time>2015-03-10T08:20:46Z</time>
      </trkpt>
      <trkpt lat="42.75197" lon="0.46286">
        <ele>2264.52</ele>
        <time>2015-03-10T08:21:00Z</time>
      </trkpt>
      <trkpt lat="42.7519" lon="0.46288">
        <ele>2266.45</ele>
        <time>2015-03-10T08:21:13Z</time>
      </trkpt>
      <trkpt lat="42.75184" lon="0.46291">
        <ele>2268.85</ele>
        <time>2015-03-10T08:21:26Z</time>
      </trkpt>
      <trkpt lat="42.75175" lon="0.46298">
        <ele>2271.25</ele>
        <time>2015-03-10T08:21:42Z</time>
      </trkpt>
      <trkpt lat="42.7517" lon="0.46302">
        <ele>2273.66</ele>
        <time>2015-03-10T08:21:55Z</time>
      </trkpt>
      <trkpt lat="42.75164" lon="0.46306">
        <ele>2275.1</ele>
        <time>2015-03-10T08:22:06Z</time>
      </trkpt>
      <trkpt lat="42.75164" lon="0.463">
        <ele>2276.54</ele>
        <time>2015-03-10T08:22:16Z</time>
      </trkpt>
      <trkpt lat="42.75163" lon="0.46289">
        <ele>2278.46</ele>
        <time>2015-03-10T08:22:30Z</time>
      </trkpt>
      <trkpt lat="42.75163" lon="0.46279">
        <ele>2281.35</ele>
        <time>2015-03-10T08:22:46Z</time>
      </trkpt>
      <trkpt lat="42.75162" lon="0.46271">
        <ele>2283.27</ele>
        <time>2015-03-10T08:22:58Z</time>
      </trkpt>
      <trkpt lat="42.7516" lon="0.46261">
        <ele>2284.71</ele>
        <time>2015-03-10T08:23:09Z</time>
      </trkpt>
      <trkpt lat="42.75159" lon="0.46251">
        <ele>2287.11</ele>
        <time>2015-03-10T08:23:24Z</time>
      </trkpt>
      <trkpt lat="42.75158" lon="0.46241">
        <ele>2290</ele>
        <time>2015-03-10T08:23:41Z</time>
      </trkpt>
      <trkpt lat="42.75154" lon="0.46245">
        <ele>2290.48</ele>
        <time>2015-03-10T08:23:52Z</time>
      </trkpt>
      <trkpt lat="42.7515" lon="0.4625">
        <ele>2292.4</ele>
        <time>2015-03-10T08:24:04Z</time>
      </trkpt>
      <trkpt lat="42.75144" lon="0.46257">
        <ele>2294.8</ele>
        <time>2015-03-10T08:24:19Z</time>
      </trkpt>
      <trkpt lat="42.75136" lon="0.46263">
        <ele>2297.21</ele>
        <time>2015-03-10T08:24:33Z</time>
      </trkpt>
      <trkpt lat="42.75132" lon="0.46268">
        <ele>2299.13</ele>
        <time>2015-03-10T08:24:46Z</time>
      </trkpt>
      <trkpt lat="42.75128" lon="0.46272">
        <ele>2301.05</ele>
        <time>2015-03-10T08:24:57Z</time>
      </trkpt>
      <trkpt lat="42.75121" lon="0.4628">
        <ele>2303.46</ele>
        <time>2015-03-10T08:25:12Z</time>
      </trkpt>
      <trkpt lat="42.75113" lon="0.46288">
        <ele>2305.86</ele>
        <time>2015-03-10T08:25:27Z</time>
      </trkpt>
      <trkpt lat="42.7511" lon="0.46291">
        <ele>2307.78</ele>
        <time>2015-03-10T08:25:39Z</time>
      </trkpt>
      <trkpt lat="42.75103" lon="0.46302">
        <ele>2311.15</ele>
        <time>2015-03-10T08:25:55Z</time>
      </trkpt>
      <trkpt lat="42.75098" lon="0.46307">
        <ele>2313.55</ele>
        <time>2015-03-10T08:26:07Z</time>
      </trkpt>
      <trkpt lat="42.75093" lon="0.46313">
        <ele>2315.95</ele>
        <time>2015-03-10T08:26:19Z</time>
      </trkpt>
      <trkpt lat="42.75089" lon="0.46318">
        <ele>2317.88</ele>
        <time>2015-03-10T08:26:32Z</time>
      </trkpt>
      <trkpt lat="42.75082" lon="0.46325">
        <ele>2320.28</ele>
        <time>2015-03-10T08:26:44Z</time>
      </trkpt>
      <trkpt lat="42.75079" lon="0.46325">
        <ele>2321.72</ele>
        <time>2015-03-10T08:26:59Z</time>
      </trkpt>
      <trkpt lat="42.75073" lon="0.46328">
        <ele>2324.12</ele>
        <time>2015-03-10T08:27:12Z</time>
      </trkpt>
      <trkpt lat="42.75064" lon="0.46329">
        <ele>2325.57</ele>
        <time>2015-03-10T08:27:27Z</time>
      </trkpt>
      <trkpt lat="42.75063" lon="0.46329">
        <ele>2326.53</ele>
        <time>2015-03-10T08:27:58Z</time>
      </trkpt>
      <trkpt lat="42.75053" lon="0.4633">
        <ele>2328.45</ele>
        <time>2015-03-10T08:28:11Z</time>
      </trkpt>
      <trkpt lat="42.75044" lon="0.46333">
        <ele>2329.89</ele>
        <time>2015-03-10T08:28:24Z</time>
      </trkpt>
      <trkpt lat="42.75043" lon="0.46333">
        <ele>2330.37</ele>
        <time>2015-03-10T08:28:43Z</time>
      </trkpt>
      <trkpt lat="42.75033" lon="0.46335">
        <ele>2331.81</ele>
        <time>2015-03-10T08:28:57Z</time>
      </trkpt>
      <trkpt lat="42.75023" lon="0.46338">
        <ele>2333.26</ele>
        <time>2015-03-10T08:29:10Z</time>
      </trkpt>
      <trkpt lat="42.75017" lon="0.4634">
        <ele>2335.18</ele>
        <time>2015-03-10T08:29:21Z</time>
      </trkpt>
      <trkpt lat="42.75009" lon="0.46343">
        <ele>2337.1</ele>
        <time>2015-03-10T08:29:36Z</time>
      </trkpt>
      <trkpt lat="42.75003" lon="0.46346">
        <ele>2339.02</ele>
        <time>2015-03-10T08:29:50Z</time>
      </trkpt>
      <trkpt lat="42.74995" lon="0.4635">
        <ele>2340.47</ele>
        <time>2015-03-10T08:30:04Z</time>
      </trkpt>
      <trkpt lat="42.74988" lon="0.46354">
        <ele>2342.39</ele>
        <time>2015-03-10T08:30:18Z</time>
      </trkpt>
      <trkpt lat="42.74977" lon="0.4636">
        <ele>2344.79</ele>
        <time>2015-03-10T08:30:38Z</time>
      </trkpt>
      <trkpt lat="42.74967" lon="0.46369">
        <ele>2348.16</ele>
        <time>2015-03-10T08:30:59Z</time>
      </trkpt>
      <trkpt lat="42.7496" lon="0.46374">
        <ele>2350.08</ele>
        <time>2015-03-10T08:31:14Z</time>
      </trkpt>
      <trkpt lat="42.74954" lon="0.46379">
        <ele>2351.52</ele>
        <time>2015-03-10T08:31:28Z</time>
      </trkpt>
      <trkpt lat="42.7495" lon="0.46388">
        <ele>2352.48</ele>
        <time>2015-03-10T08:31:43Z</time>
      </trkpt>
      <trkpt lat="42.74945" lon="0.46394">
        <ele>2353.93</ele>
        <time>2015-03-10T08:31:57Z</time>
      </trkpt>
      <trkpt lat="42.74938" lon="0.464">
        <ele>2355.85</ele>
        <time>2015-03-10T08:32:11Z</time>
      </trkpt>
      <trkpt lat="42.74932" lon="0.46405">
        <ele>2357.77</ele>
        <time>2015-03-10T08:32:23Z</time>
      </trkpt>
      <trkpt lat="42.7493" lon="0.46405">
        <ele>2357.77</ele>
        <time>2015-03-10T08:32:37Z</time>
      </trkpt>
      <trkpt lat="42.74929" lon="0.46407">
        <ele>2357.77</ele>
        <time>2015-03-10T08:32:49Z</time>
      </trkpt>
      <trkpt lat="42.74928" lon="0.46408">
        <ele>2358.73</ele>
        <time>2015-03-10T08:33:03Z</time>
      </trkpt>
      <trkpt lat="42.74921" lon="0.46413">
        <ele>2360.65</ele>
        <time>2015-03-10T08:33:16Z</time>
      </trkpt>
      <trkpt lat="42.74913" lon="0.46419">
        <ele>2362.58</ele>
        <time>2015-03-10T08:33:30Z</time>
      </trkpt>
      <trkpt lat="42.74905" lon="0.46423">
        <ele>2364.5</ele>
        <time>2015-03-10T08:33:44Z</time>
      </trkpt>
      <trkpt lat="42.749" lon="0.46427">
        <ele>2366.42</ele>
        <time>2015-03-10T08:33:56Z</time>
      </trkpt>
      <trkpt lat="42.74891" lon="0.4643">
        <ele>2368.35</ele>
        <time>2015-03-10T08:34:09Z</time>
      </trkpt>
      <trkpt lat="42.74883" lon="0.46435">
        <ele>2369.79</ele>
        <time>2015-03-10T08:34:23Z</time>
      </trkpt>
      <trkpt lat="42.74877" lon="0.46438">
        <ele>2371.71</ele>
        <time>2015-03-10T08:34:37Z</time>
      </trkpt>
      <trkpt lat="42.74868" lon="0.46444">
        <ele>2373.63</ele>
        <time>2015-03-10T08:34:50Z</time>
      </trkpt>
      <trkpt lat="42.74867" lon="0.46446">
        <ele>2374.11</ele>
        <time>2015-03-10T08:35:02Z</time>
      </trkpt>
      <trkpt lat="42.74859" lon="0.46449">
        <ele>2376.04</ele>
        <time>2015-03-10T08:35:17Z</time>
      </trkpt>
      <trkpt lat="42.74853" lon="0.46455">
        <ele>2377.96</ele>
        <time>2015-03-10T08:35:32Z</time>
      </trkpt>
      <trkpt lat="42.74846" lon="0.4646">
        <ele>2379.88</ele>
        <time>2015-03-10T08:35:44Z</time>
      </trkpt>
      <trkpt lat="42.7484" lon="0.46467">
        <ele>2381.32</ele>
        <time>2015-03-10T08:35:57Z</time>
      </trkpt>
      <trkpt lat="42.74833" lon="0.46467">
        <ele>2383.25</ele>
        <time>2015-03-10T08:36:09Z</time>
      </trkpt>
      <trkpt lat="42.74828" lon="0.46465">
        <ele>2384.69</ele>
        <time>2015-03-10T08:36:23Z</time>
      </trkpt>
      <trkpt lat="42.74828" lon="0.46464">
        <ele>2383.73</ele>
        <time>2015-03-10T08:36:35Z</time>
      </trkpt>
      <trkpt lat="42.74826" lon="0.46465">
        <ele>2383.73</ele>
        <time>2015-03-10T08:36:55Z</time>
      </trkpt>
      <trkpt lat="42.74825" lon="0.46459">
        <ele>2383.25</ele>
        <time>2015-03-10T08:37:21Z</time>
      </trkpt>
      <trkpt lat="42.74824" lon="0.46458">
        <ele>2383.25</ele>
        <time>2015-03-10T08:37:42Z</time>
      </trkpt>
      <trkpt lat="42.74824" lon="0.46459">
        <ele>2383.25</ele>
        <time>2015-03-10T08:37:57Z</time>
      </trkpt>
      <trkpt lat="42.74825" lon="0.46465">
        <ele>2384.69</ele>
        <time>2015-03-10T08:38:08Z</time>
      </trkpt>
      <trkpt lat="42.74823" lon="0.46461">
        <ele>2384.69</ele>
        <time>2015-03-10T08:38:28Z</time>
      </trkpt>
      <trkpt lat="42.74813" lon="0.46452">
        <ele>2386.13</ele>
        <time>2015-03-10T08:38:43Z</time>
      </trkpt>
      <trkpt lat="42.74809" lon="0.46451">
        <ele>2386.61</ele>
        <time>2015-03-10T08:38:48Z</time>
      </trkpt>
      <trkpt lat="42.74795" lon="0.46451">
        <ele>2387.57</ele>
        <time>2015-03-10T08:39:04Z</time>
      </trkpt>
      <trkpt lat="42.74783" lon="0.46453">
        <ele>2389.01</ele>
        <time>2015-03-10T08:39:19Z</time>
      </trkpt>
      <trkpt lat="42.74772" lon="0.46457">
        <ele>2390.94</ele>
        <time>2015-03-10T08:39:32Z</time>
      </trkpt>
      <trkpt lat="42.74764" lon="0.4646">
        <ele>2392.38</ele>
        <time>2015-03-10T08:39:44Z</time>
      </trkpt>
      <trkpt lat="42.74755" lon="0.46466">
        <ele>2394.78</ele>
        <time>2015-03-10T08:40:00Z</time>
      </trkpt>
      <trkpt lat="42.74748" lon="0.46473">
        <ele>2396.22</ele>
        <time>2015-03-10T08:40:13Z</time>
      </trkpt>
      <trkpt lat="42.7474" lon="0.4648">
        <ele>2398.15</ele>
        <time>2015-03-10T08:40:27Z</time>
      </trkpt>
      <trkpt lat="42.74734" lon="0.46485">
        <ele>2400.07</ele>
        <time>2015-03-10T08:40:41Z</time>
      </trkpt>
      <trkpt lat="42.74728" lon="0.46491">
        <ele>2401.99</ele>
        <time>2015-03-10T08:40:53Z</time>
      </trkpt>
      <trkpt lat="42.74722" lon="0.465">
        <ele>2403.91</ele>
        <time>2015-03-10T08:41:07Z</time>
      </trkpt>
      <trkpt lat="42.74719" lon="0.46506">
        <ele>2405.36</ele>
        <time>2015-03-10T08:41:18Z</time>
      </trkpt>
      <trkpt lat="42.74715" lon="0.46513">
        <ele>2407.28</ele>
        <time>2015-03-10T08:41:31Z</time>
      </trkpt>
      <trkpt lat="42.74711" lon="0.46521">
        <ele>2408.72</ele>
        <time>2015-03-10T08:41:42Z</time>
      </trkpt>
      <trkpt lat="42.74709" lon="0.46525">
        <ele>2409.2</ele>
        <time>2015-03-10T08:41:48Z</time>
      </trkpt>
      <trkpt lat="42.74706" lon="0.46533">
        <ele>2411.12</ele>
        <time>2015-03-10T08:41:59Z</time>
      </trkpt>
      <trkpt lat="42.747" lon="0.46542">
        <ele>2414.01</ele>
        <time>2015-03-10T08:42:18Z</time>
      </trkpt>
      <trkpt lat="42.74693" lon="0.46552">
        <ele>2416.41</ele>
        <time>2015-03-10T08:42:35Z</time>
      </trkpt>
      <trkpt lat="42.74689" lon="0.46556">
        <ele>2418.33</ele>
        <time>2015-03-10T08:42:48Z</time>
      </trkpt>
      <trkpt lat="42.74682" lon="0.46569">
        <ele>2420.26</ele>
        <time>2015-03-10T08:43:04Z</time>
      </trkpt>
      <trkpt lat="42.74677" lon="0.46576">
        <ele>2421.7</ele>
        <time>2015-03-10T08:43:16Z</time>
      </trkpt>
      <trkpt lat="42.74677" lon="0.46579">
        <ele>2422.66</ele>
        <time>2015-03-10T08:43:22Z</time>
      </trkpt>
      <trkpt lat="42.74676" lon="0.46577">
        <ele>2422.66</ele>
        <time>2015-03-10T08:43:31Z</time>
      </trkpt>
      <trkpt lat="42.74674" lon="0.46573">
        <ele>2424.58</ele>
        <time>2015-03-10T08:43:42Z</time>
      </trkpt>
      <trkpt lat="42.74671" lon="0.46565">
        <ele>2426.99</ele>
        <time>2015-03-10T08:43:54Z</time>
      </trkpt>
      <trkpt lat="42.74669" lon="0.46557">
        <ele>2428.43</ele>
        <time>2015-03-10T08:44:07Z</time>
      </trkpt>
      <trkpt lat="42.74666" lon="0.46563">
        <ele>2429.87</ele>
        <time>2015-03-10T08:44:18Z</time>
      </trkpt>
      <trkpt lat="42.7466" lon="0.46574">
        <ele>2432.27</ele>
        <time>2015-03-10T08:44:34Z</time>
      </trkpt>
      <trkpt lat="42.74657" lon="0.4658">
        <ele>2433.71</ele>
        <time>2015-03-10T08:44:46Z</time>
      </trkpt>
      <trkpt lat="42.74653" lon="0.46589">
        <ele>2436.12</ele>
        <time>2015-03-10T08:44:59Z</time>
      </trkpt>
      <trkpt lat="42.74651" lon="0.46594">
        <ele>2437.56</ele>
        <time>2015-03-10T08:45:12Z</time>
      </trkpt>
      <trkpt lat="42.74649" lon="0.4659">
        <ele>2439</ele>
        <time>2015-03-10T08:45:24Z</time>
      </trkpt>
      <trkpt lat="42.74645" lon="0.4658">
        <ele>2440.92</ele>
        <time>2015-03-10T08:45:37Z</time>
      </trkpt>
      <trkpt lat="42.74643" lon="0.46571">
        <ele>2443.33</ele>
        <time>2015-03-10T08:45:52Z</time>
      </trkpt>
      <trkpt lat="42.74639" lon="0.46563">
        <ele>2445.73</ele>
        <time>2015-03-10T08:46:05Z</time>
      </trkpt>
      <trkpt lat="42.74638" lon="0.46563">
        <ele>2446.21</ele>
        <time>2015-03-10T08:46:15Z</time>
      </trkpt>
      <trkpt lat="42.74633" lon="0.46571">
        <ele>2448.13</ele>
        <time>2015-03-10T08:46:28Z</time>
      </trkpt>
      <trkpt lat="42.7463" lon="0.46578">
        <ele>2450.06</ele>
        <time>2015-03-10T08:46:41Z</time>
      </trkpt>
      <trkpt lat="42.74628" lon="0.46586">
        <ele>2451.02</ele>
        <time>2015-03-10T08:46:53Z</time>
      </trkpt>
      <trkpt lat="42.74626" lon="0.46579">
        <ele>2452.46</ele>
        <time>2015-03-10T08:47:04Z</time>
      </trkpt>
      <trkpt lat="42.74623" lon="0.4657">
        <ele>2454.86</ele>
        <time>2015-03-10T08:47:17Z</time>
      </trkpt>
      <trkpt lat="42.74622" lon="0.46563">
        <ele>2456.79</ele>
        <time>2015-03-10T08:47:30Z</time>
      </trkpt>
      <trkpt lat="42.7462" lon="0.46554">
        <ele>2458.71</ele>
        <time>2015-03-10T08:47:43Z</time>
      </trkpt>
      <trkpt lat="42.74619" lon="0.46545">
        <ele>2461.11</ele>
        <time>2015-03-10T08:47:56Z</time>
      </trkpt>
      <trkpt lat="42.74617" lon="0.46536">
        <ele>2463.04</ele>
        <time>2015-03-10T08:48:10Z</time>
      </trkpt>
      <trkpt lat="42.74617" lon="0.4653">
        <ele>2464.48</ele>
        <time>2015-03-10T08:48:22Z</time>
      </trkpt>
      <trkpt lat="42.74616" lon="0.46525">
        <ele>2465.44</ele>
        <time>2015-03-10T08:48:38Z</time>
      </trkpt>
      <trkpt lat="42.74611" lon="0.4653">
        <ele>2466.88</ele>
        <time>2015-03-10T08:48:55Z</time>
      </trkpt>
      <trkpt lat="42.74608" lon="0.46535">
        <ele>2468.8</ele>
        <time>2015-03-10T08:49:06Z</time>
      </trkpt>
      <trkpt lat="42.74604" lon="0.46541">
        <ele>2470.24</ele>
        <time>2015-03-10T08:49:18Z</time>
      </trkpt>
      <trkpt lat="42.74599" lon="0.46549">
        <ele>2471.69</ele>
        <time>2015-03-10T08:49:31Z</time>
      </trkpt>
      <trkpt lat="42.74592" lon="0.46561">
        <ele>2474.09</ele>
        <time>2015-03-10T08:49:49Z</time>
      </trkpt>
      <trkpt lat="42.74589" lon="0.46568">
        <ele>2476.01</ele>
        <time>2015-03-10T08:50:02Z</time>
      </trkpt>
      <trkpt lat="42.74586" lon="0.46576">
        <ele>2477.45</ele>
        <time>2015-03-10T08:50:21Z</time>
      </trkpt>
      <trkpt lat="42.74583" lon="0.46583">
        <ele>2478.9</ele>
        <time>2015-03-10T08:50:32Z</time>
      </trkpt>
      <trkpt lat="42.74579" lon="0.46592">
        <ele>2481.78</ele>
        <time>2015-03-10T08:50:47Z</time>
      </trkpt>
      <trkpt lat="42.74574" lon="0.46605">
        <ele>2483.7</ele>
        <time>2015-03-10T08:51:05Z</time>
      </trkpt>
      <trkpt lat="42.7457" lon="0.46613">
        <ele>2485.63</ele>
        <time>2015-03-10T08:51:19Z</time>
      </trkpt>
      <trkpt lat="42.74567" lon="0.46621">
        <ele>2487.07</ele>
        <time>2015-03-10T08:51:32Z</time>
      </trkpt>
      <trkpt lat="42.74565" lon="0.46629">
        <ele>2488.99</ele>
        <time>2015-03-10T08:51:47Z</time>
      </trkpt>
      <trkpt lat="42.74563" lon="0.46624">
        <ele>2490.43</ele>
        <time>2015-03-10T08:51:57Z</time>
      </trkpt>
      <trkpt lat="42.74561" lon="0.46616">
        <ele>2492.36</ele>
        <time>2015-03-10T08:52:11Z</time>
      </trkpt>
      <trkpt lat="42.74559" lon="0.46611">
        <ele>2494.28</ele>
        <time>2015-03-10T08:52:31Z</time>
      </trkpt>
      <trkpt lat="42.74557" lon="0.46605">
        <ele>2495.72</ele>
        <time>2015-03-10T08:52:40Z</time>
      </trkpt>
      <trkpt lat="42.74555" lon="0.46596">
        <ele>2497.64</ele>
        <time>2015-03-10T08:52:51Z</time>
      </trkpt>
      <trkpt lat="42.74554" lon="0.46596">
        <ele>2497.16</ele>
        <time>2015-03-10T08:52:59Z</time>
      </trkpt>
      <trkpt lat="42.74552" lon="0.466">
        <ele>2498.12</ele>
        <time>2015-03-10T08:53:11Z</time>
      </trkpt>
      <trkpt lat="42.74547" lon="0.46613">
        <ele>2500.05</ele>
        <time>2015-03-10T08:53:27Z</time>
      </trkpt>
      <trkpt lat="42.74544" lon="0.46623">
        <ele>2501.49</ele>
        <time>2015-03-10T08:53:41Z</time>
      </trkpt>
      <trkpt lat="42.7454" lon="0.46636">
        <ele>2503.89</ele>
        <time>2015-03-10T08:53:56Z</time>
      </trkpt>
      <trkpt lat="42.74538" lon="0.46647">
        <ele>2505.33</ele>
        <time>2015-03-10T08:54:11Z</time>
      </trkpt>
      <trkpt lat="42.74538" lon="0.46656">
        <ele>2507.26</ele>
        <time>2015-03-10T08:54:25Z</time>
      </trkpt>
      <trkpt lat="42.74535" lon="0.46666">
        <ele>2508.7</ele>
        <time>2015-03-10T08:54:41Z</time>
      </trkpt>
      <trkpt lat="42.74531" lon="0.46675">
        <ele>2509.66</ele>
        <time>2015-03-10T08:54:55Z</time>
      </trkpt>
      <trkpt lat="42.74528" lon="0.46685">
        <ele>2511.58</ele>
        <time>2015-03-10T08:55:10Z</time>
      </trkpt>
      <trkpt lat="42.74525" lon="0.46694">
        <ele>2513.5</ele>
        <time>2015-03-10T08:55:23Z</time>
      </trkpt>
      <trkpt lat="42.7452" lon="0.46701">
        <ele>2515.43</ele>
        <time>2015-03-10T08:55:39Z</time>
      </trkpt>
      <trkpt lat="42.74514" lon="0.46707">
        <ele>2517.35</ele>
        <time>2015-03-10T08:55:52Z</time>
      </trkpt>
      <trkpt lat="42.74509" lon="0.46715">
        <ele>2519.27</ele>
        <time>2015-03-10T08:56:05Z</time>
      </trkpt>
      <trkpt lat="42.74504" lon="0.46724">
        <ele>2521.19</ele>
        <time>2015-03-10T08:56:19Z</time>
      </trkpt>
      <trkpt lat="42.74499" lon="0.4673">
        <ele>2523.12</ele>
        <time>2015-03-10T08:56:31Z</time>
      </trkpt>
      <trkpt lat="42.74492" lon="0.4674">
        <ele>2525.52</ele>
        <time>2015-03-10T08:56:47Z</time>
      </trkpt>
      <trkpt lat="42.74487" lon="0.46745">
        <ele>2528.4</ele>
        <time>2015-03-10T08:57:01Z</time>
      </trkpt>
      <trkpt lat="42.74486" lon="0.46741">
        <ele>2528.89</ele>
        <time>2015-03-10T08:57:27Z</time>
      </trkpt>
      <trkpt lat="42.74486" lon="0.46739">
        <ele>2529.85</ele>
        <time>2015-03-10T08:57:44Z</time>
      </trkpt>
      <trkpt lat="42.7448" lon="0.46736">
        <ele>2531.29</ele>
        <time>2015-03-10T08:57:56Z</time>
      </trkpt>
      <trkpt lat="42.74473" lon="0.46744">
        <ele>2533.69</ele>
        <time>2015-03-10T08:58:10Z</time>
      </trkpt>
      <trkpt lat="42.74467" lon="0.46753">
        <ele>2535.61</ele>
        <time>2015-03-10T08:58:24Z</time>
      </trkpt>
      <trkpt lat="42.74462" lon="0.46762">
        <ele>2537.54</ele>
        <time>2015-03-10T08:58:37Z</time>
      </trkpt>
      <trkpt lat="42.74456" lon="0.46769">
        <ele>2538.98</ele>
        <time>2015-03-10T08:58:49Z</time>
      </trkpt>
      <trkpt lat="42.74448" lon="0.46775">
        <ele>2541.86</ele>
        <time>2015-03-10T08:59:04Z</time>
      </trkpt>
      <trkpt lat="42.74441" lon="0.46782">
        <ele>2543.31</ele>
        <time>2015-03-10T08:59:17Z</time>
      </trkpt>
      <trkpt lat="42.74434" lon="0.46788">
        <ele>2545.23</ele>
        <time>2015-03-10T08:59:30Z</time>
      </trkpt>
      <trkpt lat="42.74428" lon="0.46794">
        <ele>2547.15</ele>
        <time>2015-03-10T08:59:42Z</time>
      </trkpt>
      <trkpt lat="42.74421" lon="0.468">
        <ele>2549.07</ele>
        <time>2015-03-10T08:59:55Z</time>
      </trkpt>
      <trkpt lat="42.74417" lon="0.46801">
        <ele>2550.03</ele>
        <time>2015-03-10T09:00:01Z</time>
      </trkpt>
      <trkpt lat="42.74415" lon="0.46798">
        <ele>2551.48</ele>
        <time>2015-03-10T09:00:13Z</time>
      </trkpt>
      <trkpt lat="42.74411" lon="0.46788">
        <ele>2553.4</ele>
        <time>2015-03-10T09:00:27Z</time>
      </trkpt>
      <trkpt lat="42.74408" lon="0.46782">
        <ele>2555.8</ele>
        <time>2015-03-10T09:00:40Z</time>
      </trkpt>
      <trkpt lat="42.74405" lon="0.46775">
        <ele>2557.73</ele>
        <time>2015-03-10T09:00:53Z</time>
      </trkpt>
      <trkpt lat="42.74401" lon="0.46768">
        <ele>2559.17</ele>
        <time>2015-03-10T09:01:05Z</time>
      </trkpt>
      <trkpt lat="42.74396" lon="0.46761">
        <ele>2561.09</ele>
        <time>2015-03-10T09:01:18Z</time>
      </trkpt>
      <trkpt lat="42.74392" lon="0.46767">
        <ele>2562.53</ele>
        <time>2015-03-10T09:01:29Z</time>
      </trkpt>
      <trkpt lat="42.74385" lon="0.46779">
        <ele>2565.42</ele>
        <time>2015-03-10T09:01:49Z</time>
      </trkpt>
      <trkpt lat="42.74382" lon="0.46784">
        <ele>2566.86</ele>
        <time>2015-03-10T09:02:01Z</time>
      </trkpt>
      <trkpt lat="42.74381" lon="0.4678">
        <ele>2568.3</ele>
        <time>2015-03-10T09:02:12Z</time>
      </trkpt>
      <trkpt lat="42.74378" lon="0.4677">
        <ele>2570.22</ele>
        <time>2015-03-10T09:02:26Z</time>
      </trkpt>
      <trkpt lat="42.74374" lon="0.4676">
        <ele>2573.11</ele>
        <time>2015-03-10T09:02:42Z</time>
      </trkpt>
      <trkpt lat="42.7437" lon="0.46753">
        <ele>2574.55</ele>
        <time>2015-03-10T09:02:55Z</time>
      </trkpt>
      <trkpt lat="42.74363" lon="0.46758">
        <ele>2577.43</ele>
        <time>2015-03-10T09:03:10Z</time>
      </trkpt>
      <trkpt lat="42.7436" lon="0.46762">
        <ele>2577.91</ele>
        <time>2015-03-10T09:03:21Z</time>
      </trkpt>
      <trkpt lat="42.74358" lon="0.46757">
        <ele>2579.35</ele>
        <time>2015-03-10T09:03:31Z</time>
      </trkpt>
      <trkpt lat="42.74355" lon="0.4675">
        <ele>2581.76</ele>
        <time>2015-03-10T09:03:44Z</time>
      </trkpt>
      <trkpt lat="42.74352" lon="0.4674">
        <ele>2583.68</ele>
        <time>2015-03-10T09:03:59Z</time>
      </trkpt>
      <trkpt lat="42.74348" lon="0.46726">
        <ele>2586.56</ele>
        <time>2015-03-10T09:04:19Z</time>
      </trkpt>
      <trkpt lat="42.74346" lon="0.46716">
        <ele>2588.97</ele>
        <time>2015-03-10T09:04:33Z</time>
      </trkpt>
      <trkpt lat="42.74344" lon="0.46704">
        <ele>2591.37</ele>
        <time>2015-03-10T09:04:52Z</time>
      </trkpt>
      <trkpt lat="42.74342" lon="0.46704">
        <ele>2592.33</ele>
        <time>2015-03-10T09:05:09Z</time>
      </trkpt>
      <trkpt lat="42.74336" lon="0.46709">
        <ele>2593.77</ele>
        <time>2015-03-10T09:05:20Z</time>
      </trkpt>
      <trkpt lat="42.7433" lon="0.46713">
        <ele>2595.7</ele>
        <time>2015-03-10T09:05:35Z</time>
      </trkpt>
      <trkpt lat="42.74321" lon="0.46721">
        <ele>2598.58</ele>
        <time>2015-03-10T09:05:53Z</time>
      </trkpt>
      <trkpt lat="42.74318" lon="0.46726">
        <ele>2599.06</ele>
        <time>2015-03-10T09:06:07Z</time>
      </trkpt>
      <trkpt lat="42.74319" lon="0.46725">
        <ele>2599.54</ele>
        <time>2015-03-10T09:06:27Z</time>
      </trkpt>
      <trkpt lat="42.74316" lon="0.46729">
        <ele>2600.02</ele>
        <time>2015-03-10T09:06:42Z</time>
      </trkpt>
      <trkpt lat="42.7431" lon="0.46736">
        <ele>2601.95</ele>
        <time>2015-03-10T09:06:55Z</time>
      </trkpt>
      <trkpt lat="42.74303" lon="0.46741">
        <ele>2603.87</ele>
        <time>2015-03-10T09:07:07Z</time>
      </trkpt>
      <trkpt lat="42.74295" lon="0.46745">
        <ele>2606.75</ele>
        <time>2015-03-10T09:07:20Z</time>
      </trkpt>
      <trkpt lat="42.74289" lon="0.46752">
        <ele>2609.16</ele>
        <time>2015-03-10T09:07:34Z</time>
      </trkpt>
      <trkpt lat="42.74286" lon="0.46753">
        <ele>2610.12</ele>
        <time>2015-03-10T09:07:52Z</time>
      </trkpt>
      <trkpt lat="42.74279" lon="0.46749">
        <ele>2612.52</ele>
        <time>2015-03-10T09:08:05Z</time>
      </trkpt>
      <trkpt lat="42.74273" lon="0.46749">
        <ele>2614.44</ele>
        <time>2015-03-10T09:08:16Z</time>
      </trkpt>
      <trkpt lat="42.74264" lon="0.46755">
        <ele>2617.33</ele>
        <time>2015-03-10T09:08:31Z</time>
      </trkpt>
      <trkpt lat="42.74257" lon="0.46758">
        <ele>2618.77</ele>
        <time>2015-03-10T09:08:43Z</time>
      </trkpt>
      <trkpt lat="42.7425" lon="0.46759">
        <ele>2620.69</ele>
        <time>2015-03-10T09:08:54Z</time>
      </trkpt>
      <trkpt lat="42.74245" lon="0.46759">
        <ele>2622.61</ele>
        <time>2015-03-10T09:09:07Z</time>
      </trkpt>
      <trkpt lat="42.74238" lon="0.46758">
        <ele>2624.54</ele>
        <time>2015-03-10T09:09:19Z</time>
      </trkpt>
      <trkpt lat="42.74234" lon="0.46758">
        <ele>2625.02</ele>
        <time>2015-03-10T09:09:31Z</time>
      </trkpt>
      <trkpt lat="42.74228" lon="0.46759">
        <ele>2627.42</ele>
        <time>2015-03-10T09:09:45Z</time>
      </trkpt>
      <trkpt lat="42.74226" lon="0.4675">
        <ele>2629.34</ele>
        <time>2015-03-10T09:09:58Z</time>
      </trkpt>
      <trkpt lat="42.74226" lon="0.46738">
        <ele>2631.75</ele>
        <time>2015-03-10T09:10:13Z</time>
      </trkpt>
      <trkpt lat="42.74224" lon="0.46727">
        <ele>2633.67</ele>
        <time>2015-03-10T09:10:28Z</time>
      </trkpt>
      <trkpt lat="42.74224" lon="0.46712">
        <ele>2636.07</ele>
        <time>2015-03-10T09:10:44Z</time>
      </trkpt>
      <trkpt lat="42.74225" lon="0.46701">
        <ele>2638.48</ele>
        <time>2015-03-10T09:10:59Z</time>
      </trkpt>
      <trkpt lat="42.74229" lon="0.46687">
        <ele>2641.36</ele>
        <time>2015-03-10T09:11:18Z</time>
      </trkpt>
      <trkpt lat="42.74232" lon="0.46676">
        <ele>2644.24</ele>
        <time>2015-03-10T09:11:37Z</time>
      </trkpt>
      <trkpt lat="42.74235" lon="0.46668">
        <ele>2646.17</ele>
        <time>2015-03-10T09:11:49Z</time>
      </trkpt>
      <trkpt lat="42.74239" lon="0.46662">
        <ele>2648.57</ele>
        <time>2015-03-10T09:12:01Z</time>
      </trkpt>
      <trkpt lat="42.74244" lon="0.46655">
        <ele>2650.49</ele>
        <time>2015-03-10T09:12:14Z</time>
      </trkpt>
      <trkpt lat="42.74246" lon="0.46651">
        <ele>2652.42</ele>
        <time>2015-03-10T09:12:27Z</time>
      </trkpt>
      <trkpt lat="42.74245" lon="0.4665">
        <ele>2652.9</ele>
        <time>2015-03-10T09:12:36Z</time>
      </trkpt>
      <trkpt lat="42.7424" lon="0.46646">
        <ele>2654.82</ele>
        <time>2015-03-10T09:12:48Z</time>
      </trkpt>
      <trkpt lat="42.74235" lon="0.46641">
        <ele>2656.26</ele>
        <time>2015-03-10T09:13:00Z</time>
      </trkpt>
      <trkpt lat="42.74231" lon="0.46637">
        <ele>2658.66</ele>
        <time>2015-03-10T09:13:12Z</time>
      </trkpt>
      <trkpt lat="42.74228" lon="0.46633">
        <ele>2660.11</ele>
        <time>2015-03-10T09:13:23Z</time>
      </trkpt>
      <trkpt lat="42.74224" lon="0.46629">
        <ele>2661.55</ele>
        <time>2015-03-10T09:13:34Z</time>
      </trkpt>
      <trkpt lat="42.74224" lon="0.46626">
        <ele>2663.47</ele>
        <time>2015-03-10T09:13:47Z</time>
      </trkpt>
      <trkpt lat="42.74228" lon="0.46619">
        <ele>2665.39</ele>
        <time>2015-03-10T09:14:01Z</time>
      </trkpt>
      <trkpt lat="42.74233" lon="0.46615">
        <ele>2667.31</ele>
        <time>2015-03-10T09:14:14Z</time>
      </trkpt>
      <trkpt lat="42.74232" lon="0.4661">
        <ele>2668.28</ele>
        <time>2015-03-10T09:14:30Z</time>
      </trkpt>
      <trkpt lat="42.74229" lon="0.46605">
        <ele>2670.68</ele>
        <time>2015-03-10T09:14:42Z</time>
      </trkpt>
      <trkpt lat="42.74225" lon="0.46599">
        <ele>2673.08</ele>
        <time>2015-03-10T09:14:54Z</time>
      </trkpt>
      <trkpt lat="42.74224" lon="0.46596">
        <ele>2673.56</ele>
        <time>2015-03-10T09:15:05Z</time>
      </trkpt>
      <trkpt lat="42.74223" lon="0.46594">
        <ele>2674.52</ele>
        <time>2015-03-10T09:15:18Z</time>
      </trkpt>
      <trkpt lat="42.74226" lon="0.4659">
        <ele>2676.45</ele>
        <time>2015-03-10T09:15:38Z</time>
      </trkpt>
      <trkpt lat="42.74227" lon="0.46583">
        <ele>2677.89</ele>
        <time>2015-03-10T09:15:48Z</time>
      </trkpt>
      <trkpt lat="42.74224" lon="0.46573">
        <ele>2680.29</ele>
        <time>2015-03-10T09:16:02Z</time>
      </trkpt>
      <trkpt lat="42.74221" lon="0.46567">
        <ele>2682.22</ele>
        <time>2015-03-10T09:16:17Z</time>
      </trkpt>
      <trkpt lat="42.74221" lon="0.46558">
        <ele>2685.1</ele>
        <time>2015-03-10T09:16:31Z</time>
      </trkpt>
      <trkpt lat="42.74219" lon="0.46551">
        <ele>2686.54</ele>
        <time>2015-03-10T09:16:47Z</time>
      </trkpt>
      <trkpt lat="42.74213" lon="0.46546">
        <ele>2688.46</ele>
        <time>2015-03-10T09:17:00Z</time>
      </trkpt>
      <trkpt lat="42.74211" lon="0.46546">
        <ele>2689.43</ele>
        <time>2015-03-10T09:17:11Z</time>
      </trkpt>
      <trkpt lat="42.74208" lon="0.46541">
        <ele>2690.39</ele>
        <time>2015-03-10T09:17:25Z</time>
      </trkpt>
      <trkpt lat="42.74205" lon="0.46532">
        <ele>2692.79</ele>
        <time>2015-03-10T09:17:39Z</time>
      </trkpt>
      <trkpt lat="42.74205" lon="0.46524">
        <ele>2695.19</ele>
        <time>2015-03-10T09:17:52Z</time>
      </trkpt>
      <trkpt lat="42.74201" lon="0.46514">
        <ele>2697.6</ele>
        <time>2015-03-10T09:18:11Z</time>
      </trkpt>
      <trkpt lat="42.74199" lon="0.46508">
        <ele>2699.52</ele>
        <time>2015-03-10T09:18:25Z</time>
      </trkpt>
      <trkpt lat="42.74199" lon="0.46502">
        <ele>2700.96</ele>
        <time>2015-03-10T09:18:39Z</time>
      </trkpt>
      <trkpt lat="42.74203" lon="0.46494">
        <ele>2703.36</ele>
        <time>2015-03-10T09:18:53Z</time>
      </trkpt>
      <trkpt lat="42.74213" lon="0.46494">
        <ele>2705.29</ele>
        <time>2015-03-10T09:19:09Z</time>
      </trkpt>
      <trkpt lat="42.74221" lon="0.46498">
        <ele>2707.21</ele>
        <time>2015-03-10T09:19:26Z</time>
      </trkpt>
      <trkpt lat="42.74224" lon="0.46499">
        <ele>2707.69</ele>
        <time>2015-03-10T09:19:38Z</time>
      </trkpt>
      <trkpt lat="42.74225" lon="0.465">
        <ele>2708.17</ele>
        <time>2015-03-10T09:19:53Z</time>
      </trkpt>
      <trkpt lat="42.74226" lon="0.465">
        <ele>2708.17</ele>
        <time>2015-03-10T09:20:14Z</time>
      </trkpt>
      <trkpt lat="42.7423" lon="0.46503">
        <ele>2708.65</ele>
        <time>2015-03-10T09:20:27Z</time>
      </trkpt>
      <trkpt lat="42.74232" lon="0.46509">
        <ele>2709.13</ele>
        <time>2015-03-10T09:20:43Z</time>
      </trkpt>
      <trkpt lat="42.74234" lon="0.46512">
        <ele>2710.09</ele>
        <time>2015-03-10T09:20:59Z</time>
      </trkpt>
      <trkpt lat="42.74234" lon="0.46511">
        <ele>2709.61</ele>
        <time>2015-03-10T09:21:15Z</time>
      </trkpt>
      <trkpt lat="42.74233" lon="0.46511">
        <ele>2709.13</ele>
        <time>2015-03-10T09:21:30Z</time>
      </trkpt>
      <trkpt lat="42.74234" lon="0.46511">
        <ele>2709.61</ele>
        <time>2015-03-10T09:21:46Z</time>
      </trkpt>
      <trkpt lat="42.74236" lon="0.46512">
        <ele>2710.09</ele>
        <time>2015-03-10T09:21:59Z</time>
      </trkpt>
      <trkpt lat="42.74236" lon="0.46513">
        <ele>2710.57</ele>
        <time>2015-03-10T09:22:19Z</time>
      </trkpt>
      <trkpt lat="42.74239" lon="0.46513">
        <ele>2710.57</ele>
        <time>2015-03-10T09:22:39Z</time>
      </trkpt>
      <trkpt lat="42.74239" lon="0.46513">
        <ele>2710.09</ele>
        <time>2015-03-10T09:22:58Z</time>
      </trkpt>
      <trkpt lat="42.7424" lon="0.46511">
        <ele>2710.09</ele>
        <time>2015-03-10T09:23:17Z</time>
      </trkpt>
      <trkpt lat="42.74238" lon="0.46513">
        <ele>2710.57</ele>
        <time>2015-03-10T09:23:46Z</time>
      </trkpt>
      <trkpt lat="42.74236" lon="0.46514">
        <ele>2710.57</ele>
        <time>2015-03-10T09:24:11Z</time>
      </trkpt>
      <trkpt lat="42.74237" lon="0.46516">
        <ele>2711.06</ele>
        <time>2015-03-10T09:24:25Z</time>
      </trkpt>
      <trkpt lat="42.74237" lon="0.46516">
        <ele>2711.06</ele>
        <time>2015-03-10T09:24:37Z</time>
      </trkpt>
      <trkpt lat="42.74238" lon="0.46518">
        <ele>2710.57</ele>
        <time>2015-03-10T09:24:50Z</time>
      </trkpt>
      <trkpt lat="42.74238" lon="0.4652">
        <ele>2711.06</ele>
        <time>2015-03-10T09:25:03Z</time>
      </trkpt>
      <trkpt lat="42.74239" lon="0.46522">
        <ele>2710.57</ele>
        <time>2015-03-10T09:25:16Z</time>
      </trkpt>
      <trkpt lat="42.74241" lon="0.46523">
        <ele>2711.06</ele>
        <time>2015-03-10T09:25:29Z</time>
      </trkpt>
      <trkpt lat="42.74243" lon="0.46526">
        <ele>2711.54</ele>
        <time>2015-03-10T09:25:41Z</time>
      </trkpt>
      <trkpt lat="42.74245" lon="0.46526">
        <ele>2712.02</ele>
        <time>2015-03-10T09:25:59Z</time>
      </trkpt>
      <trkpt lat="42.74245" lon="0.46527">
        <ele>2712.98</ele>
        <time>2015-03-10T09:26:12Z</time>
      </trkpt>
      <trkpt lat="42.74247" lon="0.46528">
        <ele>2713.46</ele>
        <time>2015-03-10T09:26:25Z</time>
      </trkpt>
      <trkpt lat="42.7425" lon="0.46531">
        <ele>2713.94</ele>
        <time>2015-03-10T09:26:41Z</time>
      </trkpt>
      <trkpt lat="42.7425" lon="0.46531">
        <ele>2715.38</ele>
        <time>2015-03-10T09:26:55Z</time>
      </trkpt>
      <trkpt lat="42.74252" lon="0.46532">
        <ele>2715.86</ele>
        <time>2015-03-10T09:27:09Z</time>
      </trkpt>
      <trkpt lat="42.74254" lon="0.46533">
        <ele>2716.82</ele>
        <time>2015-03-10T09:27:21Z</time>
      </trkpt>
      <trkpt lat="42.74256" lon="0.46533">
        <ele>2718.27</ele>
        <time>2015-03-10T09:27:38Z</time>
      </trkpt>
      <trkpt lat="42.74258" lon="0.46533">
        <ele>2719.71</ele>
        <time>2015-03-10T09:27:50Z</time>
      </trkpt>
      <trkpt lat="42.74262" lon="0.46533">
        <ele>2721.15</ele>
        <time>2015-03-10T09:28:04Z</time>
      </trkpt>
      <trkpt lat="42.74265" lon="0.46532">
        <ele>2723.07</ele>
        <time>2015-03-10T09:28:17Z</time>
      </trkpt>
      <trkpt lat="42.74268" lon="0.46532">
        <ele>2724.51</ele>
        <time>2015-03-10T09:28:33Z</time>
      </trkpt>
      <trkpt lat="42.74269" lon="0.4653">
        <ele>2726.44</ele>
        <time>2015-03-10T09:28:47Z</time>
      </trkpt>
      <trkpt lat="42.74272" lon="0.4653">
        <ele>2727.88</ele>
        <time>2015-03-10T09:29:06Z</time>
      </trkpt>
      <trkpt lat="42.74277" lon="0.46529">
        <ele>2729.32</ele>
        <time>2015-03-10T09:29:19Z</time>
      </trkpt>
      <trkpt lat="42.74277" lon="0.46527">
        <ele>2727.4</ele>
        <time>2015-03-10T09:29:36Z</time>
      </trkpt>
      <trkpt lat="42.74278" lon="0.46527">
        <ele>2728.84</ele>
        <time>2015-03-10T09:29:50Z</time>
      </trkpt>
      <trkpt lat="42.74278" lon="0.46527">
        <ele>2729.8</ele>
        <time>2015-03-10T09:30:05Z</time>
      </trkpt>
      <trkpt lat="42.74281" lon="0.46527">
        <ele>2730.28</ele>
        <time>2015-03-10T09:30:17Z</time>
      </trkpt>
      <trkpt lat="42.74282" lon="0.46526">
        <ele>2730.76</ele>
        <time>2015-03-10T09:30:34Z</time>
      </trkpt>
      <trkpt lat="42.74284" lon="0.46521">
        <ele>2732.2</ele>
        <time>2015-03-10T09:30:44Z</time>
      </trkpt>
      <trkpt lat="42.74279" lon="0.46512">
        <ele>2734.61</ele>
        <time>2015-03-10T09:30:57Z</time>
      </trkpt>
      <trkpt lat="42.74277" lon="0.46509">
        <ele>2735.57</ele>
        <time>2015-03-10T09:31:11Z</time>
      </trkpt>
      <trkpt lat="42.74273" lon="0.46502">
        <ele>2737.97</ele>
        <time>2015-03-10T09:31:26Z</time>
      </trkpt>
      <trkpt lat="42.74269" lon="0.46495">
        <ele>2740.38</ele>
        <time>2015-03-10T09:31:39Z</time>
      </trkpt>
      <trkpt lat="42.74265" lon="0.46487">
        <ele>2742.3</ele>
        <time>2015-03-10T09:31:54Z</time>
      </trkpt>
      <trkpt lat="42.74263" lon="0.46481">
        <ele>2745.18</ele>
        <time>2015-03-10T09:32:06Z</time>
      </trkpt>
      <trkpt lat="42.7426" lon="0.46474">
        <ele>2746.62</ele>
        <time>2015-03-10T09:32:20Z</time>
      </trkpt>
      <trkpt lat="42.74258" lon="0.46468">
        <ele>2748.07</ele>
        <time>2015-03-10T09:32:35Z</time>
      </trkpt>
      <trkpt lat="42.74258" lon="0.46463">
        <ele>2749.51</ele>
        <time>2015-03-10T09:32:48Z</time>
      </trkpt>
      <trkpt lat="42.74264" lon="0.46464">
        <ele>2751.43</ele>
        <time>2015-03-10T09:32:58Z</time>
      </trkpt>
      <trkpt lat="42.74272" lon="0.46464">
        <ele>2754.31</ele>
        <time>2015-03-10T09:33:12Z</time>
      </trkpt>
      <trkpt lat="42.7428" lon="0.46464">
        <ele>2756.72</ele>
        <time>2015-03-10T09:33:27Z</time>
      </trkpt>
      <trkpt lat="42.74287" lon="0.46463">
        <ele>2758.64</ele>
        <time>2015-03-10T09:33:41Z</time>
      </trkpt>
      <trkpt lat="42.74296" lon="0.46462">
        <ele>2761.04</ele>
        <time>2015-03-10T09:33:54Z</time>
      </trkpt>
      <trkpt lat="42.74302" lon="0.46462">
        <ele>2762.97</ele>
        <time>2015-03-10T09:34:07Z</time>
      </trkpt>
      <trkpt lat="42.74309" lon="0.46461">
        <ele>2764.89</ele>
        <time>2015-03-10T09:34:22Z</time>
      </trkpt>
      <trkpt lat="42.74308" lon="0.4646">
        <ele>2764.89</ele>
        <time>2015-03-10T09:34:33Z</time>
      </trkpt>
      <trkpt lat="42.74305" lon="0.46455">
        <ele>2766.81</ele>
        <time>2015-03-10T09:34:46Z</time>
      </trkpt>
      <trkpt lat="42.74302" lon="0.46452">
        <ele>2767.77</ele>
        <time>2015-03-10T09:34:58Z</time>
      </trkpt>
      <trkpt lat="42.743" lon="0.46448">
        <ele>2769.21</ele>
        <time>2015-03-10T09:35:11Z</time>
      </trkpt>
      <trkpt lat="42.74296" lon="0.46441">
        <ele>2771.62</ele>
        <time>2015-03-10T09:35:23Z</time>
      </trkpt>
      <trkpt lat="42.74291" lon="0.46434">
        <ele>2774.02</ele>
        <time>2015-03-10T09:35:37Z</time>
      </trkpt>
      <trkpt lat="42.74288" lon="0.46429">
        <ele>2775.94</ele>
        <time>2015-03-10T09:35:50Z</time>
      </trkpt>
      <trkpt lat="42.74285" lon="0.46422">
        <ele>2777.39</ele>
        <time>2015-03-10T09:36:05Z</time>
      </trkpt>
      <trkpt lat="42.74283" lon="0.46417">
        <ele>2779.31</ele>
        <time>2015-03-10T09:36:18Z</time>
      </trkpt>
      <trkpt lat="42.74282" lon="0.46413">
        <ele>2780.75</ele>
        <time>2015-03-10T09:36:32Z</time>
      </trkpt>
      <trkpt lat="42.74284" lon="0.46413">
        <ele>2782.19</ele>
        <time>2015-03-10T09:36:43Z</time>
      </trkpt>
      <trkpt lat="42.74292" lon="0.46413">
        <ele>2784.6</ele>
        <time>2015-03-10T09:36:59Z</time>
      </trkpt>
      <trkpt lat="42.74298" lon="0.46413">
        <ele>2787</ele>
        <time>2015-03-10T09:37:12Z</time>
      </trkpt>
      <trkpt lat="42.743" lon="0.46414">
        <ele>2787</ele>
        <time>2015-03-10T09:37:27Z</time>
      </trkpt>
      <trkpt lat="42.74297" lon="0.46407">
        <ele>2788.44</ele>
        <time>2015-03-10T09:37:41Z</time>
      </trkpt>
      <trkpt lat="42.74294" lon="0.46401">
        <ele>2790.84</ele>
        <time>2015-03-10T09:37:53Z</time>
      </trkpt>
      <trkpt lat="42.74293" lon="0.46398">
        <ele>2791.81</ele>
        <time>2015-03-10T09:38:10Z</time>
      </trkpt>
      <trkpt lat="42.74289" lon="0.4639">
        <ele>2793.73</ele>
        <time>2015-03-10T09:38:22Z</time>
      </trkpt>
      <trkpt lat="42.74286" lon="0.46382">
        <ele>2795.65</ele>
        <time>2015-03-10T09:38:35Z</time>
      </trkpt>
      <trkpt lat="42.74284" lon="0.46377">
        <ele>2797.57</ele>
        <time>2015-03-10T09:38:49Z</time>
      </trkpt>
      <trkpt lat="42.74281" lon="0.46371">
        <ele>2799.02</ele>
        <time>2015-03-10T09:39:01Z</time>
      </trkpt>
      <trkpt lat="42.74279" lon="0.46363">
        <ele>2800.46</ele>
        <time>2015-03-10T09:39:11Z</time>
      </trkpt>
      <trkpt lat="42.74278" lon="0.46359">
        <ele>2801.42</ele>
        <time>2015-03-10T09:39:23Z</time>
      </trkpt>
      <trkpt lat="42.74278" lon="0.46357">
        <ele>2803.34</ele>
        <time>2015-03-10T09:39:35Z</time>
      </trkpt>
      <trkpt lat="42.74286" lon="0.46361">
        <ele>2804.78</ele>
        <time>2015-03-10T09:39:47Z</time>
      </trkpt>
      <trkpt lat="42.7429" lon="0.46362">
        <ele>2806.23</ele>
        <time>2015-03-10T09:40:01Z</time>
      </trkpt>
      <trkpt lat="42.74295" lon="0.46363">
        <ele>2808.63</ele>
        <time>2015-03-10T09:40:20Z</time>
      </trkpt>
      <trkpt lat="42.74303" lon="0.46365">
        <ele>2811.51</ele>
        <time>2015-03-10T09:40:35Z</time>
      </trkpt>
      <trkpt lat="42.74309" lon="0.46365">
        <ele>2813.44</ele>
        <time>2015-03-10T09:40:49Z</time>
      </trkpt>
      <trkpt lat="42.74314" lon="0.46365">
        <ele>2814.88</ele>
        <time>2015-03-10T09:41:04Z</time>
      </trkpt>
      <trkpt lat="42.74309" lon="0.46357">
        <ele>2815.84</ele>
        <time>2015-03-10T09:41:15Z</time>
      </trkpt>
      <trkpt lat="42.74306" lon="0.46351">
        <ele>2817.76</ele>
        <time>2015-03-10T09:41:27Z</time>
      </trkpt>
      <trkpt lat="42.74304" lon="0.46348">
        <ele>2818.72</ele>
        <time>2015-03-10T09:41:39Z</time>
      </trkpt>
      <trkpt lat="42.74303" lon="0.46345">
        <ele>2819.2</ele>
        <time>2015-03-10T09:41:53Z</time>
      </trkpt>
      <trkpt lat="42.74302" lon="0.46343">
        <ele>2819.68</ele>
        <time>2015-03-10T09:42:09Z</time>
      </trkpt>
      <trkpt lat="42.74299" lon="0.46336">
        <ele>2822.09</ele>
        <time>2015-03-10T09:42:22Z</time>
      </trkpt>
      <trkpt lat="42.74301" lon="0.46335">
        <ele>2823.05</ele>
        <time>2015-03-10T09:42:45Z</time>
      </trkpt>
      <trkpt lat="42.74309" lon="0.46339">
        <ele>2825.93</ele>
        <time>2015-03-10T09:42:56Z</time>
      </trkpt>
      <trkpt lat="42.7431" lon="0.46338">
        <ele>2826.89</ele>
        <time>2015-03-10T09:43:01Z</time>
      </trkpt>
      <trkpt lat="42.74311" lon="0.46335">
        <ele>2827.85</ele>
        <time>2015-03-10T09:43:14Z</time>
      </trkpt>
      <trkpt lat="42.74307" lon="0.46329">
        <ele>2829.3</ele>
        <time>2015-03-10T09:43:29Z</time>
      </trkpt>
      <trkpt lat="42.74306" lon="0.46329">
        <ele>2829.3</ele>
        <time>2015-03-10T09:43:54Z</time>
      </trkpt>
      <trkpt lat="42.74307" lon="0.4633">
        <ele>2828.34</ele>
        <time>2015-03-10T09:44:07Z</time>
      </trkpt>
      <trkpt lat="42.74309" lon="0.46324">
        <ele>2831.7</ele>
        <time>2015-03-10T09:44:21Z</time>
      </trkpt>
      <trkpt lat="42.74308" lon="0.46317">
        <ele>2834.58</ele>
        <time>2015-03-10T09:44:35Z</time>
      </trkpt>
      <trkpt lat="42.74309" lon="0.46311">
        <ele>2836.99</ele>
        <time>2015-03-10T09:44:50Z</time>
      </trkpt>
      <trkpt lat="42.74308" lon="0.46307">
        <ele>2839.87</ele>
        <time>2015-03-10T09:45:04Z</time>
      </trkpt>
      <trkpt lat="42.7431" lon="0.46303">
        <ele>2839.87</ele>
        <time>2015-03-10T09:45:18Z</time>
      </trkpt>
      <trkpt lat="42.7431" lon="0.463">
        <ele>2841.31</ele>
        <time>2015-03-10T09:45:40Z</time>
      </trkpt>
      <trkpt lat="42.74314" lon="0.46298">
        <ele>2844.68</ele>
        <time>2015-03-10T09:45:54Z</time>
      </trkpt>
      <trkpt lat="42.7432" lon="0.46297">
        <ele>2845.64</ele>
        <time>2015-03-10T09:46:07Z</time>
      </trkpt>
      <trkpt lat="42.74324" lon="0.46297">
        <ele>2845.16</ele>
        <time>2015-03-10T09:46:21Z</time>
      </trkpt>
      <trkpt lat="42.74323" lon="0.46297">
        <ele>2843.72</ele>
        <time>2015-03-10T09:46:37Z</time>
      </trkpt>
      <trkpt lat="42.74322" lon="0.46296">
        <ele>2843.72</ele>
        <time>2015-03-10T09:47:08Z</time>
      </trkpt>
      <trkpt lat="42.74322" lon="0.46296">
        <ele>2843.72</ele>
        <time>2015-03-10T09:47:29Z</time>
      </trkpt>
      <trkpt lat="42.74322" lon="0.46297">
        <ele>2843.72</ele>
        <time>2015-03-10T09:48:10Z</time>
      </trkpt>
      <trkpt lat="42.74322" lon="0.46297">
        <ele>2844.2</ele>
        <time>2015-03-10T09:48:53Z</time>
      </trkpt>
      <trkpt lat="42.74323" lon="0.46294">
        <ele>2844.2</ele>
        <time>2015-03-10T09:49:47Z</time>
      </trkpt>
      <trkpt lat="42.74324" lon="0.46296">
        <ele>2844.2</ele>
        <time>2015-03-10T09:50:37Z</time>
      </trkpt>
      <trkpt lat="42.74322" lon="0.46295">
        <ele>2844.68</ele>
        <time>2015-03-10T09:51:18Z</time>
      </trkpt>
      <trkpt lat="42.74322" lon="0.46295">
        <ele>2844.68</ele>
        <time>2015-03-10T09:51:59Z</time>
      </trkpt>
      <trkpt lat="42.74322" lon="0.46295">
        <ele>2844.68</ele>
        <time>2015-03-10T09:52:43Z</time>
      </trkpt>
      <trkpt lat="42.74322" lon="0.46297">
        <ele>2846.6</ele>
        <time>2015-03-10T09:53:21Z</time>
      </trkpt>
      <trkpt lat="42.74314" lon="0.46296">
        <ele>2845.16</ele>
        <time>2015-03-10T09:53:36Z</time>
      </trkpt>
      <trkpt lat="42.7431" lon="0.46292">
        <ele>2841.79</ele>
        <time>2015-03-10T09:53:55Z</time>
      </trkpt>
      <trkpt lat="42.74295" lon="0.46278">
        <ele>2841.31</ele>
        <time>2015-03-10T09:54:16Z</time>
      </trkpt>
      <trkpt lat="42.7429" lon="0.46272">
        <ele>2841.79</ele>
        <time>2015-03-10T09:54:34Z</time>
      </trkpt>
      <trkpt lat="42.74291" lon="0.46268">
        <ele>2840.83</ele>
        <time>2015-03-10T09:54:59Z</time>
      </trkpt>
      <trkpt lat="42.74284" lon="0.46265">
        <ele>2840.83</ele>
        <time>2015-03-10T09:55:24Z</time>
      </trkpt>
      <trkpt lat="42.74274" lon="0.4625">
        <ele>2842.76</ele>
        <time>2015-03-10T09:55:44Z</time>
      </trkpt>
      <trkpt lat="42.7427" lon="0.46241">
        <ele>2844.68</ele>
        <time>2015-03-10T09:56:00Z</time>
      </trkpt>
      <trkpt lat="42.74265" lon="0.46238">
        <ele>2845.64</ele>
        <time>2015-03-10T09:56:16Z</time>
      </trkpt>
      <trkpt lat="42.74264" lon="0.46237">
        <ele>2845.64</ele>
        <time>2015-03-10T09:56:37Z</time>
      </trkpt>
      <trkpt lat="42.74264" lon="0.46234">
        <ele>2846.6</ele>
        <time>2015-03-10T09:57:02Z</time>
      </trkpt>
      <trkpt lat="42.74264" lon="0.46236">
        <ele>2846.6</ele>
        <time>2015-03-10T09:57:37Z</time>
      </trkpt>
      <trkpt lat="42.74265" lon="0.46235">
        <ele>2846.12</ele>
        <time>2015-03-10T09:58:04Z</time>
      </trkpt>
      <trkpt lat="42.74269" lon="0.46237">
        <ele>2845.64</ele>
        <time>2015-03-10T09:58:21Z</time>
      </trkpt>
      <trkpt lat="42.74272" lon="0.46242">
        <ele>2843.72</ele>
        <time>2015-03-10T09:58:36Z</time>
      </trkpt>
      <trkpt lat="42.74276" lon="0.46251">
        <ele>2841.31</ele>
        <time>2015-03-10T09:58:46Z</time>
      </trkpt>
      <trkpt lat="42.74278" lon="0.46255">
        <ele>2840.83</ele>
        <time>2015-03-10T09:58:49Z</time>
      </trkpt>
      <trkpt lat="42.74288" lon="0.46266">
        <ele>2841.79</ele>
        <time>2015-03-10T09:59:06Z</time>
      </trkpt>
      <trkpt lat="42.743" lon="0.46281">
        <ele>2841.79</ele>
        <time>2015-03-10T09:59:24Z</time>
      </trkpt>
      <trkpt lat="42.74307" lon="0.46291">
        <ele>2842.28</ele>
        <time>2015-03-10T09:59:38Z</time>
      </trkpt>
      <trkpt lat="42.74307" lon="0.46297">
        <ele>2843.24</ele>
        <time>2015-03-10T09:59:43Z</time>
      </trkpt>
      <trkpt lat="42.74312" lon="0.46302">
        <ele>2842.28</ele>
        <time>2015-03-10T09:59:57Z</time>
      </trkpt>
      <trkpt lat="42.74312" lon="0.46302">
        <ele>2842.76</ele>
        <time>2015-03-10T09:59:58Z</time>
      </trkpt>
      <trkpt lat="42.74313" lon="0.46302">
        <ele>2840.83</ele>
        <time>2015-03-10T10:00:01Z</time>
      </trkpt>
      <trkpt lat="42.74312" lon="0.46303">
        <ele>2835.55</ele>
        <time>2015-03-10T10:00:05Z</time>
      </trkpt>
      <trkpt lat="42.74311" lon="0.46303">
        <ele>2841.79</ele>
        <time>2015-03-10T10:00:06Z</time>
      </trkpt>
      <trkpt lat="42.74311" lon="0.46303">
        <ele>2839.87</ele>
        <time>2015-03-10T10:00:10Z</time>
      </trkpt>
      <trkpt lat="42.74312" lon="0.46306">
        <ele>2840.35</ele>
        <time>2015-03-10T10:00:39Z</time>
      </trkpt>
      <trkpt lat="42.74311" lon="0.46304">
        <ele>2840.35</ele>
        <time>2015-03-10T10:01:06Z</time>
      </trkpt>
      <trkpt lat="42.7431" lon="0.46302">
        <ele>2840.83</ele>
        <time>2015-03-10T10:01:35Z</time>
      </trkpt>
      <trkpt lat="42.74308" lon="0.46303">
        <ele>2841.31</ele>
        <time>2015-03-10T10:02:07Z</time>
      </trkpt>
      <trkpt lat="42.74306" lon="0.46299">
        <ele>2841.79</ele>
        <time>2015-03-10T10:02:41Z</time>
      </trkpt>
      <trkpt lat="42.74304" lon="0.46299">
        <ele>2841.79</ele>
        <time>2015-03-10T10:03:08Z</time>
      </trkpt>
      <trkpt lat="42.74305" lon="0.46299">
        <ele>2841.79</ele>
        <time>2015-03-10T10:03:38Z</time>
      </trkpt>
      <trkpt lat="42.74308" lon="0.46299">
        <ele>2841.31</ele>
        <time>2015-03-10T10:04:06Z</time>
      </trkpt>
      <trkpt lat="42.74308" lon="0.46299">
        <ele>2841.79</ele>
        <time>2015-03-10T10:04:32Z</time>
      </trkpt>
      <trkpt lat="42.74306" lon="0.463">
        <ele>2841.79</ele>
        <time>2015-03-10T10:05:02Z</time>
      </trkpt>
      <trkpt lat="42.74308" lon="0.46299">
        <ele>2841.79</ele>
        <time>2015-03-10T10:05:27Z</time>
      </trkpt>
      <trkpt lat="42.74307" lon="0.46297">
        <ele>2841.79</ele>
        <time>2015-03-10T10:05:53Z</time>
      </trkpt>
      <trkpt lat="42.74308" lon="0.46303">
        <ele>2843.24</ele>
        <time>2015-03-10T10:06:20Z</time>
      </trkpt>
      <trkpt lat="42.74307" lon="0.463">
        <ele>2843.72</ele>
        <time>2015-03-10T10:06:36Z</time>
      </trkpt>
      <trkpt lat="42.74308" lon="0.46302">
        <ele>2844.2</ele>
        <time>2015-03-10T10:06:49Z</time>
      </trkpt>
      <trkpt lat="42.7431" lon="0.46301">
        <ele>2844.2</ele>
        <time>2015-03-10T10:06:59Z</time>
      </trkpt>
      <trkpt lat="42.74309" lon="0.46302">
        <ele>2844.68</ele>
        <time>2015-03-10T10:07:10Z</time>
      </trkpt>
      <trkpt lat="42.74309" lon="0.46302">
        <ele>2843.72</ele>
        <time>2015-03-10T10:07:24Z</time>
      </trkpt>
      <trkpt lat="42.74308" lon="0.463">
        <ele>2843.72</ele>
        <time>2015-03-10T10:07:46Z</time>
      </trkpt>
      <trkpt lat="42.74295" lon="0.46289">
        <ele>2839.39</ele>
        <time>2015-03-10T10:07:52Z</time>
      </trkpt>
      <trkpt lat="42.74286" lon="0.46293">
        <ele>2834.58</ele>
        <time>2015-03-10T10:07:55Z</time>
      </trkpt>
      <trkpt lat="42.7428" lon="0.46296">
        <ele>2831.22</ele>
        <time>2015-03-10T10:07:57Z</time>
      </trkpt>
      <trkpt lat="42.74277" lon="0.463">
        <ele>2827.85</ele>
        <time>2015-03-10T10:07:58Z</time>
      </trkpt>
      <trkpt lat="42.7427" lon="0.46304">
        <ele>2823.53</ele>
        <time>2015-03-10T10:08:00Z</time>
      </trkpt>
      <trkpt lat="42.74263" lon="0.4631">
        <ele>2817.28</ele>
        <time>2015-03-10T10:08:02Z</time>
      </trkpt>
      <trkpt lat="42.74257" lon="0.46317">
        <ele>2812.47</ele>
        <time>2015-03-10T10:08:04Z</time>
      </trkpt>
      <trkpt lat="42.74254" lon="0.46321">
        <ele>2807.67</ele>
        <time>2015-03-10T10:08:05Z</time>
      </trkpt>
      <trkpt lat="42.74249" lon="0.46327">
        <ele>2802.86</ele>
        <time>2015-03-10T10:08:07Z</time>
      </trkpt>
      <trkpt lat="42.74245" lon="0.46335">
        <ele>2796.61</ele>
        <time>2015-03-10T10:08:09Z</time>
      </trkpt>
      <trkpt lat="42.74241" lon="0.46342">
        <ele>2791.81</ele>
        <time>2015-03-10T10:08:11Z</time>
      </trkpt>
      <trkpt lat="42.74238" lon="0.46345">
        <ele>2788.44</ele>
        <time>2015-03-10T10:08:12Z</time>
      </trkpt>
      <trkpt lat="42.74233" lon="0.46351">
        <ele>2784.6</ele>
        <time>2015-03-10T10:08:14Z</time>
      </trkpt>
      <trkpt lat="42.74231" lon="0.46354">
        <ele>2780.75</ele>
        <time>2015-03-10T10:08:15Z</time>
      </trkpt>
      <trkpt lat="42.74226" lon="0.46359">
        <ele>2775.94</ele>
        <time>2015-03-10T10:08:17Z</time>
      </trkpt>
      <trkpt lat="42.74224" lon="0.46362">
        <ele>2772.1</ele>
        <time>2015-03-10T10:08:18Z</time>
      </trkpt>
      <trkpt lat="42.74216" lon="0.46365">
        <ele>2767.29</ele>
        <time>2015-03-10T10:08:20Z</time>
      </trkpt>
      <trkpt lat="42.7421" lon="0.46371">
        <ele>2761.04</ele>
        <time>2015-03-10T10:08:22Z</time>
      </trkpt>
      <trkpt lat="42.74204" lon="0.46378">
        <ele>2755.76</ele>
        <time>2015-03-10T10:08:24Z</time>
      </trkpt>
      <trkpt lat="42.742" lon="0.46382">
        <ele>2751.91</ele>
        <time>2015-03-10T10:08:25Z</time>
      </trkpt>
      <trkpt lat="42.74194" lon="0.46389">
        <ele>2747.1</ele>
        <time>2015-03-10T10:08:27Z</time>
      </trkpt>
      <trkpt lat="42.74191" lon="0.46392">
        <ele>2742.78</ele>
        <time>2015-03-10T10:08:28Z</time>
      </trkpt>
      <trkpt lat="42.7418" lon="0.46399">
        <ele>2734.13</ele>
        <time>2015-03-10T10:08:31Z</time>
      </trkpt>
      <trkpt lat="42.74176" lon="0.46403">
        <ele>2730.28</ele>
        <time>2015-03-10T10:08:32Z</time>
      </trkpt>
      <trkpt lat="42.7417" lon="0.46417">
        <ele>2724.99</ele>
        <time>2015-03-10T10:08:34Z</time>
      </trkpt>
      <trkpt lat="42.74164" lon="0.46424">
        <ele>2719.71</ele>
        <time>2015-03-10T10:08:35Z</time>
      </trkpt>
      <trkpt lat="42.74153" lon="0.46442">
        <ele>2714.9</ele>
        <time>2015-03-10T10:08:37Z</time>
      </trkpt>
      <trkpt lat="42.74148" lon="0.46451">
        <ele>2710.57</ele>
        <time>2015-03-10T10:08:38Z</time>
      </trkpt>
      <trkpt lat="42.74131" lon="0.4648">
        <ele>2705.29</ele>
        <time>2015-03-10T10:08:41Z</time>
      </trkpt>
      <trkpt lat="42.74116" lon="0.46509">
        <ele>2703.36</ele>
        <time>2015-03-10T10:08:44Z</time>
      </trkpt>
      <trkpt lat="42.74109" lon="0.46525">
        <ele>2702.88</ele>
        <time>2015-03-10T10:08:50Z</time>
      </trkpt>
      <trkpt lat="42.74113" lon="0.46519">
        <ele>2702.88</ele>
        <time>2015-03-10T10:09:03Z</time>
      </trkpt>
      <trkpt lat="42.74115" lon="0.46518">
        <ele>2702.4</ele>
        <time>2015-03-10T10:09:30Z</time>
      </trkpt>
      <trkpt lat="42.74115" lon="0.46517">
        <ele>2702.4</ele>
        <time>2015-03-10T10:09:49Z</time>
      </trkpt>
      <trkpt lat="42.74116" lon="0.46517">
        <ele>2701.92</ele>
        <time>2015-03-10T10:10:14Z</time>
      </trkpt>
      <trkpt lat="42.74116" lon="0.46516">
        <ele>2700.48</ele>
        <time>2015-03-10T10:10:26Z</time>
      </trkpt>
      <trkpt lat="42.74115" lon="0.46518">
        <ele>2700.96</ele>
        <time>2015-03-10T10:10:38Z</time>
      </trkpt>
      <trkpt lat="42.74114" lon="0.46518">
        <ele>2702.4</ele>
        <time>2015-03-10T10:10:59Z</time>
      </trkpt>
      <trkpt lat="42.74116" lon="0.46518">
        <ele>2701.92</ele>
        <time>2015-03-10T10:11:14Z</time>
      </trkpt>
      <trkpt lat="42.74115" lon="0.46518">
        <ele>2701.92</ele>
        <time>2015-03-10T10:11:30Z</time>
      </trkpt>
      <trkpt lat="42.74115" lon="0.46517">
        <ele>2702.4</ele>
        <time>2015-03-10T10:11:41Z</time>
      </trkpt>
      <trkpt lat="42.74123" lon="0.46516">
        <ele>2701.44</ele>
        <time>2015-03-10T10:11:45Z</time>
      </trkpt>
      <trkpt lat="42.74155" lon="0.46526">
        <ele>2698.56</ele>
        <time>2015-03-10T10:11:53Z</time>
      </trkpt>
      <trkpt lat="42.74168" lon="0.46552">
        <ele>2693.75</ele>
        <time>2015-03-10T10:11:57Z</time>
      </trkpt>
      <trkpt lat="42.74171" lon="0.46572">
        <ele>2688.94</ele>
        <time>2015-03-10T10:11:59Z</time>
      </trkpt>
      <trkpt lat="42.74173" lon="0.46587">
        <ele>2685.1</ele>
        <time>2015-03-10T10:12:01Z</time>
      </trkpt>
      <trkpt lat="42.74179" lon="0.46601">
        <ele>2682.22</ele>
        <time>2015-03-10T10:12:03Z</time>
      </trkpt>
      <trkpt lat="42.74188" lon="0.46609">
        <ele>2680.29</ele>
        <time>2015-03-10T10:12:05Z</time>
      </trkpt>
      <trkpt lat="42.742" lon="0.46614">
        <ele>2678.85</ele>
        <time>2015-03-10T10:12:08Z</time>
      </trkpt>
      <trkpt lat="42.74219" lon="0.46618">
        <ele>2675.49</ele>
        <time>2015-03-10T10:12:12Z</time>
      </trkpt>
      <trkpt lat="42.74226" lon="0.46631">
        <ele>2671.16</ele>
        <time>2015-03-10T10:12:15Z</time>
      </trkpt>
      <trkpt lat="42.74229" lon="0.46644">
        <ele>2666.35</ele>
        <time>2015-03-10T10:12:17Z</time>
      </trkpt>
      <trkpt lat="42.7423" lon="0.4666">
        <ele>2662.03</ele>
        <time>2015-03-10T10:12:19Z</time>
      </trkpt>
      <trkpt lat="42.7423" lon="0.46668">
        <ele>2658.66</ele>
        <time>2015-03-10T10:12:20Z</time>
      </trkpt>
      <trkpt lat="42.74235" lon="0.46682">
        <ele>2652.9</ele>
        <time>2015-03-10T10:12:22Z</time>
      </trkpt>
      <trkpt lat="42.74236" lon="0.46689">
        <ele>2650.01</ele>
        <time>2015-03-10T10:12:23Z</time>
      </trkpt>
      <trkpt lat="42.74241" lon="0.46701">
        <ele>2644.72</ele>
        <time>2015-03-10T10:12:25Z</time>
      </trkpt>
      <trkpt lat="42.74242" lon="0.46707">
        <ele>2640.4</ele>
        <time>2015-03-10T10:12:26Z</time>
      </trkpt>
      <trkpt lat="42.74244" lon="0.4671">
        <ele>2638.96</ele>
        <time>2015-03-10T10:12:27Z</time>
      </trkpt>
      <trkpt lat="42.7425" lon="0.46709">
        <ele>2637.51</ele>
        <time>2015-03-10T10:12:29Z</time>
      </trkpt>
      <trkpt lat="42.74255" lon="0.46731">
        <ele>2631.75</ele>
        <time>2015-03-10T10:12:33Z</time>
      </trkpt>
      <trkpt lat="42.74255" lon="0.4674">
        <ele>2629.82</ele>
        <time>2015-03-10T10:12:34Z</time>
      </trkpt>
      <trkpt lat="42.74258" lon="0.46761">
        <ele>2625.98</ele>
        <time>2015-03-10T10:12:38Z</time>
      </trkpt>
      <trkpt lat="42.74275" lon="0.4675">
        <ele>2622.13</ele>
        <time>2015-03-10T10:12:42Z</time>
      </trkpt>
      <trkpt lat="42.74284" lon="0.4674">
        <ele>2619.73</ele>
        <time>2015-03-10T10:12:45Z</time>
      </trkpt>
      <trkpt lat="42.74296" lon="0.46737">
        <ele>2615.4</ele>
        <time>2015-03-10T10:12:48Z</time>
      </trkpt>
      <trkpt lat="42.74308" lon="0.4674">
        <ele>2610.12</ele>
        <time>2015-03-10T10:12:51Z</time>
      </trkpt>
      <trkpt lat="42.74317" lon="0.46741">
        <ele>2606.27</ele>
        <time>2015-03-10T10:12:56Z</time>
      </trkpt>
      <trkpt lat="42.74319" lon="0.46737">
        <ele>2605.79</ele>
        <time>2015-03-10T10:13:08Z</time>
      </trkpt>
      <trkpt lat="42.74334" lon="0.46713">
        <ele>2602.43</ele>
        <time>2015-03-10T10:13:16Z</time>
      </trkpt>
      <trkpt lat="42.74339" lon="0.46708">
        <ele>2600.98</ele>
        <time>2015-03-10T10:13:18Z</time>
      </trkpt>
      <trkpt lat="42.74346" lon="0.46714">
        <ele>2596.18</ele>
        <time>2015-03-10T10:13:21Z</time>
      </trkpt>
      <trkpt lat="42.74347" lon="0.46725">
        <ele>2594.25</ele>
        <time>2015-03-10T10:13:23Z</time>
      </trkpt>
      <trkpt lat="42.74358" lon="0.46743">
        <ele>2588.49</ele>
        <time>2015-03-10T10:13:29Z</time>
      </trkpt>
      <trkpt lat="42.7436" lon="0.46747">
        <ele>2586.56</ele>
        <time>2015-03-10T10:13:30Z</time>
      </trkpt>
      <trkpt lat="42.74363" lon="0.46757">
        <ele>2584.64</ele>
        <time>2015-03-10T10:13:32Z</time>
      </trkpt>
      <trkpt lat="42.7437" lon="0.46748">
        <ele>2581.76</ele>
        <time>2015-03-10T10:13:38Z</time>
      </trkpt>
      <trkpt lat="42.74382" lon="0.46717">
        <ele>2578.39</ele>
        <time>2015-03-10T10:13:44Z</time>
      </trkpt>
      <trkpt lat="42.74392" lon="0.46709">
        <ele>2574.07</ele>
        <time>2015-03-10T10:13:47Z</time>
      </trkpt>
      <trkpt lat="42.744" lon="0.46709">
        <ele>2570.7</ele>
        <time>2015-03-10T10:13:49Z</time>
      </trkpt>
      <trkpt lat="42.7441" lon="0.46711">
        <ele>2567.34</ele>
        <time>2015-03-10T10:13:51Z</time>
      </trkpt>
      <trkpt lat="42.7442" lon="0.4671">
        <ele>2562.53</ele>
        <time>2015-03-10T10:13:53Z</time>
      </trkpt>
      <trkpt lat="42.74426" lon="0.46708">
        <ele>2560.61</ele>
        <time>2015-03-10T10:13:54Z</time>
      </trkpt>
      <trkpt lat="42.7444" lon="0.46705">
        <ele>2554.84</ele>
        <time>2015-03-10T10:13:57Z</time>
      </trkpt>
      <trkpt lat="42.74447" lon="0.46699">
        <ele>2553.88</ele>
        <time>2015-03-10T10:13:59Z</time>
      </trkpt>
      <trkpt lat="42.74451" lon="0.46696">
        <ele>2553.4</ele>
        <time>2015-03-10T10:14:00Z</time>
      </trkpt>
      <trkpt lat="42.74465" lon="0.46681">
        <ele>2549.55</ele>
        <time>2015-03-10T10:14:04Z</time>
      </trkpt>
      <trkpt lat="42.74471" lon="0.46674">
        <ele>2548.11</ele>
        <time>2015-03-10T10:14:06Z</time>
      </trkpt>
      <trkpt lat="42.74478" lon="0.46659">
        <ele>2546.67</ele>
        <time>2015-03-10T10:14:09Z</time>
      </trkpt>
      <trkpt lat="42.74486" lon="0.46654">
        <ele>2542.82</ele>
        <time>2015-03-10T10:14:12Z</time>
      </trkpt>
      <trkpt lat="42.74495" lon="0.46653">
        <ele>2538.98</ele>
        <time>2015-03-10T10:14:15Z</time>
      </trkpt>
      <trkpt lat="42.745" lon="0.4664">
        <ele>2537.54</ele>
        <time>2015-03-10T10:14:18Z</time>
      </trkpt>
      <trkpt lat="42.74508" lon="0.46644">
        <ele>2532.73</ele>
        <time>2015-03-10T10:14:21Z</time>
      </trkpt>
      <trkpt lat="42.74517" lon="0.46633">
        <ele>2528.4</ele>
        <time>2015-03-10T10:14:25Z</time>
      </trkpt>
      <trkpt lat="42.74523" lon="0.46629">
        <ele>2524.56</ele>
        <time>2015-03-10T10:14:27Z</time>
      </trkpt>
      <trkpt lat="42.74529" lon="0.46626">
        <ele>2521.19</ele>
        <time>2015-03-10T10:14:29Z</time>
      </trkpt>
      <trkpt lat="42.74536" lon="0.46629">
        <ele>2516.39</ele>
        <time>2015-03-10T10:14:31Z</time>
      </trkpt>
      <trkpt lat="42.74539" lon="0.46627">
        <ele>2515.43</ele>
        <time>2015-03-10T10:14:32Z</time>
      </trkpt>
      <trkpt lat="42.74548" lon="0.46618">
        <ele>2509.66</ele>
        <time>2015-03-10T10:14:39Z</time>
      </trkpt>
      <trkpt lat="42.74548" lon="0.4662">
        <ele>2509.18</ele>
        <time>2015-03-10T10:15:05Z</time>
      </trkpt>
      <trkpt lat="42.74547" lon="0.46623">
        <ele>2509.18</ele>
        <time>2015-03-10T10:15:31Z</time>
      </trkpt>
      <trkpt lat="42.74546" lon="0.46623">
        <ele>2509.18</ele>
        <time>2015-03-10T10:15:55Z</time>
      </trkpt>
      <trkpt lat="42.74547" lon="0.46622">
        <ele>2508.7</ele>
        <time>2015-03-10T10:16:12Z</time>
      </trkpt>
      <trkpt lat="42.74555" lon="0.4662">
        <ele>2504.85</ele>
        <time>2015-03-10T10:16:16Z</time>
      </trkpt>
      <trkpt lat="42.74562" lon="0.46621">
        <ele>2500.53</ele>
        <time>2015-03-10T10:16:18Z</time>
      </trkpt>
      <trkpt lat="42.74576" lon="0.46622">
        <ele>2493.32</ele>
        <time>2015-03-10T10:16:22Z</time>
      </trkpt>
      <trkpt lat="42.74585" lon="0.46622">
        <ele>2488.03</ele>
        <time>2015-03-10T10:16:25Z</time>
      </trkpt>
      <trkpt lat="42.74596" lon="0.46623">
        <ele>2480.82</ele>
        <time>2015-03-10T10:16:28Z</time>
      </trkpt>
      <trkpt lat="42.74603" lon="0.4662">
        <ele>2477.45</ele>
        <time>2015-03-10T10:16:30Z</time>
      </trkpt>
      <trkpt lat="42.74609" lon="0.46622">
        <ele>2473.13</ele>
        <time>2015-03-10T10:16:32Z</time>
      </trkpt>
      <trkpt lat="42.74616" lon="0.46621">
        <ele>2469.76</ele>
        <time>2015-03-10T10:16:34Z</time>
      </trkpt>
      <trkpt lat="42.74621" lon="0.46615">
        <ele>2466.4</ele>
        <time>2015-03-10T10:16:36Z</time>
      </trkpt>
      <trkpt lat="42.74624" lon="0.46597">
        <ele>2464</ele>
        <time>2015-03-10T10:16:39Z</time>
      </trkpt>
      <trkpt lat="42.74624" lon="0.46586">
        <ele>2463.04</ele>
        <time>2015-03-10T10:16:49Z</time>
      </trkpt>
      <trkpt lat="42.74624" lon="0.46587">
        <ele>2463.04</ele>
        <time>2015-03-10T10:16:59Z</time>
      </trkpt>
      <trkpt lat="42.74633" lon="0.46583">
        <ele>2458.23</ele>
        <time>2015-03-10T10:17:03Z</time>
      </trkpt>
      <trkpt lat="42.74641" lon="0.46583">
        <ele>2452.94</ele>
        <time>2015-03-10T10:17:05Z</time>
      </trkpt>
      <trkpt lat="42.7465" lon="0.46584">
        <ele>2449.58</ele>
        <time>2015-03-10T10:17:07Z</time>
      </trkpt>
      <trkpt lat="42.74659" lon="0.46581">
        <ele>2443.81</ele>
        <time>2015-03-10T10:17:09Z</time>
      </trkpt>
      <trkpt lat="42.74677" lon="0.46576">
        <ele>2435.16</ele>
        <time>2015-03-10T10:17:13Z</time>
      </trkpt>
      <trkpt lat="42.74682" lon="0.46578">
        <ele>2431.79</ele>
        <time>2015-03-10T10:17:14Z</time>
      </trkpt>
      <trkpt lat="42.74691" lon="0.46577">
        <ele>2427.95</ele>
        <time>2015-03-10T10:17:16Z</time>
      </trkpt>
      <trkpt lat="42.74695" lon="0.46579">
        <ele>2425.06</ele>
        <time>2015-03-10T10:17:17Z</time>
      </trkpt>
      <trkpt lat="42.747" lon="0.46581">
        <ele>2422.66</ele>
        <time>2015-03-10T10:17:18Z</time>
      </trkpt>
      <trkpt lat="42.74719" lon="0.4659">
        <ele>2412.09</ele>
        <time>2015-03-10T10:17:22Z</time>
      </trkpt>
      <trkpt lat="42.74723" lon="0.46591">
        <ele>2409.68</ele>
        <time>2015-03-10T10:17:23Z</time>
      </trkpt>
      <trkpt lat="42.74744" lon="0.46597">
        <ele>2400.55</ele>
        <time>2015-03-10T10:17:27Z</time>
      </trkpt>
      <trkpt lat="42.74753" lon="0.46603">
        <ele>2396.7</ele>
        <time>2015-03-10T10:17:29Z</time>
      </trkpt>
      <trkpt lat="42.74764" lon="0.46597">
        <ele>2392.86</ele>
        <time>2015-03-10T10:17:31Z</time>
      </trkpt>
      <trkpt lat="42.74774" lon="0.46601">
        <ele>2389.97</ele>
        <time>2015-03-10T10:17:33Z</time>
      </trkpt>
      <trkpt lat="42.74777" lon="0.466">
        <ele>2388.05</ele>
        <time>2015-03-10T10:17:37Z</time>
      </trkpt>
      <trkpt lat="42.74782" lon="0.46597">
        <ele>2387.09</ele>
        <time>2015-03-10T10:17:41Z</time>
      </trkpt>
      <trkpt lat="42.74789" lon="0.46596">
        <ele>2386.61</ele>
        <time>2015-03-10T10:17:50Z</time>
      </trkpt>
      <trkpt lat="42.7479" lon="0.46595">
        <ele>2386.61</ele>
        <time>2015-03-10T10:18:11Z</time>
      </trkpt>
      <trkpt lat="42.7479" lon="0.46594">
        <ele>2386.13</ele>
        <time>2015-03-10T10:18:25Z</time>
      </trkpt>
      <trkpt lat="42.748" lon="0.46583">
        <ele>2384.69</ele>
        <time>2015-03-10T10:18:29Z</time>
      </trkpt>
      <trkpt lat="42.74813" lon="0.46573">
        <ele>2379.4</ele>
        <time>2015-03-10T10:18:32Z</time>
      </trkpt>
      <trkpt lat="42.74827" lon="0.46561">
        <ele>2376.04</ele>
        <time>2015-03-10T10:18:35Z</time>
      </trkpt>
      <trkpt lat="42.74851" lon="0.46561">
        <ele>2372.19</ele>
        <time>2015-03-10T10:18:40Z</time>
      </trkpt>
      <trkpt lat="42.74863" lon="0.4657">
        <ele>2368.35</ele>
        <time>2015-03-10T10:18:43Z</time>
      </trkpt>
      <trkpt lat="42.74877" lon="0.46563">
        <ele>2364.5</ele>
        <time>2015-03-10T10:18:46Z</time>
      </trkpt>
      <trkpt lat="42.74886" lon="0.46567">
        <ele>2360.65</ele>
        <time>2015-03-10T10:18:48Z</time>
      </trkpt>
      <trkpt lat="42.74904" lon="0.46557">
        <ele>2355.37</ele>
        <time>2015-03-10T10:18:51Z</time>
      </trkpt>
      <trkpt lat="42.74918" lon="0.46565">
        <ele>2350.56</ele>
        <time>2015-03-10T10:18:53Z</time>
      </trkpt>
      <trkpt lat="42.74926" lon="0.46564">
        <ele>2349.6</ele>
        <time>2015-03-10T10:18:54Z</time>
      </trkpt>
      <trkpt lat="42.74946" lon="0.46558">
        <ele>2347.2</ele>
        <time>2015-03-10T10:18:57Z</time>
      </trkpt>
      <trkpt lat="42.74956" lon="0.46525">
        <ele>2344.79</ele>
        <time>2015-03-10T10:19:04Z</time>
      </trkpt>
      <trkpt lat="42.74965" lon="0.46489">
        <ele>2341.91</ele>
        <time>2015-03-10T10:19:13Z</time>
      </trkpt>
      <trkpt lat="42.74968" lon="0.4647">
        <ele>2339.99</ele>
        <time>2015-03-10T10:19:16Z</time>
      </trkpt>
      <trkpt lat="42.74976" lon="0.46459">
        <ele>2334.7</ele>
        <time>2015-03-10T10:19:19Z</time>
      </trkpt>
      <trkpt lat="42.74985" lon="0.46458">
        <ele>2330.85</ele>
        <time>2015-03-10T10:19:21Z</time>
      </trkpt>
      <trkpt lat="42.74998" lon="0.46459">
        <ele>2326.53</ele>
        <time>2015-03-10T10:19:23Z</time>
      </trkpt>
      <trkpt lat="42.75008" lon="0.46452">
        <ele>2324.12</ele>
        <time>2015-03-10T10:19:25Z</time>
      </trkpt>
      <trkpt lat="42.75021" lon="0.46437">
        <ele>2322.2</ele>
        <time>2015-03-10T10:19:28Z</time>
      </trkpt>
      <trkpt lat="42.75029" lon="0.46447">
        <ele>2318.36</ele>
        <time>2015-03-10T10:19:32Z</time>
      </trkpt>
      <trkpt lat="42.75028" lon="0.46477">
        <ele>2314.51</ele>
        <time>2015-03-10T10:19:36Z</time>
      </trkpt>
      <trkpt lat="42.75032" lon="0.46504">
        <ele>2311.15</ele>
        <time>2015-03-10T10:19:40Z</time>
      </trkpt>
      <trkpt lat="42.7504" lon="0.46522">
        <ele>2306.82</ele>
        <time>2015-03-10T10:19:44Z</time>
      </trkpt>
      <trkpt lat="42.75047" lon="0.46525">
        <ele>2302.98</ele>
        <time>2015-03-10T10:19:46Z</time>
      </trkpt>
      <trkpt lat="42.75055" lon="0.46522">
        <ele>2297.69</ele>
        <time>2015-03-10T10:19:48Z</time>
      </trkpt>
      <trkpt lat="42.75058" lon="0.46517">
        <ele>2296.73</ele>
        <time>2015-03-10T10:19:49Z</time>
      </trkpt>
      <trkpt lat="42.75074" lon="0.46485">
        <ele>2289.04</ele>
        <time>2015-03-10T10:19:53Z</time>
      </trkpt>
      <trkpt lat="42.75089" lon="0.46463">
        <ele>2287.11</ele>
        <time>2015-03-10T10:19:56Z</time>
      </trkpt>
      <trkpt lat="42.75111" lon="0.46436">
        <ele>2282.31</ele>
        <time>2015-03-10T10:20:00Z</time>
      </trkpt>
      <trkpt lat="42.75124" lon="0.46416">
        <ele>2279.9</ele>
        <time>2015-03-10T10:20:03Z</time>
      </trkpt>
      <trkpt lat="42.75148" lon="0.46388">
        <ele>2275.58</ele>
        <time>2015-03-10T10:20:08Z</time>
      </trkpt>
      <trkpt lat="42.75162" lon="0.46372">
        <ele>2273.17</ele>
        <time>2015-03-10T10:20:11Z</time>
      </trkpt>
      <trkpt lat="42.75176" lon="0.46355">
        <ele>2270.29</ele>
        <time>2015-03-10T10:20:14Z</time>
      </trkpt>
      <trkpt lat="42.75202" lon="0.46347">
        <ele>2264.04</ele>
        <time>2015-03-10T10:20:17Z</time>
      </trkpt>
      <trkpt lat="42.75214" lon="0.4635">
        <ele>2260.68</ele>
        <time>2015-03-10T10:20:18Z</time>
      </trkpt>
      <trkpt lat="42.75226" lon="0.46356">
        <ele>2254.91</ele>
        <time>2015-03-10T10:20:19Z</time>
      </trkpt>
      <trkpt lat="42.75238" lon="0.46364">
        <ele>2251.54</ele>
        <time>2015-03-10T10:20:20Z</time>
      </trkpt>
      <trkpt lat="42.75261" lon="0.46382">
        <ele>2248.18</ele>
        <time>2015-03-10T10:20:22Z</time>
      </trkpt>
      <trkpt lat="42.75279" lon="0.46413">
        <ele>2248.18</ele>
        <time>2015-03-10T10:20:26Z</time>
      </trkpt>
      <trkpt lat="42.7528" lon="0.46417">
        <ele>2247.22</ele>
        <time>2015-03-10T10:20:31Z</time>
      </trkpt>
      <trkpt lat="42.75302" lon="0.46403">
        <ele>2244.33</ele>
        <time>2015-03-10T10:20:38Z</time>
      </trkpt>
      <trkpt lat="42.75318" lon="0.46397">
        <ele>2242.89</ele>
        <time>2015-03-10T10:20:46Z</time>
      </trkpt>
      <trkpt lat="42.75318" lon="0.46395">
        <ele>2242.89</ele>
        <time>2015-03-10T10:20:48Z</time>
      </trkpt>
      <trkpt lat="42.75321" lon="0.46385">
        <ele>2240.49</ele>
        <time>2015-03-10T10:20:55Z</time>
      </trkpt>
      <trkpt lat="42.75319" lon="0.46392">
        <ele>2236.64</ele>
        <time>2015-03-10T10:20:58Z</time>
      </trkpt>
      <trkpt lat="42.75319" lon="0.46398">
        <ele>2235.2</ele>
        <time>2015-03-10T10:20:59Z</time>
      </trkpt>
      <trkpt lat="42.75331" lon="0.46397">
        <ele>2227.99</ele>
        <time>2015-03-10T10:21:04Z</time>
      </trkpt>
      <trkpt lat="42.75339" lon="0.464">
        <ele>2223.19</ele>
        <time>2015-03-10T10:21:06Z</time>
      </trkpt>
      <trkpt lat="42.75347" lon="0.46404">
        <ele>2217.9</ele>
        <time>2015-03-10T10:21:08Z</time>
      </trkpt>
      <trkpt lat="42.75357" lon="0.46403">
        <ele>2211.65</ele>
        <time>2015-03-10T10:21:10Z</time>
      </trkpt>
      <trkpt lat="42.75368" lon="0.46399">
        <ele>2205.4</ele>
        <time>2015-03-10T10:21:12Z</time>
      </trkpt>
      <trkpt lat="42.75382" lon="0.46396">
        <ele>2200.59</ele>
        <time>2015-03-10T10:21:14Z</time>
      </trkpt>
      <trkpt lat="42.75398" lon="0.46384">
        <ele>2196.27</ele>
        <time>2015-03-10T10:21:16Z</time>
      </trkpt>
      <trkpt lat="42.75421" lon="0.46359">
        <ele>2191.94</ele>
        <time>2015-03-10T10:21:19Z</time>
      </trkpt>
      <trkpt lat="42.75443" lon="0.46324">
        <ele>2189.06</ele>
        <time>2015-03-10T10:21:23Z</time>
      </trkpt>
      <trkpt lat="42.75448" lon="0.46316">
        <ele>2188.58</ele>
        <time>2015-03-10T10:21:24Z</time>
      </trkpt>
      <trkpt lat="42.75453" lon="0.46288">
        <ele>2187.14</ele>
        <time>2015-03-10T10:21:28Z</time>
      </trkpt>
      <trkpt lat="42.75442" lon="0.46297">
        <ele>2187.14</ele>
        <time>2015-03-10T10:21:37Z</time>
      </trkpt>
      <trkpt lat="42.75443" lon="0.46299">
        <ele>2186.66</ele>
        <time>2015-03-10T10:21:57Z</time>
      </trkpt>
      <trkpt lat="42.75444" lon="0.46297">
        <ele>2186.66</ele>
        <time>2015-03-10T10:22:05Z</time>
      </trkpt>
      <trkpt lat="42.75452" lon="0.4629">
        <ele>2185.69</ele>
        <time>2015-03-10T10:22:09Z</time>
      </trkpt>
      <trkpt lat="42.75455" lon="0.46279">
        <ele>2183.77</ele>
        <time>2015-03-10T10:22:12Z</time>
      </trkpt>
      <trkpt lat="42.75465" lon="0.46259">
        <ele>2179.45</ele>
        <time>2015-03-10T10:22:17Z</time>
      </trkpt>
      <trkpt lat="42.7547" lon="0.46264">
        <ele>2177.52</ele>
        <time>2015-03-10T10:22:20Z</time>
      </trkpt>
      <trkpt lat="42.75476" lon="0.46281">
        <ele>2174.16</ele>
        <time>2015-03-10T10:22:24Z</time>
      </trkpt>
      <trkpt lat="42.75484" lon="0.46286">
        <ele>2169.35</ele>
        <time>2015-03-10T10:22:27Z</time>
      </trkpt>
      <trkpt lat="42.75492" lon="0.46292">
        <ele>2165.51</ele>
        <time>2015-03-10T10:22:29Z</time>
      </trkpt>
      <trkpt lat="42.75496" lon="0.46292">
        <ele>2162.14</ele>
        <time>2015-03-10T10:22:30Z</time>
      </trkpt>
      <trkpt lat="42.75505" lon="0.46298">
        <ele>2157.34</ele>
        <time>2015-03-10T10:22:32Z</time>
      </trkpt>
      <trkpt lat="42.75515" lon="0.46291">
        <ele>2153.01</ele>
        <time>2015-03-10T10:22:34Z</time>
      </trkpt>
      <trkpt lat="42.75529" lon="0.46282">
        <ele>2149.16</ele>
        <time>2015-03-10T10:22:36Z</time>
      </trkpt>
      <trkpt lat="42.75559" lon="0.46288">
        <ele>2146.28</ele>
        <time>2015-03-10T10:22:40Z</time>
      </trkpt>
      <trkpt lat="42.75566" lon="0.463">
        <ele>2147.72</ele>
        <time>2015-03-10T10:22:46Z</time>
      </trkpt>
      <trkpt lat="42.75563" lon="0.463">
        <ele>2146.76</ele>
        <time>2015-03-10T10:23:01Z</time>
      </trkpt>
      <trkpt lat="42.75564" lon="0.46301">
        <ele>2146.76</ele>
        <time>2015-03-10T10:23:26Z</time>
      </trkpt>
      <trkpt lat="42.75564" lon="0.46301">
        <ele>2146.76</ele>
        <time>2015-03-10T10:23:43Z</time>
      </trkpt>
      <trkpt lat="42.75564" lon="0.463">
        <ele>2146.28</ele>
        <time>2015-03-10T10:23:55Z</time>
      </trkpt>
      <trkpt lat="42.75564" lon="0.46301">
        <ele>2145.8</ele>
        <time>2015-03-10T10:24:35Z</time>
      </trkpt>
      <trkpt lat="42.75562" lon="0.463">
        <ele>2146.28</ele>
        <time>2015-03-10T10:24:55Z</time>
      </trkpt>
      <trkpt lat="42.75563" lon="0.463">
        <ele>2145.32</ele>
        <time>2015-03-10T10:25:22Z</time>
      </trkpt>
      <trkpt lat="42.75563" lon="0.46299">
        <ele>2145.32</ele>
        <time>2015-03-10T10:25:48Z</time>
      </trkpt>
      <trkpt lat="42.75562" lon="0.463">
        <ele>2145.32</ele>
        <time>2015-03-10T10:26:19Z</time>
      </trkpt>
      <trkpt lat="42.75562" lon="0.46299">
        <ele>2144.84</ele>
        <time>2015-03-10T10:26:56Z</time>
      </trkpt>
      <trkpt lat="42.75563" lon="0.46299">
        <ele>2144.36</ele>
        <time>2015-03-10T10:27:27Z</time>
      </trkpt>
      <trkpt lat="42.75563" lon="0.46297">
        <ele>2144.36</ele>
        <time>2015-03-10T10:27:59Z</time>
      </trkpt>
      <trkpt lat="42.75564" lon="0.46298">
        <ele>2144.36</ele>
        <time>2015-03-10T10:28:31Z</time>
      </trkpt>
      <trkpt lat="42.75563" lon="0.46298">
        <ele>2143.88</ele>
        <time>2015-03-10T10:28:58Z</time>
      </trkpt>
      <trkpt lat="42.75563" lon="0.46299">
        <ele>2143.88</ele>
        <time>2015-03-10T10:29:20Z</time>
      </trkpt>
      <trkpt lat="42.75562" lon="0.46298">
        <ele>2143.4</ele>
        <time>2015-03-10T10:29:43Z</time>
      </trkpt>
      <trkpt lat="42.75561" lon="0.46297">
        <ele>2143.4</ele>
        <time>2015-03-10T10:30:10Z</time>
      </trkpt>
      <trkpt lat="42.75561" lon="0.46297">
        <ele>2143.4</ele>
        <time>2015-03-10T10:30:33Z</time>
      </trkpt>
      <trkpt lat="42.75561" lon="0.46296">
        <ele>2142.92</ele>
        <time>2015-03-10T10:31:16Z</time>
      </trkpt>
      <trkpt lat="42.75561" lon="0.46297">
        <ele>2142.92</ele>
        <time>2015-03-10T10:31:46Z</time>
      </trkpt>
      <trkpt lat="42.7556" lon="0.46299">
        <ele>2143.88</ele>
        <time>2015-03-10T10:31:58Z</time>
      </trkpt>
      <trkpt lat="42.75566" lon="0.46301">
        <ele>2144.36</ele>
        <time>2015-03-10T10:32:14Z</time>
      </trkpt>
      <trkpt lat="42.75575" lon="0.4631">
        <ele>2146.76</ele>
        <time>2015-03-10T10:32:27Z</time>
      </trkpt>
      <trkpt lat="42.75582" lon="0.4632">
        <ele>2149.16</ele>
        <time>2015-03-10T10:32:42Z</time>
      </trkpt>
      <trkpt lat="42.75587" lon="0.46322">
        <ele>2150.61</ele>
        <time>2015-03-10T10:32:55Z</time>
      </trkpt>
      <trkpt lat="42.75588" lon="0.46317">
        <ele>2152.05</ele>
        <time>2015-03-10T10:33:10Z</time>
      </trkpt>
      <trkpt lat="42.7559" lon="0.46308">
        <ele>2154.93</ele>
        <time>2015-03-10T10:33:26Z</time>
      </trkpt>
      <trkpt lat="42.75593" lon="0.46301">
        <ele>2156.86</ele>
        <time>2015-03-10T10:33:40Z</time>
      </trkpt>
      <trkpt lat="42.75597" lon="0.46295">
        <ele>2158.78</ele>
        <time>2015-03-10T10:33:53Z</time>
      </trkpt>
      <trkpt lat="42.756" lon="0.46303">
        <ele>2159.74</ele>
        <time>2015-03-10T10:34:06Z</time>
      </trkpt>
      <trkpt lat="42.75605" lon="0.46313">
        <ele>2162.14</ele>
        <time>2015-03-10T10:34:21Z</time>
      </trkpt>
      <trkpt lat="42.75609" lon="0.46313">
        <ele>2164.06</ele>
        <time>2015-03-10T10:34:36Z</time>
      </trkpt>
      <trkpt lat="42.75609" lon="0.46303">
        <ele>2165.99</ele>
        <time>2015-03-10T10:34:50Z</time>
      </trkpt>
      <trkpt lat="42.75613" lon="0.46297">
        <ele>2167.91</ele>
        <time>2015-03-10T10:35:05Z</time>
      </trkpt>
      <trkpt lat="42.75615" lon="0.46306">
        <ele>2169.35</ele>
        <time>2015-03-10T10:35:19Z</time>
      </trkpt>
      <trkpt lat="42.75619" lon="0.4631">
        <ele>2171.76</ele>
        <time>2015-03-10T10:35:32Z</time>
      </trkpt>
      <trkpt lat="42.75621" lon="0.46304">
        <ele>2173.68</ele>
        <time>2015-03-10T10:35:49Z</time>
      </trkpt>
      <trkpt lat="42.75627" lon="0.46304">
        <ele>2175.6</ele>
        <time>2015-03-10T10:36:03Z</time>
      </trkpt>
      <trkpt lat="42.75632" lon="0.46305">
        <ele>2177.52</ele>
        <time>2015-03-10T10:36:16Z</time>
      </trkpt>
      <trkpt lat="42.75633" lon="0.46308">
        <ele>2177.04</ele>
        <time>2015-03-10T10:36:28Z</time>
      </trkpt>
      <trkpt lat="42.75637" lon="0.46307">
        <ele>2178.97</ele>
        <time>2015-03-10T10:36:42Z</time>
      </trkpt>
      <trkpt lat="42.75642" lon="0.4631">
        <ele>2180.41</ele>
        <time>2015-03-10T10:36:55Z</time>
      </trkpt>
      <trkpt lat="42.75647" lon="0.46312">
        <ele>2181.85</ele>
        <time>2015-03-10T10:37:13Z</time>
      </trkpt>
      <trkpt lat="42.75651" lon="0.46314">
        <ele>2183.77</ele>
        <time>2015-03-10T10:37:28Z</time>
      </trkpt>
      <trkpt lat="42.75654" lon="0.46311">
        <ele>2185.21</ele>
        <time>2015-03-10T10:37:44Z</time>
      </trkpt>
      <trkpt lat="42.75654" lon="0.46307">
        <ele>2186.66</ele>
        <time>2015-03-10T10:37:56Z</time>
      </trkpt>
      <trkpt lat="42.75656" lon="0.46311">
        <ele>2188.58</ele>
        <time>2015-03-10T10:38:12Z</time>
      </trkpt>
      <trkpt lat="42.7566" lon="0.46311">
        <ele>2189.54</ele>
        <time>2015-03-10T10:38:27Z</time>
      </trkpt>
      <trkpt lat="42.75664" lon="0.46314">
        <ele>2190.5</ele>
        <time>2015-03-10T10:38:38Z</time>
      </trkpt>
      <trkpt lat="42.75668" lon="0.46316">
        <ele>2191.46</ele>
        <time>2015-03-10T10:38:51Z</time>
      </trkpt>
      <trkpt lat="42.7567" lon="0.46318">
        <ele>2192.9</ele>
        <time>2015-03-10T10:39:05Z</time>
      </trkpt>
      <trkpt lat="42.7567" lon="0.46318">
        <ele>2191.94</ele>
        <time>2015-03-10T10:39:31Z</time>
      </trkpt>
      <trkpt lat="42.75675" lon="0.4632">
        <ele>2193.39</ele>
        <time>2015-03-10T10:39:56Z</time>
      </trkpt>
      <trkpt lat="42.75681" lon="0.46321">
        <ele>2194.83</ele>
        <time>2015-03-10T10:40:09Z</time>
      </trkpt>
      <trkpt lat="42.75686" lon="0.46323">
        <ele>2197.23</ele>
        <time>2015-03-10T10:40:23Z</time>
      </trkpt>
      <trkpt lat="42.7569" lon="0.46327">
        <ele>2197.71</ele>
        <time>2015-03-10T10:40:37Z</time>
      </trkpt>
      <trkpt lat="42.75693" lon="0.46326">
        <ele>2198.67</ele>
        <time>2015-03-10T10:40:54Z</time>
      </trkpt>
      <trkpt lat="42.7569" lon="0.46322">
        <ele>2199.15</ele>
        <time>2015-03-10T10:41:05Z</time>
      </trkpt>
      <trkpt lat="42.75688" lon="0.46315">
        <ele>2201.08</ele>
        <time>2015-03-10T10:41:23Z</time>
      </trkpt>
      <trkpt lat="42.75688" lon="0.46317">
        <ele>2201.56</ele>
        <time>2015-03-10T10:41:39Z</time>
      </trkpt>
      <trkpt lat="42.7569" lon="0.46312">
        <ele>2203.48</ele>
        <time>2015-03-10T10:41:53Z</time>
      </trkpt>
      <trkpt lat="42.75693" lon="0.46312">
        <ele>2204.92</ele>
        <time>2015-03-10T10:42:05Z</time>
      </trkpt>
      <trkpt lat="42.75695" lon="0.46314">
        <ele>2205.4</ele>
        <time>2015-03-10T10:42:16Z</time>
      </trkpt>
      <trkpt lat="42.75703" lon="0.46318">
        <ele>2206.84</ele>
        <time>2015-03-10T10:42:27Z</time>
      </trkpt>
      <trkpt lat="42.75713" lon="0.46328">
        <ele>2208.29</ele>
        <time>2015-03-10T10:42:43Z</time>
      </trkpt>
      <trkpt lat="42.75716" lon="0.46325">
        <ele>2210.21</ele>
        <time>2015-03-10T10:42:56Z</time>
      </trkpt>
      <trkpt lat="42.75714" lon="0.46323">
        <ele>2211.17</ele>
        <time>2015-03-10T10:43:09Z</time>
      </trkpt>
      <trkpt lat="42.75712" lon="0.46324">
        <ele>2211.17</ele>
        <time>2015-03-10T10:43:22Z</time>
      </trkpt>
      <trkpt lat="42.75711" lon="0.46319">
        <ele>2211.17</ele>
        <time>2015-03-10T10:43:36Z</time>
      </trkpt>
      <trkpt lat="42.75712" lon="0.46319">
        <ele>2210.69</ele>
        <time>2015-03-10T10:43:51Z</time>
      </trkpt>
      <trkpt lat="42.75712" lon="0.46319">
        <ele>2210.69</ele>
        <time>2015-03-10T10:44:14Z</time>
      </trkpt>
      <trkpt lat="42.75709" lon="0.46321">
        <ele>2210.69</ele>
        <time>2015-03-10T10:44:38Z</time>
      </trkpt>
      <trkpt lat="42.7571" lon="0.4632">
        <ele>2211.65</ele>
        <time>2015-03-10T10:44:56Z</time>
      </trkpt>
      <trkpt lat="42.75711" lon="0.46316">
        <ele>2213.09</ele>
        <time>2015-03-10T10:45:11Z</time>
      </trkpt>
      <trkpt lat="42.75712" lon="0.46314">
        <ele>2214.53</ele>
        <time>2015-03-10T10:45:24Z</time>
      </trkpt>
      <trkpt lat="42.75711" lon="0.46314">
        <ele>2215.5</ele>
        <time>2015-03-10T10:45:39Z</time>
      </trkpt>
      <trkpt lat="42.75715" lon="0.46311">
        <ele>2216.46</ele>
        <time>2015-03-10T10:45:49Z</time>
      </trkpt>
      <trkpt lat="42.75714" lon="0.4631">
        <ele>2218.38</ele>
        <time>2015-03-10T10:46:00Z</time>
      </trkpt>
      <trkpt lat="42.75714" lon="0.46308">
        <ele>2218.38</ele>
        <time>2015-03-10T10:46:13Z</time>
      </trkpt>
      <trkpt lat="42.75713" lon="0.46305">
        <ele>2219.34</ele>
        <time>2015-03-10T10:46:26Z</time>
      </trkpt>
      <trkpt lat="42.75712" lon="0.46303">
        <ele>2220.3</ele>
        <time>2015-03-10T10:46:41Z</time>
      </trkpt>
      <trkpt lat="42.75712" lon="0.46303">
        <ele>2219.82</ele>
        <time>2015-03-10T10:46:48Z</time>
      </trkpt>
      <trkpt lat="42.75714" lon="0.46301">
        <ele>2220.78</ele>
        <time>2015-03-10T10:46:59Z</time>
      </trkpt>
      <trkpt lat="42.75713" lon="0.46301">
        <ele>2222.22</ele>
        <time>2015-03-10T10:47:15Z</time>
      </trkpt>
      <trkpt lat="42.75714" lon="0.46299">
        <ele>2222.71</ele>
        <time>2015-03-10T10:47:30Z</time>
      </trkpt>
      <trkpt lat="42.75716" lon="0.46299">
        <ele>2222.22</ele>
        <time>2015-03-10T10:47:42Z</time>
      </trkpt>
      <trkpt lat="42.75716" lon="0.46301">
        <ele>2222.22</ele>
        <time>2015-03-10T10:47:57Z</time>
      </trkpt>
      <trkpt lat="42.75715" lon="0.46299">
        <ele>2223.67</ele>
        <time>2015-03-10T10:48:12Z</time>
      </trkpt>
      <trkpt lat="42.75714" lon="0.46296">
        <ele>2224.63</ele>
        <time>2015-03-10T10:48:21Z</time>
      </trkpt>
      <trkpt lat="42.75715" lon="0.46294">
        <ele>2225.59</ele>
        <time>2015-03-10T10:48:38Z</time>
      </trkpt>
      <trkpt lat="42.75716" lon="0.46293">
        <ele>2227.51</ele>
        <time>2015-03-10T10:48:51Z</time>
      </trkpt>
      <trkpt lat="42.75716" lon="0.46291">
        <ele>2229.92</ele>
        <time>2015-03-10T10:49:05Z</time>
      </trkpt>
      <trkpt lat="42.75717" lon="0.46288">
        <ele>2230.4</ele>
        <time>2015-03-10T10:49:17Z</time>
      </trkpt>
      <trkpt lat="42.75718" lon="0.46286">
        <ele>2231.36</ele>
        <time>2015-03-10T10:49:29Z</time>
      </trkpt>
      <trkpt lat="42.75719" lon="0.46283">
        <ele>2233.76</ele>
        <time>2015-03-10T10:49:41Z</time>
      </trkpt>
      <trkpt lat="42.75718" lon="0.46278">
        <ele>2235.2</ele>
        <time>2015-03-10T10:49:59Z</time>
      </trkpt>
      <trkpt lat="42.75718" lon="0.46275">
        <ele>2237.61</ele>
        <time>2015-03-10T10:50:13Z</time>
      </trkpt>
      <trkpt lat="42.75718" lon="0.46273">
        <ele>2239.05</ele>
        <time>2015-03-10T10:50:24Z</time>
      </trkpt>
      <trkpt lat="42.75719" lon="0.46273">
        <ele>2240.49</ele>
        <time>2015-03-10T10:50:40Z</time>
      </trkpt>
      <trkpt lat="42.75719" lon="0.46273">
        <ele>2241.93</ele>
        <time>2015-03-10T10:50:54Z</time>
      </trkpt>
      <trkpt lat="42.75718" lon="0.46271">
        <ele>2242.89</ele>
        <time>2015-03-10T10:51:03Z</time>
      </trkpt>
      <trkpt lat="42.75719" lon="0.46268">
        <ele>2244.33</ele>
        <time>2015-03-10T10:51:13Z</time>
      </trkpt>
      <trkpt lat="42.75716" lon="0.46267">
        <ele>2246.26</ele>
        <time>2015-03-10T10:51:29Z</time>
      </trkpt>
      <trkpt lat="42.75716" lon="0.46262">
        <ele>2247.22</ele>
        <time>2015-03-10T10:51:46Z</time>
      </trkpt>
      <trkpt lat="42.75718" lon="0.4626">
        <ele>2249.62</ele>
        <time>2015-03-10T10:52:02Z</time>
      </trkpt>
      <trkpt lat="42.75719" lon="0.46256">
        <ele>2251.06</ele>
        <time>2015-03-10T10:52:14Z</time>
      </trkpt>
      <trkpt lat="42.7572" lon="0.46259">
        <ele>2251.06</ele>
        <time>2015-03-10T10:52:44Z</time>
      </trkpt>
      <trkpt lat="42.75725" lon="0.4626">
        <ele>2251.54</ele>
        <time>2015-03-10T10:53:04Z</time>
      </trkpt>
      <trkpt lat="42.75734" lon="0.46261">
        <ele>2252.99</ele>
        <time>2015-03-10T10:53:19Z</time>
      </trkpt>
      <trkpt lat="42.75739" lon="0.46263">
        <ele>2253.47</ele>
        <time>2015-03-10T10:53:36Z</time>
      </trkpt>
      <trkpt lat="42.75748" lon="0.46265">
        <ele>2255.87</ele>
        <time>2015-03-10T10:53:51Z</time>
      </trkpt>
      <trkpt lat="42.75753" lon="0.46267">
        <ele>2257.79</ele>
        <time>2015-03-10T10:54:06Z</time>
      </trkpt>
      <trkpt lat="42.75756" lon="0.46272">
        <ele>2259.24</ele>
        <time>2015-03-10T10:54:22Z</time>
      </trkpt>
      <trkpt lat="42.75763" lon="0.46274">
        <ele>2262.12</ele>
        <time>2015-03-10T10:54:38Z</time>
      </trkpt>
      <trkpt lat="42.7577" lon="0.46272">
        <ele>2264.52</ele>
        <time>2015-03-10T10:54:51Z</time>
      </trkpt>
      <trkpt lat="42.75775" lon="0.4627">
        <ele>2265.96</ele>
        <time>2015-03-10T10:55:06Z</time>
      </trkpt>
      <trkpt lat="42.75777" lon="0.46275">
        <ele>2267.89</ele>
        <time>2015-03-10T10:55:21Z</time>
      </trkpt>
      <trkpt lat="42.75772" lon="0.46281">
        <ele>2268.85</ele>
        <time>2015-03-10T10:55:40Z</time>
      </trkpt>
      <trkpt lat="42.75771" lon="0.46286">
        <ele>2270.29</ele>
        <time>2015-03-10T10:55:51Z</time>
      </trkpt>
      <trkpt lat="42.75781" lon="0.46286">
        <ele>2272.69</ele>
        <time>2015-03-10T10:56:06Z</time>
      </trkpt>
      <trkpt lat="42.75781" lon="0.46285">
        <ele>2272.69</ele>
        <time>2015-03-10T10:56:22Z</time>
      </trkpt>
      <trkpt lat="42.75788" lon="0.46288">
        <ele>2274.62</ele>
        <time>2015-03-10T10:56:39Z</time>
      </trkpt>
      <trkpt lat="42.75795" lon="0.46289">
        <ele>2277.5</ele>
        <time>2015-03-10T10:56:53Z</time>
      </trkpt>
      <trkpt lat="42.75793" lon="0.46294">
        <ele>2277.5</ele>
        <time>2015-03-10T10:57:06Z</time>
      </trkpt>
      <trkpt lat="42.75792" lon="0.46294">
        <ele>2277.98</ele>
        <time>2015-03-10T10:57:20Z</time>
      </trkpt>
      <trkpt lat="42.75793" lon="0.46292">
        <ele>2278.46</ele>
        <time>2015-03-10T10:57:39Z</time>
      </trkpt>
      <trkpt lat="42.75794" lon="0.46297">
        <ele>2279.42</ele>
        <time>2015-03-10T10:57:55Z</time>
      </trkpt>
      <trkpt lat="42.75796" lon="0.46305">
        <ele>2281.83</ele>
        <time>2015-03-10T10:58:08Z</time>
      </trkpt>
      <trkpt lat="42.75804" lon="0.46305">
        <ele>2284.23</ele>
        <time>2015-03-10T10:58:23Z</time>
      </trkpt>
      <trkpt lat="42.75812" lon="0.46305">
        <ele>2286.15</ele>
        <time>2015-03-10T10:58:37Z</time>
      </trkpt>
      <trkpt lat="42.75822" lon="0.46303">
        <ele>2288.08</ele>
        <time>2015-03-10T10:58:55Z</time>
      </trkpt>
      <trkpt lat="42.7582" lon="0.46312">
        <ele>2290.48</ele>
        <time>2015-03-10T10:59:08Z</time>
      </trkpt>
      <trkpt lat="42.75821" lon="0.46317">
        <ele>2292.88</ele>
        <time>2015-03-10T10:59:21Z</time>
      </trkpt>
      <trkpt lat="42.75827" lon="0.46313">
        <ele>2293.84</ele>
        <time>2015-03-10T10:59:34Z</time>
      </trkpt>
      <trkpt lat="42.75834" lon="0.46312">
        <ele>2295.28</ele>
        <time>2015-03-10T10:59:49Z</time>
      </trkpt>
      <trkpt lat="42.75831" lon="0.4632">
        <ele>2297.21</ele>
        <time>2015-03-10T11:00:03Z</time>
      </trkpt>
      <trkpt lat="42.75837" lon="0.46315">
        <ele>2299.13</ele>
        <time>2015-03-10T11:00:16Z</time>
      </trkpt>
      <trkpt lat="42.75843" lon="0.46312">
        <ele>2300.09</ele>
        <time>2015-03-10T11:00:32Z</time>
      </trkpt>
      <trkpt lat="42.7584" lon="0.46322">
        <ele>2301.53</ele>
        <time>2015-03-10T11:00:46Z</time>
      </trkpt>
      <trkpt lat="42.75841" lon="0.46322">
        <ele>2302.49</ele>
        <time>2015-03-10T11:00:48Z</time>
      </trkpt>
      <trkpt lat="42.75848" lon="0.46316">
        <ele>2303.94</ele>
        <time>2015-03-10T11:01:06Z</time>
      </trkpt>
      <trkpt lat="42.75847" lon="0.46326">
        <ele>2305.86</ele>
        <time>2015-03-10T11:01:19Z</time>
      </trkpt>
      <trkpt lat="42.75849" lon="0.46334">
        <ele>2307.78</ele>
        <time>2015-03-10T11:01:33Z</time>
      </trkpt>
      <trkpt lat="42.75856" lon="0.46328">
        <ele>2309.7</ele>
        <time>2015-03-10T11:01:47Z</time>
      </trkpt>
      <trkpt lat="42.7586" lon="0.46333">
        <ele>2311.63</ele>
        <time>2015-03-10T11:02:01Z</time>
      </trkpt>
      <trkpt lat="42.75866" lon="0.46325">
        <ele>2313.55</ele>
        <time>2015-03-10T11:02:14Z</time>
      </trkpt>
      <trkpt lat="42.75869" lon="0.46322">
        <ele>2314.03</ele>
        <time>2015-03-10T11:02:26Z</time>
      </trkpt>
      <trkpt lat="42.75869" lon="0.46331">
        <ele>2315.95</ele>
        <time>2015-03-10T11:02:39Z</time>
      </trkpt>
      <trkpt lat="42.75874" lon="0.46336">
        <ele>2317.4</ele>
        <time>2015-03-10T11:02:51Z</time>
      </trkpt>
      <trkpt lat="42.75878" lon="0.46329">
        <ele>2319.32</ele>
        <time>2015-03-10T11:03:06Z</time>
      </trkpt>
      <trkpt lat="42.75878" lon="0.46338">
        <ele>2320.28</ele>
        <time>2015-03-10T11:03:20Z</time>
      </trkpt>
      <trkpt lat="42.75881" lon="0.4633">
        <ele>2321.72</ele>
        <time>2015-03-10T11:03:34Z</time>
      </trkpt>
      <trkpt lat="42.75884" lon="0.46325">
        <ele>2322.68</ele>
        <time>2015-03-10T11:03:49Z</time>
      </trkpt>
      <trkpt lat="42.75888" lon="0.46325">
        <ele>2324.61</ele>
        <time>2015-03-10T11:04:00Z</time>
      </trkpt>
      <trkpt lat="42.75889" lon="0.46327">
        <ele>2326.53</ele>
        <time>2015-03-10T11:04:12Z</time>
      </trkpt>
      <trkpt lat="42.75891" lon="0.4633">
        <ele>2327.49</ele>
        <time>2015-03-10T11:04:23Z</time>
      </trkpt>
      <trkpt lat="42.75893" lon="0.46328">
        <ele>2327.97</ele>
        <time>2015-03-10T11:04:28Z</time>
      </trkpt>
      <trkpt lat="42.75897" lon="0.46323">
        <ele>2328.93</ele>
        <time>2015-03-10T11:04:40Z</time>
      </trkpt>
      <trkpt lat="42.75901" lon="0.46321">
        <ele>2329.41</ele>
        <time>2015-03-10T11:04:50Z</time>
      </trkpt>
      <trkpt lat="42.75903" lon="0.46322">
        <ele>2330.85</ele>
        <time>2015-03-10T11:05:01Z</time>
      </trkpt>
      <trkpt lat="42.75901" lon="0.46327">
        <ele>2332.3</ele>
        <time>2015-03-10T11:05:07Z</time>
      </trkpt>
      <trkpt lat="42.759" lon="0.46332">
        <ele>2333.26</ele>
        <time>2015-03-10T11:05:19Z</time>
      </trkpt>
      <trkpt lat="42.75903" lon="0.46331">
        <ele>2335.18</ele>
        <time>2015-03-10T11:05:37Z</time>
      </trkpt>
      <trkpt lat="42.75905" lon="0.46333">
        <ele>2336.14</ele>
        <time>2015-03-10T11:05:50Z</time>
      </trkpt>
      <trkpt lat="42.75911" lon="0.46331">
        <ele>2338.54</ele>
        <time>2015-03-10T11:06:05Z</time>
      </trkpt>
      <trkpt lat="42.75916" lon="0.46327">
        <ele>2340.47</ele>
        <time>2015-03-10T11:06:19Z</time>
      </trkpt>
      <trkpt lat="42.75921" lon="0.46325">
        <ele>2342.39</ele>
        <time>2015-03-10T11:06:33Z</time>
      </trkpt>
      <trkpt lat="42.75926" lon="0.46322">
        <ele>2344.31</ele>
        <time>2015-03-10T11:06:47Z</time>
      </trkpt>
      <trkpt lat="42.75932" lon="0.46321">
        <ele>2345.27</ele>
        <time>2015-03-10T11:07:00Z</time>
      </trkpt>
      <trkpt lat="42.75933" lon="0.46327">
        <ele>2347.2</ele>
        <time>2015-03-10T11:07:12Z</time>
      </trkpt>
      <trkpt lat="42.75931" lon="0.46335">
        <ele>2349.12</ele>
        <time>2015-03-10T11:07:28Z</time>
      </trkpt>
      <trkpt lat="42.75929" lon="0.46343">
        <ele>2350.56</ele>
        <time>2015-03-10T11:07:42Z</time>
      </trkpt>
      <trkpt lat="42.75929" lon="0.46351">
        <ele>2352</ele>
        <time>2015-03-10T11:07:54Z</time>
      </trkpt>
      <trkpt lat="42.75932" lon="0.46352">
        <ele>2354.41</ele>
        <time>2015-03-10T11:08:07Z</time>
      </trkpt>
      <trkpt lat="42.75934" lon="0.4635">
        <ele>2353.44</ele>
        <time>2015-03-10T11:08:19Z</time>
      </trkpt>
      <trkpt lat="42.75934" lon="0.46351">
        <ele>2353.44</ele>
        <time>2015-03-10T11:08:29Z</time>
      </trkpt>
      <trkpt lat="42.75933" lon="0.4635">
        <ele>2353.44</ele>
        <time>2015-03-10T11:08:55Z</time>
      </trkpt>
      <trkpt lat="42.75934" lon="0.4635">
        <ele>2353.44</ele>
        <time>2015-03-10T11:09:19Z</time>
      </trkpt>
      <trkpt lat="42.75934" lon="0.46351">
        <ele>2353.44</ele>
        <time>2015-03-10T11:09:56Z</time>
      </trkpt>
      <trkpt lat="42.75935" lon="0.46349">
        <ele>2352.96</ele>
        <time>2015-03-10T11:10:27Z</time>
      </trkpt>
      <trkpt lat="42.75936" lon="0.4635">
        <ele>2353.44</ele>
        <time>2015-03-10T11:11:06Z</time>
      </trkpt>
      <trkpt lat="42.75935" lon="0.4635">
        <ele>2354.41</ele>
        <time>2015-03-10T11:11:18Z</time>
      </trkpt>
      <trkpt lat="42.75935" lon="0.46351">
        <ele>2354.41</ele>
        <time>2015-03-10T11:11:35Z</time>
      </trkpt>
      <trkpt lat="42.75935" lon="0.46352">
        <ele>2354.41</ele>
        <time>2015-03-10T11:11:46Z</time>
      </trkpt>
      <trkpt lat="42.75943" lon="0.46342">
        <ele>2354.41</ele>
        <time>2015-03-10T11:11:57Z</time>
      </trkpt>
      <trkpt lat="42.75954" lon="0.46327">
        <ele>2352.48</ele>
        <time>2015-03-10T11:12:12Z</time>
      </trkpt>
      <trkpt lat="42.75967" lon="0.46312">
        <ele>2349.6</ele>
        <time>2015-03-10T11:12:28Z</time>
      </trkpt>
      <trkpt lat="42.75972" lon="0.46306">
        <ele>2348.64</ele>
        <time>2015-03-10T11:12:35Z</time>
      </trkpt>
      <trkpt lat="42.75974" lon="0.46304">
        <ele>2348.64</ele>
        <time>2015-03-10T11:12:37Z</time>
      </trkpt>
      <trkpt lat="42.75987" lon="0.46293">
        <ele>2346.72</ele>
        <time>2015-03-10T11:12:51Z</time>
      </trkpt>
      <trkpt lat="42.75996" lon="0.46284">
        <ele>2346.72</ele>
        <time>2015-03-10T11:13:05Z</time>
      </trkpt>
      <trkpt lat="42.76006" lon="0.46275">
        <ele>2346.72</ele>
        <time>2015-03-10T11:13:18Z</time>
      </trkpt>
      <trkpt lat="42.7602" lon="0.46265">
        <ele>2345.75</ele>
        <time>2015-03-10T11:13:34Z</time>
      </trkpt>
      <trkpt lat="42.76031" lon="0.46259">
        <ele>2345.27</ele>
        <time>2015-03-10T11:13:48Z</time>
      </trkpt>
      <trkpt lat="42.76033" lon="0.46258">
        <ele>2345.27</ele>
        <time>2015-03-10T11:13:50Z</time>
      </trkpt>
      <trkpt lat="42.76045" lon="0.46249">
        <ele>2344.31</ele>
        <time>2015-03-10T11:14:05Z</time>
      </trkpt>
      <trkpt lat="42.76055" lon="0.4624">
        <ele>2343.83</ele>
        <time>2015-03-10T11:14:19Z</time>
      </trkpt>
      <trkpt lat="42.76063" lon="0.46236">
        <ele>2344.79</ele>
        <time>2015-03-10T11:14:33Z</time>
      </trkpt>
      <trkpt lat="42.76072" lon="0.46233">
        <ele>2345.75</ele>
        <time>2015-03-10T11:14:48Z</time>
      </trkpt>
      <trkpt lat="42.76081" lon="0.46232">
        <ele>2346.72</ele>
        <time>2015-03-10T11:15:02Z</time>
      </trkpt>
      <trkpt lat="42.7609" lon="0.46229">
        <ele>2346.72</ele>
        <time>2015-03-10T11:15:14Z</time>
      </trkpt>
      <trkpt lat="42.76095" lon="0.46227">
        <ele>2345.75</ele>
        <time>2015-03-10T11:15:19Z</time>
      </trkpt>
      <trkpt lat="42.76108" lon="0.46221">
        <ele>2344.31</ele>
        <time>2015-03-10T11:15:35Z</time>
      </trkpt>
      <trkpt lat="42.76119" lon="0.46215">
        <ele>2345.27</ele>
        <time>2015-03-10T11:15:51Z</time>
      </trkpt>
      <trkpt lat="42.76124" lon="0.46214">
        <ele>2346.72</ele>
        <time>2015-03-10T11:16:09Z</time>
      </trkpt>
      <trkpt lat="42.7613" lon="0.46214">
        <ele>2348.64</ele>
        <time>2015-03-10T11:16:27Z</time>
      </trkpt>
      <trkpt lat="42.76136" lon="0.46214">
        <ele>2350.56</ele>
        <time>2015-03-10T11:16:40Z</time>
      </trkpt>
      <trkpt lat="42.76144" lon="0.46214">
        <ele>2352.48</ele>
        <time>2015-03-10T11:16:55Z</time>
      </trkpt>
      <trkpt lat="42.76148" lon="0.46215">
        <ele>2353.44</ele>
        <time>2015-03-10T11:17:10Z</time>
      </trkpt>
      <trkpt lat="42.76157" lon="0.46214">
        <ele>2354.89</ele>
        <time>2015-03-10T11:17:25Z</time>
      </trkpt>
      <trkpt lat="42.76166" lon="0.46215">
        <ele>2356.81</ele>
        <time>2015-03-10T11:17:40Z</time>
      </trkpt>
      <trkpt lat="42.76171" lon="0.46215">
        <ele>2357.77</ele>
        <time>2015-03-10T11:17:53Z</time>
      </trkpt>
      <trkpt lat="42.76179" lon="0.46213">
        <ele>2360.17</ele>
        <time>2015-03-10T11:18:11Z</time>
      </trkpt>
      <trkpt lat="42.76187" lon="0.46212">
        <ele>2361.62</ele>
        <time>2015-03-10T11:18:27Z</time>
      </trkpt>
      <trkpt lat="42.762" lon="0.46208">
        <ele>2362.1</ele>
        <time>2015-03-10T11:18:42Z</time>
      </trkpt>
      <trkpt lat="42.76216" lon="0.46201">
        <ele>2360.65</ele>
        <time>2015-03-10T11:18:58Z</time>
      </trkpt>
      <trkpt lat="42.76225" lon="0.46193">
        <ele>2360.65</ele>
        <time>2015-03-10T11:19:12Z</time>
      </trkpt>
      <trkpt lat="42.76235" lon="0.46186">
        <ele>2361.14</ele>
        <time>2015-03-10T11:19:25Z</time>
      </trkpt>
      <trkpt lat="42.7624" lon="0.46182">
        <ele>2361.14</ele>
        <time>2015-03-10T11:19:34Z</time>
      </trkpt>
      <trkpt lat="42.76246" lon="0.46179">
        <ele>2361.14</ele>
        <time>2015-03-10T11:19:44Z</time>
      </trkpt>
      <trkpt lat="42.76258" lon="0.46173">
        <ele>2361.14</ele>
        <time>2015-03-10T11:19:58Z</time>
      </trkpt>
      <trkpt lat="42.76268" lon="0.46169">
        <ele>2361.62</ele>
        <time>2015-03-10T11:20:12Z</time>
      </trkpt>
      <trkpt lat="42.76279" lon="0.46162">
        <ele>2362.58</ele>
        <time>2015-03-10T11:20:25Z</time>
      </trkpt>
      <trkpt lat="42.76289" lon="0.46157">
        <ele>2364.02</ele>
        <time>2015-03-10T11:20:38Z</time>
      </trkpt>
      <trkpt lat="42.763" lon="0.4615">
        <ele>2363.06</ele>
        <time>2015-03-10T11:20:52Z</time>
      </trkpt>
      <trkpt lat="42.76305" lon="0.46145">
        <ele>2362.1</ele>
        <time>2015-03-10T11:21:04Z</time>
      </trkpt>
      <trkpt lat="42.76304" lon="0.46145">
        <ele>2361.62</ele>
        <time>2015-03-10T11:21:19Z</time>
      </trkpt>
      <trkpt lat="42.76305" lon="0.46147">
        <ele>2360.65</ele>
        <time>2015-03-10T11:21:48Z</time>
      </trkpt>
      <trkpt lat="42.76306" lon="0.46147">
        <ele>2360.65</ele>
        <time>2015-03-10T11:22:23Z</time>
      </trkpt>
      <trkpt lat="42.76306" lon="0.46147">
        <ele>2361.14</ele>
        <time>2015-03-10T11:22:59Z</time>
      </trkpt>
      <trkpt lat="42.76306" lon="0.46146">
        <ele>2360.65</ele>
        <time>2015-03-10T11:23:36Z</time>
      </trkpt>
      <trkpt lat="42.76307" lon="0.46146">
        <ele>2361.14</ele>
        <time>2015-03-10T11:24:10Z</time>
      </trkpt>
      <trkpt lat="42.76306" lon="0.46147">
        <ele>2361.14</ele>
        <time>2015-03-10T11:24:41Z</time>
      </trkpt>
      <trkpt lat="42.76306" lon="0.46146">
        <ele>2361.14</ele>
        <time>2015-03-10T11:25:23Z</time>
      </trkpt>
      <trkpt lat="42.76307" lon="0.46145">
        <ele>2362.1</ele>
        <time>2015-03-10T11:25:37Z</time>
      </trkpt>
      <trkpt lat="42.76306" lon="0.46146">
        <ele>2362.1</ele>
        <time>2015-03-10T11:25:57Z</time>
      </trkpt>
      <trkpt lat="42.76306" lon="0.46146">
        <ele>2362.1</ele>
        <time>2015-03-10T11:26:19Z</time>
      </trkpt>
      <trkpt lat="42.76306" lon="0.46146">
        <ele>2362.58</ele>
        <time>2015-03-10T11:26:34Z</time>
      </trkpt>
      <trkpt lat="42.76305" lon="0.46148">
        <ele>2362.58</ele>
        <time>2015-03-10T11:26:46Z</time>
      </trkpt>
      <trkpt lat="42.76305" lon="0.46148">
        <ele>2362.58</ele>
        <time>2015-03-10T11:27:04Z</time>
      </trkpt>
      <trkpt lat="42.76305" lon="0.46146">
        <ele>2361.62</ele>
        <time>2015-03-10T11:27:20Z</time>
      </trkpt>
      <trkpt lat="42.76304" lon="0.46147">
        <ele>2362.58</ele>
        <time>2015-03-10T11:27:23Z</time>
      </trkpt>
      <trkpt lat="42.76308" lon="0.46135">
        <ele>2360.65</ele>
        <time>2015-03-10T11:27:28Z</time>
      </trkpt>
      <trkpt lat="42.76317" lon="0.46124">
        <ele>2356.81</ele>
        <time>2015-03-10T11:27:31Z</time>
      </trkpt>
      <trkpt lat="42.76323" lon="0.46119">
        <ele>2354.89</ele>
        <time>2015-03-10T11:27:33Z</time>
      </trkpt>
      <trkpt lat="42.7634" lon="0.46109">
        <ele>2348.64</ele>
        <time>2015-03-10T11:27:38Z</time>
      </trkpt>
      <trkpt lat="42.76342" lon="0.46105">
        <ele>2347.68</ele>
        <time>2015-03-10T11:27:40Z</time>
      </trkpt>
      <trkpt lat="42.76345" lon="0.46098">
        <ele>2344.79</ele>
        <time>2015-03-10T11:27:42Z</time>
      </trkpt>
      <trkpt lat="42.76352" lon="0.46094">
        <ele>2342.87</ele>
        <time>2015-03-10T11:27:44Z</time>
      </trkpt>
      <trkpt lat="42.76353" lon="0.46087">
        <ele>2339.99</ele>
        <time>2015-03-10T11:27:46Z</time>
      </trkpt>
      <trkpt lat="42.76367" lon="0.46073">
        <ele>2333.26</ele>
        <time>2015-03-10T11:27:51Z</time>
      </trkpt>
      <trkpt lat="42.76364" lon="0.46062">
        <ele>2329.89</ele>
        <time>2015-03-10T11:27:54Z</time>
      </trkpt>
      <trkpt lat="42.76368" lon="0.46052">
        <ele>2327.01</ele>
        <time>2015-03-10T11:27:57Z</time>
      </trkpt>
      <trkpt lat="42.7637" lon="0.4604">
        <ele>2323.16</ele>
        <time>2015-03-10T11:28:00Z</time>
      </trkpt>
      <trkpt lat="42.76374" lon="0.46033">
        <ele>2319.8</ele>
        <time>2015-03-10T11:28:02Z</time>
      </trkpt>
      <trkpt lat="42.76376" lon="0.46031">
        <ele>2319.32</ele>
        <time>2015-03-10T11:28:03Z</time>
      </trkpt>
      <trkpt lat="42.76397" lon="0.46025">
        <ele>2314.99</ele>
        <time>2015-03-10T11:28:09Z</time>
      </trkpt>
      <trkpt lat="42.76399" lon="0.46026">
        <ele>2314.51</ele>
        <time>2015-03-10T11:28:10Z</time>
      </trkpt>
      <trkpt lat="42.76413" lon="0.4603">
        <ele>2311.63</ele>
        <time>2015-03-10T11:28:17Z</time>
      </trkpt>
      <trkpt lat="42.76413" lon="0.4603">
        <ele>2311.15</ele>
        <time>2015-03-10T11:28:18Z</time>
      </trkpt>
      <trkpt lat="42.76425" lon="0.46037">
        <ele>2308.26</ele>
        <time>2015-03-10T11:28:23Z</time>
      </trkpt>
      <trkpt lat="42.76429" lon="0.46041">
        <ele>2305.86</ele>
        <time>2015-03-10T11:28:25Z</time>
      </trkpt>
      <trkpt lat="42.76438" lon="0.46033">
        <ele>2301.05</ele>
        <time>2015-03-10T11:28:29Z</time>
      </trkpt>
      <trkpt lat="42.76445" lon="0.46026">
        <ele>2297.69</ele>
        <time>2015-03-10T11:28:31Z</time>
      </trkpt>
      <trkpt lat="42.76452" lon="0.4602">
        <ele>2293.36</ele>
        <time>2015-03-10T11:28:33Z</time>
      </trkpt>
      <trkpt lat="42.76461" lon="0.46014">
        <ele>2289.52</ele>
        <time>2015-03-10T11:28:35Z</time>
      </trkpt>
      <trkpt lat="42.76466" lon="0.46011">
        <ele>2286.63</ele>
        <time>2015-03-10T11:28:36Z</time>
      </trkpt>
      <trkpt lat="42.76477" lon="0.46009">
        <ele>2281.35</ele>
        <time>2015-03-10T11:28:38Z</time>
      </trkpt>
      <trkpt lat="42.76485" lon="0.46002">
        <ele>2277.5</ele>
        <time>2015-03-10T11:28:40Z</time>
      </trkpt>
      <trkpt lat="42.76492" lon="0.45993">
        <ele>2273.17</ele>
        <time>2015-03-10T11:28:42Z</time>
      </trkpt>
      <trkpt lat="42.765" lon="0.45983">
        <ele>2269.81</ele>
        <time>2015-03-10T11:28:44Z</time>
      </trkpt>
      <trkpt lat="42.76511" lon="0.45955">
        <ele>2264.04</ele>
        <time>2015-03-10T11:28:49Z</time>
      </trkpt>
      <trkpt lat="42.7652" lon="0.45948">
        <ele>2258.75</ele>
        <time>2015-03-10T11:28:51Z</time>
      </trkpt>
      <trkpt lat="42.76529" lon="0.45944">
        <ele>2254.91</ele>
        <time>2015-03-10T11:28:53Z</time>
      </trkpt>
      <trkpt lat="42.76538" lon="0.4593">
        <ele>2250.1</ele>
        <time>2015-03-10T11:28:55Z</time>
      </trkpt>
      <trkpt lat="42.76565" lon="0.45895">
        <ele>2242.41</ele>
        <time>2015-03-10T11:29:00Z</time>
      </trkpt>
      <trkpt lat="42.76578" lon="0.45889">
        <ele>2240.49</ele>
        <time>2015-03-10T11:29:02Z</time>
      </trkpt>
      <trkpt lat="42.76602" lon="0.45886">
        <ele>2237.61</ele>
        <time>2015-03-10T11:29:06Z</time>
      </trkpt>
      <trkpt lat="42.76614" lon="0.45892">
        <ele>2235.2</ele>
        <time>2015-03-10T11:29:08Z</time>
      </trkpt>
      <trkpt lat="42.76622" lon="0.45896">
        <ele>2235.2</ele>
        <time>2015-03-10T11:29:16Z</time>
      </trkpt>
      <trkpt lat="42.76624" lon="0.45897">
        <ele>2235.2</ele>
        <time>2015-03-10T11:29:18Z</time>
      </trkpt>
      <trkpt lat="42.76624" lon="0.45902">
        <ele>2234.24</ele>
        <time>2015-03-10T11:29:30Z</time>
      </trkpt>
      <trkpt lat="42.76625" lon="0.45901">
        <ele>2234.24</ele>
        <time>2015-03-10T11:29:41Z</time>
      </trkpt>
      <trkpt lat="42.76636" lon="0.45901">
        <ele>2236.64</ele>
        <time>2015-03-10T11:29:58Z</time>
      </trkpt>
      <trkpt lat="42.76646" lon="0.45898">
        <ele>2240.01</ele>
        <time>2015-03-10T11:30:16Z</time>
      </trkpt>
      <trkpt lat="42.76651" lon="0.45896">
        <ele>2241.93</ele>
        <time>2015-03-10T11:30:33Z</time>
      </trkpt>
      <trkpt lat="42.7666" lon="0.45896">
        <ele>2244.82</ele>
        <time>2015-03-10T11:30:47Z</time>
      </trkpt>
      <trkpt lat="42.7667" lon="0.45897">
        <ele>2247.7</ele>
        <time>2015-03-10T11:31:03Z</time>
      </trkpt>
      <trkpt lat="42.76677" lon="0.45894">
        <ele>2249.62</ele>
        <time>2015-03-10T11:31:19Z</time>
      </trkpt>
      <trkpt lat="42.76685" lon="0.45885">
        <ele>2252.03</ele>
        <time>2015-03-10T11:31:36Z</time>
      </trkpt>
      <trkpt lat="42.76688" lon="0.45871">
        <ele>2254.43</ele>
        <time>2015-03-10T11:31:51Z</time>
      </trkpt>
      <trkpt lat="42.76686" lon="0.45852">
        <ele>2255.87</ele>
        <time>2015-03-10T11:32:08Z</time>
      </trkpt>
      <trkpt lat="42.76686" lon="0.45849">
        <ele>2255.87</ele>
        <time>2015-03-10T11:32:10Z</time>
      </trkpt>
      <trkpt lat="42.76688" lon="0.45835">
        <ele>2256.35</ele>
        <time>2015-03-10T11:32:27Z</time>
      </trkpt>
      <trkpt lat="42.76688" lon="0.45835">
        <ele>2256.83</ele>
        <time>2015-03-10T11:32:38Z</time>
      </trkpt>
      <trkpt lat="42.76688" lon="0.45835">
        <ele>2256.83</ele>
        <time>2015-03-10T11:32:52Z</time>
      </trkpt>
      <trkpt lat="42.76689" lon="0.45835">
        <ele>2256.83</ele>
        <time>2015-03-10T11:32:56Z</time>
      </trkpt>
      <trkpt lat="42.76695" lon="0.45832">
        <ele>2256.35</ele>
        <time>2015-03-10T11:33:00Z</time>
      </trkpt>
      <trkpt lat="42.76703" lon="0.45827">
        <ele>2255.39</ele>
        <time>2015-03-10T11:33:03Z</time>
      </trkpt>
      <trkpt lat="42.7671" lon="0.45822">
        <ele>2254.91</ele>
        <time>2015-03-10T11:33:05Z</time>
      </trkpt>
      <trkpt lat="42.76723" lon="0.45811">
        <ele>2253.95</ele>
        <time>2015-03-10T11:33:09Z</time>
      </trkpt>
      <trkpt lat="42.76751" lon="0.45781">
        <ele>2252.03</ele>
        <time>2015-03-10T11:33:21Z</time>
      </trkpt>
      <trkpt lat="42.76782" lon="0.45759">
        <ele>2249.14</ele>
        <time>2015-03-10T11:33:30Z</time>
      </trkpt>
      <trkpt lat="42.76816" lon="0.4573">
        <ele>2246.26</ele>
        <time>2015-03-10T11:33:38Z</time>
      </trkpt>
      <trkpt lat="42.76844" lon="0.45703">
        <ele>2242.89</ele>
        <time>2015-03-10T11:33:44Z</time>
      </trkpt>
      <trkpt lat="42.76859" lon="0.45687">
        <ele>2240.97</ele>
        <time>2015-03-10T11:33:47Z</time>
      </trkpt>
      <trkpt lat="42.76863" lon="0.45681">
        <ele>2240.01</ele>
        <time>2015-03-10T11:33:48Z</time>
      </trkpt>
      <trkpt lat="42.76868" lon="0.45676">
        <ele>2240.01</ele>
        <time>2015-03-10T11:33:49Z</time>
      </trkpt>
      <trkpt lat="42.76887" lon="0.45658">
        <ele>2237.61</ele>
        <time>2015-03-10T11:33:53Z</time>
      </trkpt>
      <trkpt lat="42.76918" lon="0.45635">
        <ele>2235.2</ele>
        <time>2015-03-10T11:34:01Z</time>
      </trkpt>
      <trkpt lat="42.76922" lon="0.45632">
        <ele>2234.72</ele>
        <time>2015-03-10T11:34:02Z</time>
      </trkpt>
      <trkpt lat="42.76955" lon="0.45597">
        <ele>2231.84</ele>
        <time>2015-03-10T11:34:10Z</time>
      </trkpt>
      <trkpt lat="42.76966" lon="0.45585">
        <ele>2230.4</ele>
        <time>2015-03-10T11:34:13Z</time>
      </trkpt>
      <trkpt lat="42.77002" lon="0.45547">
        <ele>2227.03</ele>
        <time>2015-03-10T11:34:22Z</time>
      </trkpt>
      <trkpt lat="42.77023" lon="0.45528">
        <ele>2224.63</ele>
        <time>2015-03-10T11:34:26Z</time>
      </trkpt>
      <trkpt lat="42.77029" lon="0.45524">
        <ele>2223.67</ele>
        <time>2015-03-10T11:34:27Z</time>
      </trkpt>
      <trkpt lat="42.77035" lon="0.45521">
        <ele>2223.67</ele>
        <time>2015-03-10T11:34:28Z</time>
      </trkpt>
      <trkpt lat="42.77047" lon="0.45513">
        <ele>2222.22</ele>
        <time>2015-03-10T11:34:30Z</time>
      </trkpt>
      <trkpt lat="42.77059" lon="0.45506">
        <ele>2221.26</ele>
        <time>2015-03-10T11:34:32Z</time>
      </trkpt>
      <trkpt lat="42.77065" lon="0.45501">
        <ele>2220.78</ele>
        <time>2015-03-10T11:34:33Z</time>
      </trkpt>
      <trkpt lat="42.7707" lon="0.45495">
        <ele>2220.78</ele>
        <time>2015-03-10T11:34:34Z</time>
      </trkpt>
      <trkpt lat="42.77075" lon="0.4549">
        <ele>2219.82</ele>
        <time>2015-03-10T11:34:35Z</time>
      </trkpt>
      <trkpt lat="42.77081" lon="0.45486">
        <ele>2219.82</ele>
        <time>2015-03-10T11:34:36Z</time>
      </trkpt>
      <trkpt lat="42.77086" lon="0.45482">
        <ele>2218.38</ele>
        <time>2015-03-10T11:34:37Z</time>
      </trkpt>
      <trkpt lat="42.77091" lon="0.45478">
        <ele>2218.38</ele>
        <time>2015-03-10T11:34:38Z</time>
      </trkpt>
      <trkpt lat="42.77096" lon="0.45474">
        <ele>2217.9</ele>
        <time>2015-03-10T11:34:39Z</time>
      </trkpt>
      <trkpt lat="42.77098" lon="0.45469">
        <ele>2216.94</ele>
        <time>2015-03-10T11:34:40Z</time>
      </trkpt>
      <trkpt lat="42.77098" lon="0.45459">
        <ele>2215.5</ele>
        <time>2015-03-10T11:34:44Z</time>
      </trkpt>
      <trkpt lat="42.77101" lon="0.45458">
        <ele>2215.01</ele>
        <time>2015-03-10T11:34:45Z</time>
      </trkpt>
      <trkpt lat="42.77104" lon="0.45456">
        <ele>2215.01</ele>
        <time>2015-03-10T11:34:46Z</time>
      </trkpt>
      <trkpt lat="42.77106" lon="0.45452">
        <ele>2214.53</ele>
        <time>2015-03-10T11:34:47Z</time>
      </trkpt>
      <trkpt lat="42.77109" lon="0.45448">
        <ele>2214.05</ele>
        <time>2015-03-10T11:34:48Z</time>
      </trkpt>
      <trkpt lat="42.77113" lon="0.45444">
        <ele>2213.57</ele>
        <time>2015-03-10T11:34:49Z</time>
      </trkpt>
      <trkpt lat="42.77117" lon="0.45431">
        <ele>2212.13</ele>
        <time>2015-03-10T11:34:51Z</time>
      </trkpt>
      <trkpt lat="42.77129" lon="0.45405">
        <ele>2207.32</ele>
        <time>2015-03-10T11:34:56Z</time>
      </trkpt>
      <trkpt lat="42.7714" lon="0.45378">
        <ele>2204.44</ele>
        <time>2015-03-10T11:35:01Z</time>
      </trkpt>
      <trkpt lat="42.77147" lon="0.45354">
        <ele>2199.63</ele>
        <time>2015-03-10T11:35:04Z</time>
      </trkpt>
      <trkpt lat="42.77156" lon="0.4533">
        <ele>2195.79</ele>
        <time>2015-03-10T11:35:07Z</time>
      </trkpt>
      <trkpt lat="42.77167" lon="0.45307">
        <ele>2191.46</ele>
        <time>2015-03-10T11:35:10Z</time>
      </trkpt>
      <trkpt lat="42.77174" lon="0.45291">
        <ele>2187.62</ele>
        <time>2015-03-10T11:35:12Z</time>
      </trkpt>
      <trkpt lat="42.77188" lon="0.4526">
        <ele>2180.41</ele>
        <time>2015-03-10T11:35:16Z</time>
      </trkpt>
      <trkpt lat="42.77195" lon="0.45244">
        <ele>2176.56</ele>
        <time>2015-03-10T11:35:18Z</time>
      </trkpt>
      <trkpt lat="42.77205" lon="0.4522">
        <ele>2171.76</ele>
        <time>2015-03-10T11:35:21Z</time>
      </trkpt>
      <trkpt lat="42.77213" lon="0.45203">
        <ele>2168.39</ele>
        <time>2015-03-10T11:35:23Z</time>
      </trkpt>
      <trkpt lat="42.77232" lon="0.45164">
        <ele>2160.7</ele>
        <time>2015-03-10T11:35:28Z</time>
      </trkpt>
      <trkpt lat="42.77248" lon="0.45149">
        <ele>2157.82</ele>
        <time>2015-03-10T11:35:31Z</time>
      </trkpt>
      <trkpt lat="42.77258" lon="0.45142">
        <ele>2155.89</ele>
        <time>2015-03-10T11:35:33Z</time>
      </trkpt>
      <trkpt lat="42.77277" lon="0.45126">
        <ele>2151.57</ele>
        <time>2015-03-10T11:35:37Z</time>
      </trkpt>
      <trkpt lat="42.77283" lon="0.45126">
        <ele>2149.16</ele>
        <time>2015-03-10T11:35:42Z</time>
      </trkpt>
      <trkpt lat="42.77284" lon="0.45125">
        <ele>2149.16</ele>
        <time>2015-03-10T11:35:59Z</time>
      </trkpt>
      <trkpt lat="42.77286" lon="0.45125">
        <ele>2148.68</ele>
        <time>2015-03-10T11:36:08Z</time>
      </trkpt>
      <trkpt lat="42.77307" lon="0.45121">
        <ele>2144.84</ele>
        <time>2015-03-10T11:36:15Z</time>
      </trkpt>
      <trkpt lat="42.77316" lon="0.45118">
        <ele>2141.95</ele>
        <time>2015-03-10T11:36:17Z</time>
      </trkpt>
      <trkpt lat="42.77335" lon="0.45113">
        <ele>2132.82</ele>
        <time>2015-03-10T11:36:21Z</time>
      </trkpt>
      <trkpt lat="42.77347" lon="0.4511">
        <ele>2128.5</ele>
        <time>2015-03-10T11:36:23Z</time>
      </trkpt>
      <trkpt lat="42.77357" lon="0.45099">
        <ele>2125.13</ele>
        <time>2015-03-10T11:36:25Z</time>
      </trkpt>
      <trkpt lat="42.7737" lon="0.45089">
        <ele>2120.81</ele>
        <time>2015-03-10T11:36:27Z</time>
      </trkpt>
      <trkpt lat="42.77379" lon="0.45076">
        <ele>2117.44</ele>
        <time>2015-03-10T11:36:29Z</time>
      </trkpt>
      <trkpt lat="42.77389" lon="0.45063">
        <ele>2113.6</ele>
        <time>2015-03-10T11:36:32Z</time>
      </trkpt>
      <trkpt lat="42.77399" lon="0.45067">
        <ele>2109.75</ele>
        <time>2015-03-10T11:36:35Z</time>
      </trkpt>
      <trkpt lat="42.77406" lon="0.45066">
        <ele>2105.42</ele>
        <time>2015-03-10T11:36:37Z</time>
      </trkpt>
      <trkpt lat="42.77408" lon="0.45073">
        <ele>2102.54</ele>
        <time>2015-03-10T11:36:39Z</time>
      </trkpt>
      <trkpt lat="42.77419" lon="0.45074">
        <ele>2096.29</ele>
        <time>2015-03-10T11:36:44Z</time>
      </trkpt>
      <trkpt lat="42.77429" lon="0.45055">
        <ele>2093.41</ele>
        <time>2015-03-10T11:36:48Z</time>
      </trkpt>
      <trkpt lat="42.77442" lon="0.45048">
        <ele>2087.16</ele>
        <time>2015-03-10T11:36:51Z</time>
      </trkpt>
      <trkpt lat="42.77452" lon="0.45044">
        <ele>2083.31</ele>
        <time>2015-03-10T11:36:53Z</time>
      </trkpt>
      <trkpt lat="42.77464" lon="0.45039">
        <ele>2078.99</ele>
        <time>2015-03-10T11:36:55Z</time>
      </trkpt>
      <trkpt lat="42.77478" lon="0.45034">
        <ele>2073.7</ele>
        <time>2015-03-10T11:36:57Z</time>
      </trkpt>
      <trkpt lat="42.77494" lon="0.4503">
        <ele>2068.41</ele>
        <time>2015-03-10T11:36:59Z</time>
      </trkpt>
      <trkpt lat="42.7751" lon="0.45018">
        <ele>2063.61</ele>
        <time>2015-03-10T11:37:01Z</time>
      </trkpt>
      <trkpt lat="42.7752" lon="0.45015">
        <ele>2059.76</ele>
        <time>2015-03-10T11:37:02Z</time>
      </trkpt>
      <trkpt lat="42.77541" lon="0.45009">
        <ele>2055.92</ele>
        <time>2015-03-10T11:37:04Z</time>
      </trkpt>
      <trkpt lat="42.77561" lon="0.45012">
        <ele>2050.15</ele>
        <time>2015-03-10T11:37:06Z</time>
      </trkpt>
      <trkpt lat="42.77593" lon="0.45013">
        <ele>2043.42</ele>
        <time>2015-03-10T11:37:12Z</time>
      </trkpt>
      <trkpt lat="42.776" lon="0.45016">
        <ele>2044.38</ele>
        <time>2015-03-10T11:37:29Z</time>
      </trkpt>
      <trkpt lat="42.77614" lon="0.45025">
        <ele>2039.09</ele>
        <time>2015-03-10T11:37:32Z</time>
      </trkpt>
      <trkpt lat="42.77626" lon="0.45018">
        <ele>2036.69</ele>
        <time>2015-03-10T11:37:34Z</time>
      </trkpt>
      <trkpt lat="42.77641" lon="0.45012">
        <ele>2028.52</ele>
        <time>2015-03-10T11:37:36Z</time>
      </trkpt>
      <trkpt lat="42.7765" lon="0.44998">
        <ele>2024.19</ele>
        <time>2015-03-10T11:37:38Z</time>
      </trkpt>
      <trkpt lat="42.77667" lon="0.44969">
        <ele>2016.02</ele>
        <time>2015-03-10T11:37:42Z</time>
      </trkpt>
      <trkpt lat="42.77673" lon="0.4495">
        <ele>2010.73</ele>
        <time>2015-03-10T11:37:44Z</time>
      </trkpt>
      <trkpt lat="42.77677" lon="0.44941">
        <ele>2007.37</ele>
        <time>2015-03-10T11:37:45Z</time>
      </trkpt>
      <trkpt lat="42.7768" lon="0.44918">
        <ele>2002.08</ele>
        <time>2015-03-10T11:37:47Z</time>
      </trkpt>
      <trkpt lat="42.77682" lon="0.44891">
        <ele>1997.76</ele>
        <time>2015-03-10T11:37:49Z</time>
      </trkpt>
      <trkpt lat="42.77677" lon="0.44863">
        <ele>1992.47</ele>
        <time>2015-03-10T11:37:51Z</time>
      </trkpt>
      <trkpt lat="42.77673" lon="0.44824">
        <ele>1986.22</ele>
        <time>2015-03-10T11:37:54Z</time>
      </trkpt>
      <trkpt lat="42.77674" lon="0.44797">
        <ele>1982.86</ele>
        <time>2015-03-10T11:37:56Z</time>
      </trkpt>
      <trkpt lat="42.77673" lon="0.44783">
        <ele>1983.34</ele>
        <time>2015-03-10T11:37:57Z</time>
      </trkpt>
      <trkpt lat="42.77679" lon="0.44756">
        <ele>1979.49</ele>
        <time>2015-03-10T11:37:59Z</time>
      </trkpt>
      <trkpt lat="42.77677" lon="0.44732">
        <ele>1976.13</ele>
        <time>2015-03-10T11:38:01Z</time>
      </trkpt>
      <trkpt lat="42.77673" lon="0.44702">
        <ele>1971.8</ele>
        <time>2015-03-10T11:38:04Z</time>
      </trkpt>
      <trkpt lat="42.7767" lon="0.44682">
        <ele>1968.44</ele>
        <time>2015-03-10T11:38:06Z</time>
      </trkpt>
      <trkpt lat="42.77666" lon="0.44662">
        <ele>1963.15</ele>
        <time>2015-03-10T11:38:08Z</time>
      </trkpt>
      <trkpt lat="42.77672" lon="0.44645">
        <ele>1959.3</ele>
        <time>2015-03-10T11:38:10Z</time>
      </trkpt>
      <trkpt lat="42.77678" lon="0.44626">
        <ele>1954.02</ele>
        <time>2015-03-10T11:38:12Z</time>
      </trkpt>
      <trkpt lat="42.77683" lon="0.44605">
        <ele>1949.21</ele>
        <time>2015-03-10T11:38:14Z</time>
      </trkpt>
      <trkpt lat="42.77688" lon="0.44596">
        <ele>1944.88</ele>
        <time>2015-03-10T11:38:15Z</time>
      </trkpt>
      <trkpt lat="42.77697" lon="0.44576">
        <ele>1941.52</ele>
        <time>2015-03-10T11:38:17Z</time>
      </trkpt>
      <trkpt lat="42.777" lon="0.44566">
        <ele>1937.67</ele>
        <time>2015-03-10T11:38:18Z</time>
      </trkpt>
      <trkpt lat="42.77702" lon="0.44561">
        <ele>1933.35</ele>
        <time>2015-03-10T11:38:19Z</time>
      </trkpt>
      <trkpt lat="42.77703" lon="0.44562">
        <ele>1931.43</ele>
        <time>2015-03-10T11:38:21Z</time>
      </trkpt>
      <trkpt lat="42.77703" lon="0.44566">
        <ele>1933.35</ele>
        <time>2015-03-10T11:38:26Z</time>
      </trkpt>
      <trkpt lat="42.77702" lon="0.44569">
        <ele>1933.83</ele>
        <time>2015-03-10T11:38:35Z</time>
      </trkpt>
      <trkpt lat="42.77701" lon="0.44568">
        <ele>1933.83</ele>
        <time>2015-03-10T11:38:44Z</time>
      </trkpt>
      <trkpt lat="42.77701" lon="0.44568">
        <ele>1933.83</ele>
        <time>2015-03-10T11:38:48Z</time>
      </trkpt>
      <trkpt lat="42.77715" lon="0.4454">
        <ele>1929.98</ele>
        <time>2015-03-10T11:38:54Z</time>
      </trkpt>
      <trkpt lat="42.77723" lon="0.44512">
        <ele>1925.66</ele>
        <time>2015-03-10T11:38:57Z</time>
      </trkpt>
      <trkpt lat="42.77728" lon="0.4449">
        <ele>1921.33</ele>
        <time>2015-03-10T11:38:59Z</time>
      </trkpt>
      <trkpt lat="42.7773" lon="0.44467">
        <ele>1916.53</ele>
        <time>2015-03-10T11:39:01Z</time>
      </trkpt>
      <trkpt lat="42.77734" lon="0.44442">
        <ele>1911.24</ele>
        <time>2015-03-10T11:39:03Z</time>
      </trkpt>
      <trkpt lat="42.77738" lon="0.4443">
        <ele>1908.83</ele>
        <time>2015-03-10T11:39:04Z</time>
      </trkpt>
      <trkpt lat="42.77744" lon="0.44403">
        <ele>1901.63</ele>
        <time>2015-03-10T11:39:06Z</time>
      </trkpt>
      <trkpt lat="42.77754" lon="0.44361">
        <ele>1892.97</ele>
        <time>2015-03-10T11:39:09Z</time>
      </trkpt>
      <trkpt lat="42.77759" lon="0.44347">
        <ele>1889.61</ele>
        <time>2015-03-10T11:39:10Z</time>
      </trkpt>
      <trkpt lat="42.77762" lon="0.44332">
        <ele>1885.28</ele>
        <time>2015-03-10T11:39:11Z</time>
      </trkpt>
      <trkpt lat="42.7777" lon="0.44303">
        <ele>1881.92</ele>
        <time>2015-03-10T11:39:13Z</time>
      </trkpt>
      <trkpt lat="42.77778" lon="0.44278">
        <ele>1875.19</ele>
        <time>2015-03-10T11:39:15Z</time>
      </trkpt>
      <trkpt lat="42.77784" lon="0.44259">
        <ele>1870.86</ele>
        <time>2015-03-10T11:39:17Z</time>
      </trkpt>
      <trkpt lat="42.77781" lon="0.4425">
        <ele>1869.9</ele>
        <time>2015-03-10T11:39:19Z</time>
      </trkpt>
      <trkpt lat="42.77781" lon="0.44249">
        <ele>1869.42</ele>
        <time>2015-03-10T11:39:23Z</time>
      </trkpt>
      <trkpt lat="42.77807" lon="0.44236">
        <ele>1866.06</ele>
        <time>2015-03-10T11:39:31Z</time>
      </trkpt>
      <trkpt lat="42.77825" lon="0.44222">
        <ele>1865.09</ele>
        <time>2015-03-10T11:39:34Z</time>
      </trkpt>
      <trkpt lat="42.77854" lon="0.4422">
        <ele>1862.21</ele>
        <time>2015-03-10T11:39:39Z</time>
      </trkpt>
      <trkpt lat="42.77863" lon="0.44223">
        <ele>1861.25</ele>
        <time>2015-03-10T11:39:41Z</time>
      </trkpt>
      <trkpt lat="42.7788" lon="0.44232">
        <ele>1858.85</ele>
        <time>2015-03-10T11:39:44Z</time>
      </trkpt>
      <trkpt lat="42.77886" lon="0.44232">
        <ele>1857.4</ele>
        <time>2015-03-10T11:39:45Z</time>
      </trkpt>
      <trkpt lat="42.77893" lon="0.44231">
        <ele>1856.92</ele>
        <time>2015-03-10T11:39:46Z</time>
      </trkpt>
      <trkpt lat="42.77899" lon="0.44233">
        <ele>1855.96</ele>
        <time>2015-03-10T11:39:47Z</time>
      </trkpt>
      <trkpt lat="42.77904" lon="0.44235">
        <ele>1855.48</ele>
        <time>2015-03-10T11:39:48Z</time>
      </trkpt>
      <trkpt lat="42.77909" lon="0.44236">
        <ele>1854.52</ele>
        <time>2015-03-10T11:39:49Z</time>
      </trkpt>
      <trkpt lat="42.77915" lon="0.44237">
        <ele>1854.52</ele>
        <time>2015-03-10T11:39:50Z</time>
      </trkpt>
      <trkpt lat="42.77929" lon="0.44238">
        <ele>1852.6</ele>
        <time>2015-03-10T11:39:52Z</time>
      </trkpt>
      <trkpt lat="42.77936" lon="0.44241">
        <ele>1851.16</ele>
        <time>2015-03-10T11:39:53Z</time>
      </trkpt>
      <trkpt lat="42.77941" lon="0.44245">
        <ele>1850.68</ele>
        <time>2015-03-10T11:39:54Z</time>
      </trkpt>
      <trkpt lat="42.77945" lon="0.44251">
        <ele>1850.68</ele>
        <time>2015-03-10T11:39:55Z</time>
      </trkpt>
      <trkpt lat="42.77949" lon="0.44256">
        <ele>1849.71</ele>
        <time>2015-03-10T11:39:56Z</time>
      </trkpt>
      <trkpt lat="42.77954" lon="0.44259">
        <ele>1849.71</ele>
        <time>2015-03-10T11:39:57Z</time>
      </trkpt>
      <trkpt lat="42.77958" lon="0.4426">
        <ele>1849.71</ele>
        <time>2015-03-10T11:39:58Z</time>
      </trkpt>
      <trkpt lat="42.77963" lon="0.44259">
        <ele>1849.23</ele>
        <time>2015-03-10T11:39:59Z</time>
      </trkpt>
      <trkpt lat="42.77969" lon="0.44259">
        <ele>1848.27</ele>
        <time>2015-03-10T11:40:00Z</time>
      </trkpt>
      <trkpt lat="42.77979" lon="0.44261">
        <ele>1846.83</ele>
        <time>2015-03-10T11:40:02Z</time>
      </trkpt>
      <trkpt lat="42.77994" lon="0.44267">
        <ele>1845.39</ele>
        <time>2015-03-10T11:40:06Z</time>
      </trkpt>
      <trkpt lat="42.78016" lon="0.44269">
        <ele>1841.54</ele>
        <time>2015-03-10T11:40:10Z</time>
      </trkpt>
      <trkpt lat="42.78049" lon="0.44269">
        <ele>1835.77</ele>
        <time>2015-03-10T11:40:15Z</time>
      </trkpt>
      <trkpt lat="42.78068" lon="0.44283">
        <ele>1831.93</ele>
        <time>2015-03-10T11:40:18Z</time>
      </trkpt>
      <trkpt lat="42.7809" lon="0.44286">
        <ele>1826.64</ele>
        <time>2015-03-10T11:40:21Z</time>
      </trkpt>
      <trkpt lat="42.78105" lon="0.44288">
        <ele>1823.28</ele>
        <time>2015-03-10T11:40:23Z</time>
      </trkpt>
      <trkpt lat="42.78129" lon="0.44294">
        <ele>1819.43</ele>
        <time>2015-03-10T11:40:26Z</time>
      </trkpt>
      <trkpt lat="42.78146" lon="0.44298">
        <ele>1816.07</ele>
        <time>2015-03-10T11:40:28Z</time>
      </trkpt>
      <trkpt lat="42.78164" lon="0.44302">
        <ele>1812.7</ele>
        <time>2015-03-10T11:40:30Z</time>
      </trkpt>
      <trkpt lat="42.78181" lon="0.44306">
        <ele>1808.86</ele>
        <time>2015-03-10T11:40:32Z</time>
      </trkpt>
      <trkpt lat="42.78198" lon="0.44317">
        <ele>1805.49</ele>
        <time>2015-03-10T11:40:35Z</time>
      </trkpt>
      <trkpt lat="42.78208" lon="0.4432">
        <ele>1802.13</ele>
        <time>2015-03-10T11:40:37Z</time>
      </trkpt>
      <trkpt lat="42.78219" lon="0.44326">
        <ele>1797.32</ele>
        <time>2015-03-10T11:40:39Z</time>
      </trkpt>
      <trkpt lat="42.78232" lon="0.44334">
        <ele>1792.03</ele>
        <time>2015-03-10T11:40:41Z</time>
      </trkpt>
      <trkpt lat="42.78239" lon="0.44338">
        <ele>1789.15</ele>
        <time>2015-03-10T11:40:42Z</time>
      </trkpt>
      <trkpt lat="42.78253" lon="0.44349">
        <ele>1782.9</ele>
        <time>2015-03-10T11:40:44Z</time>
      </trkpt>
      <trkpt lat="42.78269" lon="0.44359">
        <ele>1778.58</ele>
        <time>2015-03-10T11:40:46Z</time>
      </trkpt>
      <trkpt lat="42.78281" lon="0.44373">
        <ele>1774.25</ele>
        <time>2015-03-10T11:40:48Z</time>
      </trkpt>
      <trkpt lat="42.78293" lon="0.4439">
        <ele>1769.92</ele>
        <time>2015-03-10T11:40:50Z</time>
      </trkpt>
      <trkpt lat="42.783" lon="0.44399">
        <ele>1766.56</ele>
        <time>2015-03-10T11:40:51Z</time>
      </trkpt>
      <trkpt lat="42.78317" lon="0.44417">
        <ele>1762.23</ele>
        <time>2015-03-10T11:40:53Z</time>
      </trkpt>
      <trkpt lat="42.78346" lon="0.44444">
        <ele>1751.66</ele>
        <time>2015-03-10T11:40:56Z</time>
      </trkpt>
      <trkpt lat="42.78357" lon="0.44454">
        <ele>1748.78</ele>
        <time>2015-03-10T11:40:57Z</time>
      </trkpt>
      <trkpt lat="42.78381" lon="0.44471">
        <ele>1744.93</ele>
        <time>2015-03-10T11:40:59Z</time>
      </trkpt>
      <trkpt lat="42.78393" lon="0.44475">
        <ele>1743.97</ele>
        <time>2015-03-10T11:41:00Z</time>
      </trkpt>
      <trkpt lat="42.78405" lon="0.44477">
        <ele>1742.05</ele>
        <time>2015-03-10T11:41:01Z</time>
      </trkpt>
      <trkpt lat="42.78418" lon="0.44481">
        <ele>1740.12</ele>
        <time>2015-03-10T11:41:02Z</time>
      </trkpt>
      <trkpt lat="42.78429" lon="0.44485">
        <ele>1738.68</ele>
        <time>2015-03-10T11:41:03Z</time>
      </trkpt>
      <trkpt lat="42.78441" lon="0.44487">
        <ele>1737.72</ele>
        <time>2015-03-10T11:41:04Z</time>
      </trkpt>
      <trkpt lat="42.78451" lon="0.44491">
        <ele>1735.8</ele>
        <time>2015-03-10T11:41:05Z</time>
      </trkpt>
      <trkpt lat="42.7846" lon="0.44498">
        <ele>1734.84</ele>
        <time>2015-03-10T11:41:06Z</time>
      </trkpt>
      <trkpt lat="42.78469" lon="0.44504">
        <ele>1732.43</ele>
        <time>2015-03-10T11:41:07Z</time>
      </trkpt>
      <trkpt lat="42.78503" lon="0.44519">
        <ele>1726.67</ele>
        <time>2015-03-10T11:41:11Z</time>
      </trkpt>
      <trkpt lat="42.78512" lon="0.44519">
        <ele>1723.78</ele>
        <time>2015-03-10T11:41:12Z</time>
      </trkpt>
      <trkpt lat="42.78539" lon="0.44529">
        <ele>1717.53</ele>
        <time>2015-03-10T11:41:15Z</time>
      </trkpt>
      <trkpt lat="42.78567" lon="0.44543">
        <ele>1711.76</ele>
        <time>2015-03-10T11:41:18Z</time>
      </trkpt>
      <trkpt lat="42.78578" lon="0.44542">
        <ele>1708.88</ele>
        <time>2015-03-10T11:41:19Z</time>
      </trkpt>
      <trkpt lat="42.78603" lon="0.44536">
        <ele>1702.63</ele>
        <time>2015-03-10T11:41:21Z</time>
      </trkpt>
      <trkpt lat="42.78617" lon="0.44534">
        <ele>1699.27</ele>
        <time>2015-03-10T11:41:22Z</time>
      </trkpt>
      <trkpt lat="42.78632" lon="0.44535">
        <ele>1697.34</ele>
        <time>2015-03-10T11:41:23Z</time>
      </trkpt>
      <trkpt lat="42.78645" lon="0.44535">
        <ele>1695.42</ele>
        <time>2015-03-10T11:41:24Z</time>
      </trkpt>
      <trkpt lat="42.78676" lon="0.44509">
        <ele>1692.06</ele>
        <time>2015-03-10T11:41:27Z</time>
      </trkpt>
      <trkpt lat="42.78711" lon="0.4449">
        <ele>1688.69</ele>
        <time>2015-03-10T11:41:31Z</time>
      </trkpt>
      <trkpt lat="42.78743" lon="0.44485">
        <ele>1685.33</ele>
        <time>2015-03-10T11:41:36Z</time>
      </trkpt>
      <trkpt lat="42.78762" lon="0.44482">
        <ele>1681.48</ele>
        <time>2015-03-10T11:41:41Z</time>
      </trkpt>
      <trkpt lat="42.78763" lon="0.44481">
        <ele>1681.96</ele>
        <time>2015-03-10T11:41:47Z</time>
      </trkpt>
      <trkpt lat="42.78782" lon="0.44487">
        <ele>1678.6</ele>
        <time>2015-03-10T11:41:52Z</time>
      </trkpt>
      <trkpt lat="42.78793" lon="0.44494">
        <ele>1675.72</ele>
        <time>2015-03-10T11:41:54Z</time>
      </trkpt>
      <trkpt lat="42.78805" lon="0.44504">
        <ele>1671.87</ele>
        <time>2015-03-10T11:41:56Z</time>
      </trkpt>
      <trkpt lat="42.78826" lon="0.44513">
        <ele>1665.14</ele>
        <time>2015-03-10T11:41:59Z</time>
      </trkpt>
      <trkpt lat="42.7884" lon="0.44515">
        <ele>1660.33</ele>
        <time>2015-03-10T11:42:01Z</time>
      </trkpt>
      <trkpt lat="42.78851" lon="0.44519">
        <ele>1656.97</ele>
        <time>2015-03-10T11:42:03Z</time>
      </trkpt>
      <trkpt lat="42.78861" lon="0.44522">
        <ele>1652.64</ele>
        <time>2015-03-10T11:42:05Z</time>
      </trkpt>
      <trkpt lat="42.78871" lon="0.44523">
        <ele>1646.88</ele>
        <time>2015-03-10T11:42:07Z</time>
      </trkpt>
      <trkpt lat="42.78874" lon="0.44528">
        <ele>1643.99</ele>
        <time>2015-03-10T11:42:08Z</time>
      </trkpt>
      <trkpt lat="42.78883" lon="0.44537">
        <ele>1640.15</ele>
        <time>2015-03-10T11:42:11Z</time>
      </trkpt>
      <trkpt lat="42.78897" lon="0.44542">
        <ele>1634.86</ele>
        <time>2015-03-10T11:42:13Z</time>
      </trkpt>
      <trkpt lat="42.78905" lon="0.44544">
        <ele>1631.01</ele>
        <time>2015-03-10T11:42:14Z</time>
      </trkpt>
      <trkpt lat="42.78923" lon="0.44535">
        <ele>1625.73</ele>
        <time>2015-03-10T11:42:16Z</time>
      </trkpt>
      <trkpt lat="42.78944" lon="0.44533">
        <ele>1622.36</ele>
        <time>2015-03-10T11:42:18Z</time>
      </trkpt>
      <trkpt lat="42.78976" lon="0.44522">
        <ele>1618.52</ele>
        <time>2015-03-10T11:42:21Z</time>
      </trkpt>
      <trkpt lat="42.78992" lon="0.44491">
        <ele>1616.59</ele>
        <time>2015-03-10T11:42:24Z</time>
      </trkpt>
      <trkpt lat="42.78993" lon="0.4448">
        <ele>1616.59</ele>
        <time>2015-03-10T11:42:25Z</time>
      </trkpt>
      <trkpt lat="42.78992" lon="0.44471">
        <ele>1616.11</ele>
        <time>2015-03-10T11:42:26Z</time>
      </trkpt>
      <trkpt lat="42.7899" lon="0.44463">
        <ele>1616.11</ele>
        <time>2015-03-10T11:42:27Z</time>
      </trkpt>
      <trkpt lat="42.78986" lon="0.4445">
        <ele>1616.11</ele>
        <time>2015-03-10T11:42:30Z</time>
      </trkpt>
      <trkpt lat="42.78986" lon="0.44449">
        <ele>1617.07</ele>
        <time>2015-03-10T11:42:42Z</time>
      </trkpt>
      <trkpt lat="42.78986" lon="0.4445">
        <ele>1616.11</ele>
        <time>2015-03-10T11:43:02Z</time>
      </trkpt>
      <trkpt lat="42.78986" lon="0.44449">
        <ele>1617.07</ele>
        <time>2015-03-10T11:43:13Z</time>
      </trkpt>
      <trkpt lat="42.78986" lon="0.44448">
        <ele>1616.59</ele>
        <time>2015-03-10T11:43:24Z</time>
      </trkpt>
      <trkpt lat="42.78987" lon="0.44435">
        <ele>1616.11</ele>
        <time>2015-03-10T11:43:37Z</time>
      </trkpt>
      <trkpt lat="42.78996" lon="0.44408">
        <ele>1615.15</ele>
        <time>2015-03-10T11:43:54Z</time>
      </trkpt>
      <trkpt lat="42.79002" lon="0.4438">
        <ele>1614.19</ele>
        <time>2015-03-10T11:44:10Z</time>
      </trkpt>
      <trkpt lat="42.79004" lon="0.44349">
        <ele>1613.71</ele>
        <time>2015-03-10T11:44:28Z</time>
      </trkpt>
      <trkpt lat="42.79003" lon="0.44344">
        <ele>1613.71</ele>
        <time>2015-03-10T11:44:31Z</time>
      </trkpt>
      <trkpt lat="42.79003" lon="0.44343">
        <ele>1614.19</ele>
        <time>2015-03-10T11:44:32Z</time>
      </trkpt>
      <trkpt lat="42.79002" lon="0.44342">
        <ele>1614.19</ele>
        <time>2015-03-10T11:44:33Z</time>
      </trkpt>
      <trkpt lat="42.78987" lon="0.44332">
        <ele>1613.23</ele>
        <time>2015-03-10T11:44:50Z</time>
      </trkpt>
      <trkpt lat="42.78985" lon="0.44332">
        <ele>1613.23</ele>
        <time>2015-03-10T11:45:03Z</time>
      </trkpt>
      <trkpt lat="42.78985" lon="0.44332">
        <ele>1613.23</ele>
        <time>2015-03-10T11:45:16Z</time>
      </trkpt>
      <trkpt lat="42.78984" lon="0.44331">
        <ele>1612.75</ele>
        <time>2015-03-10T11:45:30Z</time>
      </trkpt>
      <trkpt lat="42.78985" lon="0.4433">
        <ele>1611.79</ele>
        <time>2015-03-10T11:45:39Z</time>
      </trkpt>
      <trkpt lat="42.78985" lon="0.44329">
        <ele>1611.31</ele>
        <time>2015-03-10T11:46:15Z</time>
      </trkpt>
      <trkpt lat="42.78984" lon="0.44331">
        <ele>1610.83</ele>
        <time>2015-03-10T11:47:00Z</time>
      </trkpt>
      <trkpt lat="42.78985" lon="0.44329">
        <ele>1610.83</ele>
        <time>2015-03-10T11:47:37Z</time>
      </trkpt>
      <trkpt lat="42.78986" lon="0.44329">
        <ele>1610.83</ele>
        <time>2015-03-10T11:48:19Z</time>
      </trkpt>
      <trkpt lat="42.78986" lon="0.4433">
        <ele>1610.83</ele>
        <time>2015-03-10T11:48:55Z</time>
      </trkpt>
      <trkpt lat="42.78984" lon="0.4433">
        <ele>1611.31</ele>
        <time>2015-03-10T11:49:29Z</time>
      </trkpt>
      <trkpt lat="42.78984" lon="0.44333">
        <ele>1610.83</ele>
        <time>2015-03-10T11:49:53Z</time>
      </trkpt>
      <trkpt lat="42.78985" lon="0.44332">
        <ele>1610.35</ele>
        <time>2015-03-10T11:50:00Z</time>
      </trkpt>
      <trkpt lat="42.78986" lon="0.44331">
        <ele>1610.35</ele>
        <time>2015-03-10T11:50:09Z</time>
      </trkpt>
    </trkseg>
  </trk>
</gpx>